<?xml version="1.0" encoding="UTF-8" standalone="no" ?>
<gpx xmlns="http://www.topografix.com/GPX/1/1" xmlns:xsi="http://www.w3.org/2001/XMLSchema-instance" xsi:schemaLocation="http://www.topografix.com/GPX/1/1 http://www.topografix.com/GPX/1/1/gpx.xsd" version="1.1" creator="VisuGPX - https://www.visugpx.com">
  <metadata>
    <name>CascadeDeLaPicheSentiersEtHor-sentier</name>
    <desc><![CDATA[toujours pour comprendre ou sa passe, ou sa passait (il y à 15 ans, et même 30ans quand on l'a fait avec Sophie et Guilhem)]]></desc>
  </metadata>
  <wpt lat="44.33744" lon="6.43151">
    <ele>1671.8</ele>
    <name><![CDATA[xXWCXPIZ--.1.jpg]]></name>
  </wpt>
  <wpt lat="44.33627" lon="6.42679">
    <ele>1672.4</ele>
    <name><![CDATA[xXWCVrto--.1.jpg]]></name>
  </wpt>
  <wpt lat="44.33641" lon="6.42906">
    <ele>1699.9</ele>
    <name><![CDATA[xXWCXDwR--.1.jpg]]></name>
  </wpt>
  <wpt lat="44.33666" lon="6.43226">
    <ele>1732.8</ele>
    <name><![CDATA[xXWCXL9y--.1.jpg]]></name>
  </wpt>
  <trk>
    <name><![CDATA[CascadeDeLaPicheSentiersEtHor-sentier_1]]></name>
    <trkseg>
      <trkpt lat="44.33697" lon="6.42872">
        <ele>1698.522</ele>
        <time>2020-10-07T08:48:39Z</time>
      </trkpt>
      <trkpt lat="44.33699" lon="6.42873">
        <ele>1702.556</ele>
        <time>2020-10-07T08:48:44Z</time>
      </trkpt>
      <trkpt lat="44.33699" lon="6.42876">
        <ele>1701.941</ele>
        <time>2020-10-07T08:48:50Z</time>
      </trkpt>
      <trkpt lat="44.33699" lon="6.42878">
        <ele>1701.969</ele>
        <time>2020-10-07T08:48:55Z</time>
      </trkpt>
      <trkpt lat="44.33698" lon="6.42878">
        <ele>1699.933</ele>
        <time>2020-10-07T08:49:01Z</time>
      </trkpt>
      <trkpt lat="44.33698" lon="6.42879">
        <ele>1699.996</ele>
        <time>2020-10-07T08:49:06Z</time>
      </trkpt>
      <trkpt lat="44.33698" lon="6.42879">
        <ele>1699.992</ele>
        <time>2020-10-07T08:49:12Z</time>
      </trkpt>
      <trkpt lat="44.33698" lon="6.4288">
        <ele>1700.917</ele>
        <time>2020-10-07T08:49:17Z</time>
      </trkpt>
      <trkpt lat="44.33698" lon="6.4288">
        <ele>1701.077</ele>
        <time>2020-10-07T08:49:22Z</time>
      </trkpt>
      <trkpt lat="44.33699" lon="6.42878">
        <ele>1700.654</ele>
        <time>2020-10-07T08:49:28Z</time>
      </trkpt>
      <trkpt lat="44.33699" lon="6.42876">
        <ele>1703.314</ele>
        <time>2020-10-07T08:49:34Z</time>
      </trkpt>
      <trkpt lat="44.337" lon="6.42875">
        <ele>1704.736</ele>
        <time>2020-10-07T08:49:40Z</time>
      </trkpt>
      <trkpt lat="44.337" lon="6.42873">
        <ele>1705.427</ele>
        <time>2020-10-07T08:49:46Z</time>
      </trkpt>
      <trkpt lat="44.33701" lon="6.42873">
        <ele>1705.26</ele>
        <time>2020-10-07T08:49:52Z</time>
      </trkpt>
      <trkpt lat="44.337" lon="6.42875">
        <ele>1701.608</ele>
        <time>2020-10-07T08:49:57Z</time>
      </trkpt>
      <trkpt lat="44.337" lon="6.42877">
        <ele>1703.283</ele>
        <time>2020-10-07T08:50:02Z</time>
      </trkpt>
      <trkpt lat="44.33699" lon="6.42877">
        <ele>1702.109</ele>
        <time>2020-10-07T08:50:07Z</time>
      </trkpt>
      <trkpt lat="44.33699" lon="6.42878">
        <ele>1700.93</ele>
        <time>2020-10-07T08:50:13Z</time>
      </trkpt>
      <trkpt lat="44.33701" lon="6.42876">
        <ele>1700.83</ele>
        <time>2020-10-07T08:50:18Z</time>
      </trkpt>
      <trkpt lat="44.33702" lon="6.42875">
        <ele>1699.774</ele>
        <time>2020-10-07T08:50:23Z</time>
      </trkpt>
      <trkpt lat="44.33698" lon="6.42878">
        <ele>1705.292</ele>
        <time>2020-10-07T08:50:29Z</time>
      </trkpt>
      <trkpt lat="44.33697" lon="6.42879">
        <ele>1706.747</ele>
        <time>2020-10-07T08:50:34Z</time>
      </trkpt>
      <trkpt lat="44.33698" lon="6.42878">
        <ele>1706.341</ele>
        <time>2020-10-07T08:50:40Z</time>
      </trkpt>
      <trkpt lat="44.337" lon="6.42877">
        <ele>1705.229</ele>
        <time>2020-10-07T08:50:46Z</time>
      </trkpt>
      <trkpt lat="44.337" lon="6.42877">
        <ele>1703.25</ele>
        <time>2020-10-07T08:50:52Z</time>
      </trkpt>
      <trkpt lat="44.337" lon="6.42877">
        <ele>1704.172</ele>
        <time>2020-10-07T08:50:57Z</time>
      </trkpt>
      <trkpt lat="44.337" lon="6.42878">
        <ele>1704.84</ele>
        <time>2020-10-07T08:51:03Z</time>
      </trkpt>
      <trkpt lat="44.33701" lon="6.42879">
        <ele>1704.13</ele>
        <time>2020-10-07T08:51:09Z</time>
      </trkpt>
      <trkpt lat="44.337" lon="6.42878">
        <ele>1703.889</ele>
        <time>2020-10-07T08:51:15Z</time>
      </trkpt>
      <trkpt lat="44.33698" lon="6.4288">
        <ele>1704.888</ele>
        <time>2020-10-07T08:51:21Z</time>
      </trkpt>
      <trkpt lat="44.33698" lon="6.42879">
        <ele>1707.801</ele>
        <time>2020-10-07T08:51:26Z</time>
      </trkpt>
      <trkpt lat="44.33696" lon="6.42879">
        <ele>1709.699</ele>
        <time>2020-10-07T08:51:32Z</time>
      </trkpt>
      <trkpt lat="44.33695" lon="6.4288">
        <ele>1651.833</ele>
        <time>2020-10-07T08:51:37Z</time>
      </trkpt>
      <trkpt lat="44.33695" lon="6.42881">
        <ele>1685.937</ele>
        <time>2020-10-07T08:51:42Z</time>
      </trkpt>
      <trkpt lat="44.33695" lon="6.42881">
        <ele>1694.471</ele>
        <time>2020-10-07T08:51:48Z</time>
      </trkpt>
      <trkpt lat="44.33695" lon="6.42881">
        <ele>1704.522</ele>
        <time>2020-10-07T08:51:54Z</time>
      </trkpt>
      <trkpt lat="44.33694" lon="6.42882">
        <ele>1702.598</ele>
        <time>2020-10-07T08:52:00Z</time>
      </trkpt>
      <trkpt lat="44.33694" lon="6.42882">
        <ele>1702.918</ele>
        <time>2020-10-07T08:52:06Z</time>
      </trkpt>
      <trkpt lat="44.33694" lon="6.42882">
        <ele>1705.208</ele>
        <time>2020-10-07T08:52:12Z</time>
      </trkpt>
      <trkpt lat="44.33694" lon="6.42882">
        <ele>1705.223</ele>
        <time>2020-10-07T08:52:18Z</time>
      </trkpt>
      <trkpt lat="44.33694" lon="6.42882">
        <ele>1706.061</ele>
        <time>2020-10-07T08:52:24Z</time>
      </trkpt>
      <trkpt lat="44.33694" lon="6.42882">
        <ele>1707.57</ele>
        <time>2020-10-07T08:52:29Z</time>
      </trkpt>
      <trkpt lat="44.33694" lon="6.42882">
        <ele>1708.392</ele>
        <time>2020-10-07T08:52:34Z</time>
      </trkpt>
      <trkpt lat="44.33694" lon="6.42882">
        <ele>1708.642</ele>
        <time>2020-10-07T08:52:40Z</time>
      </trkpt>
      <trkpt lat="44.33694" lon="6.42882">
        <ele>1708.764</ele>
        <time>2020-10-07T08:52:45Z</time>
      </trkpt>
      <trkpt lat="44.33694" lon="6.42882">
        <ele>1708.02</ele>
        <time>2020-10-07T08:52:51Z</time>
      </trkpt>
      <trkpt lat="44.33694" lon="6.42882">
        <ele>1707.658</ele>
        <time>2020-10-07T08:52:57Z</time>
      </trkpt>
      <trkpt lat="44.33694" lon="6.42882">
        <ele>1708.171</ele>
        <time>2020-10-07T08:53:03Z</time>
      </trkpt>
      <trkpt lat="44.33694" lon="6.42882">
        <ele>1708.693</ele>
        <time>2020-10-07T08:53:09Z</time>
      </trkpt>
      <trkpt lat="44.33694" lon="6.42882">
        <ele>1708.792</ele>
        <time>2020-10-07T08:53:15Z</time>
      </trkpt>
      <trkpt lat="44.33694" lon="6.42882">
        <ele>1582.082</ele>
        <time>2020-10-07T08:53:20Z</time>
      </trkpt>
      <trkpt lat="44.33694" lon="6.42882">
        <ele>1679.689</ele>
        <time>2020-10-07T08:53:26Z</time>
      </trkpt>
      <trkpt lat="44.33694" lon="6.42881">
        <ele>1699.043</ele>
        <time>2020-10-07T08:53:31Z</time>
      </trkpt>
      <trkpt lat="44.33694" lon="6.42881">
        <ele>1698.051</ele>
        <time>2020-10-07T08:53:36Z</time>
      </trkpt>
      <trkpt lat="44.33694" lon="6.42881">
        <ele>1700.087</ele>
        <time>2020-10-07T08:53:42Z</time>
      </trkpt>
      <trkpt lat="44.33695" lon="6.42882">
        <ele>1701.859</ele>
        <time>2020-10-07T08:53:48Z</time>
      </trkpt>
      <trkpt lat="44.33696" lon="6.42882">
        <ele>1698.181</ele>
        <time>2020-10-07T08:53:53Z</time>
      </trkpt>
      <trkpt lat="44.33696" lon="6.42882">
        <ele>1698.521</ele>
        <time>2020-10-07T08:53:58Z</time>
      </trkpt>
      <trkpt lat="44.33696" lon="6.42882">
        <ele>1697.945</ele>
        <time>2020-10-07T08:54:04Z</time>
      </trkpt>
      <trkpt lat="44.33696" lon="6.42882">
        <ele>1698.4</ele>
        <time>2020-10-07T08:54:09Z</time>
      </trkpt>
      <trkpt lat="44.33696" lon="6.42882">
        <ele>1698.953</ele>
        <time>2020-10-07T08:54:15Z</time>
      </trkpt>
      <trkpt lat="44.33696" lon="6.42882">
        <ele>1698.999</ele>
        <time>2020-10-07T08:54:21Z</time>
      </trkpt>
      <trkpt lat="44.33696" lon="6.42882">
        <ele>1699.26</ele>
        <time>2020-10-07T08:54:27Z</time>
      </trkpt>
      <trkpt lat="44.33696" lon="6.42882">
        <ele>1699.644</ele>
        <time>2020-10-07T08:54:33Z</time>
      </trkpt>
      <trkpt lat="44.33696" lon="6.42882">
        <ele>1699.675</ele>
        <time>2020-10-07T08:54:39Z</time>
      </trkpt>
      <trkpt lat="44.33696" lon="6.42882">
        <ele>1699.743</ele>
        <time>2020-10-07T08:54:45Z</time>
      </trkpt>
      <trkpt lat="44.33696" lon="6.42882">
        <ele>1699.603</ele>
        <time>2020-10-07T08:54:51Z</time>
      </trkpt>
      <trkpt lat="44.33696" lon="6.42882">
        <ele>1699.801</ele>
        <time>2020-10-07T08:54:57Z</time>
      </trkpt>
      <trkpt lat="44.33696" lon="6.42881">
        <ele>1699.892</ele>
        <time>2020-10-07T08:55:02Z</time>
      </trkpt>
      <trkpt lat="44.33696" lon="6.42881">
        <ele>1699.905</ele>
        <time>2020-10-07T08:55:08Z</time>
      </trkpt>
      <trkpt lat="44.33696" lon="6.4288">
        <ele>1700.883</ele>
        <time>2020-10-07T08:55:14Z</time>
      </trkpt>
      <trkpt lat="44.33696" lon="6.42879">
        <ele>1700.051</ele>
        <time>2020-10-07T08:55:20Z</time>
      </trkpt>
      <trkpt lat="44.33696" lon="6.42879">
        <ele>1700.023</ele>
        <time>2020-10-07T08:55:25Z</time>
      </trkpt>
      <trkpt lat="44.33696" lon="6.42878">
        <ele>1700.177</ele>
        <time>2020-10-07T08:55:31Z</time>
      </trkpt>
      <trkpt lat="44.33696" lon="6.42878">
        <ele>1700.239</ele>
        <time>2020-10-07T08:55:36Z</time>
      </trkpt>
      <trkpt lat="44.33696" lon="6.42878">
        <ele>1700.248</ele>
        <time>2020-10-07T08:55:41Z</time>
      </trkpt>
      <trkpt lat="44.33696" lon="6.42878">
        <ele>1700.219</ele>
        <time>2020-10-07T08:55:46Z</time>
      </trkpt>
      <trkpt lat="44.33696" lon="6.42878">
        <ele>1700.148</ele>
        <time>2020-10-07T08:55:52Z</time>
      </trkpt>
      <trkpt lat="44.33697" lon="6.42878">
        <ele>1700.706</ele>
        <time>2020-10-07T08:55:57Z</time>
      </trkpt>
      <trkpt lat="44.33698" lon="6.42879">
        <ele>1701.071</ele>
        <time>2020-10-07T08:56:03Z</time>
      </trkpt>
      <trkpt lat="44.33698" lon="6.42879">
        <ele>1699.324</ele>
        <time>2020-10-07T08:56:09Z</time>
      </trkpt>
      <trkpt lat="44.33698" lon="6.42879">
        <ele>1699.297</ele>
        <time>2020-10-07T08:56:15Z</time>
      </trkpt>
      <trkpt lat="44.33698" lon="6.42879">
        <ele>1699.383</ele>
        <time>2020-10-07T08:56:21Z</time>
      </trkpt>
      <trkpt lat="44.33698" lon="6.42879">
        <ele>1698.061</ele>
        <time>2020-10-07T08:56:26Z</time>
      </trkpt>
      <trkpt lat="44.33697" lon="6.4288">
        <ele>1696.297</ele>
        <time>2020-10-07T08:56:32Z</time>
      </trkpt>
      <trkpt lat="44.33697" lon="6.4288">
        <ele>1696.448</ele>
        <time>2020-10-07T08:56:38Z</time>
      </trkpt>
      <trkpt lat="44.33697" lon="6.4288">
        <ele>1696.312</ele>
        <time>2020-10-07T08:56:44Z</time>
      </trkpt>
      <trkpt lat="44.33697" lon="6.4288">
        <ele>1696.871</ele>
        <time>2020-10-07T08:56:49Z</time>
      </trkpt>
      <trkpt lat="44.33697" lon="6.4288">
        <ele>1696.87</ele>
        <time>2020-10-07T08:56:55Z</time>
      </trkpt>
      <trkpt lat="44.33697" lon="6.4288">
        <ele>1696.956</ele>
        <time>2020-10-07T08:57:00Z</time>
      </trkpt>
      <trkpt lat="44.33697" lon="6.4288">
        <ele>1697.071</ele>
        <time>2020-10-07T08:57:06Z</time>
      </trkpt>
      <trkpt lat="44.33697" lon="6.4288">
        <ele>1697.097</ele>
        <time>2020-10-07T08:57:12Z</time>
      </trkpt>
      <trkpt lat="44.33697" lon="6.4288">
        <ele>1625.672</ele>
        <time>2020-10-07T08:57:17Z</time>
      </trkpt>
      <trkpt lat="44.33698" lon="6.4288">
        <ele>1684.325</ele>
        <time>2020-10-07T08:57:23Z</time>
      </trkpt>
      <trkpt lat="44.33698" lon="6.4288">
        <ele>1645.69</ele>
        <time>2020-10-07T08:57:28Z</time>
      </trkpt>
      <trkpt lat="44.33698" lon="6.42879">
        <ele>1682.499</ele>
        <time>2020-10-07T08:57:34Z</time>
      </trkpt>
      <trkpt lat="44.33698" lon="6.42879">
        <ele>1690.301</ele>
        <time>2020-10-07T08:57:40Z</time>
      </trkpt>
      <trkpt lat="44.33697" lon="6.42881">
        <ele>1695.566</ele>
        <time>2020-10-07T08:57:45Z</time>
      </trkpt>
      <trkpt lat="44.33697" lon="6.42881">
        <ele>1695.675</ele>
        <time>2020-10-07T08:57:51Z</time>
      </trkpt>
      <trkpt lat="44.33697" lon="6.42881">
        <ele>1695.302</ele>
        <time>2020-10-07T08:57:56Z</time>
      </trkpt>
      <trkpt lat="44.33697" lon="6.42881">
        <ele>1694.378</ele>
        <time>2020-10-07T08:58:02Z</time>
      </trkpt>
      <trkpt lat="44.33697" lon="6.42883">
        <ele>1695.87</ele>
        <time>2020-10-07T08:58:07Z</time>
      </trkpt>
      <trkpt lat="44.33698" lon="6.42885">
        <ele>1699.121</ele>
        <time>2020-10-07T08:58:13Z</time>
      </trkpt>
      <trkpt lat="44.33698" lon="6.42886">
        <ele>1700.626</ele>
        <time>2020-10-07T08:58:18Z</time>
      </trkpt>
      <trkpt lat="44.33698" lon="6.42888">
        <ele>1703.435</ele>
        <time>2020-10-07T08:58:24Z</time>
      </trkpt>
      <trkpt lat="44.33696" lon="6.4289">
        <ele>1705.178</ele>
        <time>2020-10-07T08:58:30Z</time>
      </trkpt>
      <trkpt lat="44.33693" lon="6.42895">
        <ele>1705.192</ele>
        <time>2020-10-07T08:58:36Z</time>
      </trkpt>
      <trkpt lat="44.33692" lon="6.42898">
        <ele>1705.665</ele>
        <time>2020-10-07T08:58:42Z</time>
      </trkpt>
      <trkpt lat="44.33691" lon="6.42898">
        <ele>1707.291</ele>
        <time>2020-10-07T08:58:47Z</time>
      </trkpt>
      <trkpt lat="44.3369" lon="6.42897">
        <ele>1708.024</ele>
        <time>2020-10-07T08:58:52Z</time>
      </trkpt>
      <trkpt lat="44.33689" lon="6.42898">
        <ele>1707.512</ele>
        <time>2020-10-07T08:58:58Z</time>
      </trkpt>
      <trkpt lat="44.33689" lon="6.42901">
        <ele>1706.923</ele>
        <time>2020-10-07T08:59:03Z</time>
      </trkpt>
      <trkpt lat="44.3369" lon="6.42906">
        <ele>1708.643</ele>
        <time>2020-10-07T08:59:09Z</time>
      </trkpt>
      <trkpt lat="44.3369" lon="6.42908">
        <ele>1707.785</ele>
        <time>2020-10-07T08:59:14Z</time>
      </trkpt>
      <trkpt lat="44.3369" lon="6.42912">
        <ele>1705.846</ele>
        <time>2020-10-07T08:59:19Z</time>
      </trkpt>
      <trkpt lat="44.3369" lon="6.42913">
        <ele>1706.597</ele>
        <time>2020-10-07T08:59:25Z</time>
      </trkpt>
      <trkpt lat="44.3369" lon="6.42913">
        <ele>1706.381</ele>
        <time>2020-10-07T08:59:31Z</time>
      </trkpt>
      <trkpt lat="44.3369" lon="6.42916">
        <ele>1703.74</ele>
        <time>2020-10-07T08:59:36Z</time>
      </trkpt>
      <trkpt lat="44.33688" lon="6.42918">
        <ele>1705.732</ele>
        <time>2020-10-07T08:59:41Z</time>
      </trkpt>
      <trkpt lat="44.33689" lon="6.42921">
        <ele>1706.649</ele>
        <time>2020-10-07T08:59:47Z</time>
      </trkpt>
      <trkpt lat="44.33692" lon="6.42921">
        <ele>1707.281</ele>
        <time>2020-10-07T08:59:52Z</time>
      </trkpt>
      <trkpt lat="44.33693" lon="6.4292">
        <ele>1707.015</ele>
        <time>2020-10-07T08:59:58Z</time>
      </trkpt>
      <trkpt lat="44.33693" lon="6.4292">
        <ele>1706.912</ele>
        <time>2020-10-07T09:00:03Z</time>
      </trkpt>
      <trkpt lat="44.33692" lon="6.4292">
        <ele>1708.948</ele>
        <time>2020-10-07T09:00:09Z</time>
      </trkpt>
      <trkpt lat="44.33692" lon="6.42919">
        <ele>1710.868</ele>
        <time>2020-10-07T09:00:15Z</time>
      </trkpt>
      <trkpt lat="44.3369" lon="6.42925">
        <ele>1713.688</ele>
        <time>2020-10-07T09:00:21Z</time>
      </trkpt>
      <trkpt lat="44.33692" lon="6.42926">
        <ele>1713.643</ele>
        <time>2020-10-07T09:00:27Z</time>
      </trkpt>
      <trkpt lat="44.3369" lon="6.42927">
        <ele>1711.221</ele>
        <time>2020-10-07T09:00:33Z</time>
      </trkpt>
      <trkpt lat="44.3369" lon="6.42926">
        <ele>1709.808</ele>
        <time>2020-10-07T09:00:39Z</time>
      </trkpt>
      <trkpt lat="44.3369" lon="6.42926">
        <ele>1709.793</ele>
        <time>2020-10-07T09:00:44Z</time>
      </trkpt>
      <trkpt lat="44.3369" lon="6.42926">
        <ele>1709.735</ele>
        <time>2020-10-07T09:00:49Z</time>
      </trkpt>
      <trkpt lat="44.33687" lon="6.42927">
        <ele>1709.997</ele>
        <time>2020-10-07T09:00:55Z</time>
      </trkpt>
      <trkpt lat="44.33686" lon="6.42928">
        <ele>1709.771</ele>
        <time>2020-10-07T09:01:01Z</time>
      </trkpt>
      <trkpt lat="44.33686" lon="6.42928">
        <ele>1710.232</ele>
        <time>2020-10-07T09:01:06Z</time>
      </trkpt>
      <trkpt lat="44.33687" lon="6.42929">
        <ele>1712.104</ele>
        <time>2020-10-07T09:01:11Z</time>
      </trkpt>
      <trkpt lat="44.33691" lon="6.4293">
        <ele>1717.816</ele>
        <time>2020-10-07T09:01:17Z</time>
      </trkpt>
      <trkpt lat="44.33691" lon="6.42929">
        <ele>1710.422</ele>
        <time>2020-10-07T09:01:23Z</time>
      </trkpt>
      <trkpt lat="44.33691" lon="6.42929">
        <ele>1711.651</ele>
        <time>2020-10-07T09:01:28Z</time>
      </trkpt>
      <trkpt lat="44.33693" lon="6.42932">
        <ele>1719.693</ele>
        <time>2020-10-07T09:01:34Z</time>
      </trkpt>
      <trkpt lat="44.33694" lon="6.42933">
        <ele>1722.448</ele>
        <time>2020-10-07T09:01:40Z</time>
      </trkpt>
      <trkpt lat="44.33696" lon="6.42935">
        <ele>1724.732</ele>
        <time>2020-10-07T09:01:45Z</time>
      </trkpt>
      <trkpt lat="44.33694" lon="6.42937">
        <ele>1720.623</ele>
        <time>2020-10-07T09:01:51Z</time>
      </trkpt>
      <trkpt lat="44.33692" lon="6.42936">
        <ele>1719.507</ele>
        <time>2020-10-07T09:01:57Z</time>
      </trkpt>
      <trkpt lat="44.33692" lon="6.42939">
        <ele>1719.193</ele>
        <time>2020-10-07T09:02:02Z</time>
      </trkpt>
      <trkpt lat="44.33691" lon="6.42942">
        <ele>1716.39</ele>
        <time>2020-10-07T09:02:08Z</time>
      </trkpt>
      <trkpt lat="44.3369" lon="6.4294">
        <ele>1715.153</ele>
        <time>2020-10-07T09:02:14Z</time>
      </trkpt>
      <trkpt lat="44.33692" lon="6.42943">
        <ele>1716.438</ele>
        <time>2020-10-07T09:02:20Z</time>
      </trkpt>
      <trkpt lat="44.33694" lon="6.42949">
        <ele>1717.695</ele>
        <time>2020-10-07T09:02:26Z</time>
      </trkpt>
      <trkpt lat="44.33694" lon="6.4295">
        <ele>1718.731</ele>
        <time>2020-10-07T09:02:32Z</time>
      </trkpt>
      <trkpt lat="44.33696" lon="6.4295">
        <ele>1720.111</ele>
        <time>2020-10-07T09:02:37Z</time>
      </trkpt>
      <trkpt lat="44.33694" lon="6.42948">
        <ele>1720.184</ele>
        <time>2020-10-07T09:02:42Z</time>
      </trkpt>
      <trkpt lat="44.33693" lon="6.42948">
        <ele>1722.862</ele>
        <time>2020-10-07T09:02:47Z</time>
      </trkpt>
      <trkpt lat="44.33693" lon="6.42947">
        <ele>1724.044</ele>
        <time>2020-10-07T09:02:53Z</time>
      </trkpt>
      <trkpt lat="44.33693" lon="6.42947">
        <ele>1724.027</ele>
        <time>2020-10-07T09:02:59Z</time>
      </trkpt>
      <trkpt lat="44.33692" lon="6.42945">
        <ele>1722.675</ele>
        <time>2020-10-07T09:03:05Z</time>
      </trkpt>
      <trkpt lat="44.33695" lon="6.42949">
        <ele>1719.115</ele>
        <time>2020-10-07T09:03:10Z</time>
      </trkpt>
      <trkpt lat="44.33696" lon="6.42952">
        <ele>1718.365</ele>
        <time>2020-10-07T09:03:15Z</time>
      </trkpt>
      <trkpt lat="44.33698" lon="6.42951">
        <ele>1717.104</ele>
        <time>2020-10-07T09:03:21Z</time>
      </trkpt>
      <trkpt lat="44.33698" lon="6.4295">
        <ele>1716.255</ele>
        <time>2020-10-07T09:03:26Z</time>
      </trkpt>
      <trkpt lat="44.33698" lon="6.42951">
        <ele>1716.466</ele>
        <time>2020-10-07T09:03:32Z</time>
      </trkpt>
      <trkpt lat="44.33701" lon="6.42956">
        <ele>1718.519</ele>
        <time>2020-10-07T09:03:38Z</time>
      </trkpt>
      <trkpt lat="44.33701" lon="6.4296">
        <ele>1717.009</ele>
        <time>2020-10-07T09:03:44Z</time>
      </trkpt>
      <trkpt lat="44.33703" lon="6.42961">
        <ele>1718.278</ele>
        <time>2020-10-07T09:03:50Z</time>
      </trkpt>
      <trkpt lat="44.33704" lon="6.42962">
        <ele>1718.916</ele>
        <time>2020-10-07T09:03:55Z</time>
      </trkpt>
      <trkpt lat="44.33708" lon="6.42963">
        <ele>1715.916</ele>
        <time>2020-10-07T09:04:01Z</time>
      </trkpt>
      <trkpt lat="44.3371" lon="6.42963">
        <ele>1714.768</ele>
        <time>2020-10-07T09:04:07Z</time>
      </trkpt>
      <trkpt lat="44.3371" lon="6.42963">
        <ele>1715.06</ele>
        <time>2020-10-07T09:04:13Z</time>
      </trkpt>
      <trkpt lat="44.33709" lon="6.42964">
        <ele>1713.875</ele>
        <time>2020-10-07T09:04:18Z</time>
      </trkpt>
      <trkpt lat="44.33709" lon="6.42964">
        <ele>1714.768</ele>
        <time>2020-10-07T09:04:23Z</time>
      </trkpt>
      <trkpt lat="44.33708" lon="6.42965">
        <ele>1715.239</ele>
        <time>2020-10-07T09:04:29Z</time>
      </trkpt>
      <trkpt lat="44.33708" lon="6.42966">
        <ele>1715.363</ele>
        <time>2020-10-07T09:04:35Z</time>
      </trkpt>
      <trkpt lat="44.33709" lon="6.42966">
        <ele>1715.3</ele>
        <time>2020-10-07T09:04:41Z</time>
      </trkpt>
      <trkpt lat="44.33709" lon="6.42966">
        <ele>1714.962</ele>
        <time>2020-10-07T09:04:47Z</time>
      </trkpt>
      <trkpt lat="44.3371" lon="6.42968">
        <ele>1712.024</ele>
        <time>2020-10-07T09:04:53Z</time>
      </trkpt>
      <trkpt lat="44.33711" lon="6.42967">
        <ele>1710.943</ele>
        <time>2020-10-07T09:04:59Z</time>
      </trkpt>
      <trkpt lat="44.33711" lon="6.42965">
        <ele>1705.53</ele>
        <time>2020-10-07T09:05:05Z</time>
      </trkpt>
      <trkpt lat="44.33711" lon="6.42966">
        <ele>1703.686</ele>
        <time>2020-10-07T09:05:11Z</time>
      </trkpt>
      <trkpt lat="44.33711" lon="6.42965">
        <ele>1703.688</ele>
        <time>2020-10-07T09:05:16Z</time>
      </trkpt>
      <trkpt lat="44.3371" lon="6.42963">
        <ele>1702.429</ele>
        <time>2020-10-07T09:05:21Z</time>
      </trkpt>
      <trkpt lat="44.33709" lon="6.4296">
        <ele>1702.838</ele>
        <time>2020-10-07T09:05:26Z</time>
      </trkpt>
      <trkpt lat="44.33708" lon="6.42957">
        <ele>1705.133</ele>
        <time>2020-10-07T09:05:32Z</time>
      </trkpt>
      <trkpt lat="44.33709" lon="6.4296">
        <ele>1704.674</ele>
        <time>2020-10-07T09:05:38Z</time>
      </trkpt>
      <trkpt lat="44.3371" lon="6.42963">
        <ele>1705.51</ele>
        <time>2020-10-07T09:05:44Z</time>
      </trkpt>
      <trkpt lat="44.33709" lon="6.42967">
        <ele>1705.205</ele>
        <time>2020-10-07T09:05:49Z</time>
      </trkpt>
      <trkpt lat="44.33708" lon="6.42972">
        <ele>1706.982</ele>
        <time>2020-10-07T09:05:55Z</time>
      </trkpt>
      <trkpt lat="44.33712" lon="6.42975">
        <ele>1711.094</ele>
        <time>2020-10-07T09:06:00Z</time>
      </trkpt>
      <trkpt lat="44.33711" lon="6.42975">
        <ele>1709.74</ele>
        <time>2020-10-07T09:06:05Z</time>
      </trkpt>
      <trkpt lat="44.33711" lon="6.42975">
        <ele>1707.596</ele>
        <time>2020-10-07T09:06:11Z</time>
      </trkpt>
      <trkpt lat="44.33712" lon="6.42975">
        <ele>1707.492</ele>
        <time>2020-10-07T09:06:17Z</time>
      </trkpt>
      <trkpt lat="44.33714" lon="6.4298">
        <ele>1707.617</ele>
        <time>2020-10-07T09:06:22Z</time>
      </trkpt>
      <trkpt lat="44.33712" lon="6.42985">
        <ele>1710.285</ele>
        <time>2020-10-07T09:06:27Z</time>
      </trkpt>
      <trkpt lat="44.33711" lon="6.42986">
        <ele>1707.23</ele>
        <time>2020-10-07T09:06:33Z</time>
      </trkpt>
      <trkpt lat="44.33711" lon="6.42988">
        <ele>1705.916</ele>
        <time>2020-10-07T09:06:39Z</time>
      </trkpt>
      <trkpt lat="44.33712" lon="6.42989">
        <ele>1707.058</ele>
        <time>2020-10-07T09:06:44Z</time>
      </trkpt>
      <trkpt lat="44.33712" lon="6.42989">
        <ele>1707.345</ele>
        <time>2020-10-07T09:06:50Z</time>
      </trkpt>
      <trkpt lat="44.33709" lon="6.4299">
        <ele>1707.095</ele>
        <time>2020-10-07T09:06:55Z</time>
      </trkpt>
      <trkpt lat="44.33708" lon="6.42991">
        <ele>1709.965</ele>
        <time>2020-10-07T09:07:01Z</time>
      </trkpt>
      <trkpt lat="44.33709" lon="6.42991">
        <ele>1711.184</ele>
        <time>2020-10-07T09:07:06Z</time>
      </trkpt>
      <trkpt lat="44.33708" lon="6.42992">
        <ele>1711.992</ele>
        <time>2020-10-07T09:07:12Z</time>
      </trkpt>
      <trkpt lat="44.33707" lon="6.42992">
        <ele>1712.357</ele>
        <time>2020-10-07T09:07:17Z</time>
      </trkpt>
      <trkpt lat="44.33707" lon="6.42992">
        <ele>1660.25</ele>
        <time>2020-10-07T09:07:23Z</time>
      </trkpt>
      <trkpt lat="44.33707" lon="6.42992">
        <ele>1691.446</ele>
        <time>2020-10-07T09:07:28Z</time>
      </trkpt>
      <trkpt lat="44.33707" lon="6.42992">
        <ele>1703.095</ele>
        <time>2020-10-07T09:07:33Z</time>
      </trkpt>
      <trkpt lat="44.33707" lon="6.42992">
        <ele>1713.251</ele>
        <time>2020-10-07T09:07:39Z</time>
      </trkpt>
      <trkpt lat="44.33707" lon="6.42992">
        <ele>1713.011</ele>
        <time>2020-10-07T09:07:45Z</time>
      </trkpt>
      <trkpt lat="44.33707" lon="6.42992">
        <ele>1712.989</ele>
        <time>2020-10-07T09:07:51Z</time>
      </trkpt>
      <trkpt lat="44.33707" lon="6.42992">
        <ele>1713.005</ele>
        <time>2020-10-07T09:07:56Z</time>
      </trkpt>
      <trkpt lat="44.33705" lon="6.42993">
        <ele>1716.464</ele>
        <time>2020-10-07T09:08:02Z</time>
      </trkpt>
      <trkpt lat="44.33702" lon="6.42994">
        <ele>1719.074</ele>
        <time>2020-10-07T09:08:07Z</time>
      </trkpt>
      <trkpt lat="44.33699" lon="6.42997">
        <ele>1721.264</ele>
        <time>2020-10-07T09:08:12Z</time>
      </trkpt>
      <trkpt lat="44.33696" lon="6.42994">
        <ele>1728.904</ele>
        <time>2020-10-07T09:08:17Z</time>
      </trkpt>
      <trkpt lat="44.33694" lon="6.42996">
        <ele>1727.742</ele>
        <time>2020-10-07T09:08:23Z</time>
      </trkpt>
      <trkpt lat="44.33694" lon="6.42997">
        <ele>1728.649</ele>
        <time>2020-10-07T09:08:28Z</time>
      </trkpt>
      <trkpt lat="44.33693" lon="6.42999">
        <ele>1729.264</ele>
        <time>2020-10-07T09:08:33Z</time>
      </trkpt>
      <trkpt lat="44.33692" lon="6.43">
        <ele>1731.023</ele>
        <time>2020-10-07T09:08:39Z</time>
      </trkpt>
      <trkpt lat="44.3369" lon="6.43002">
        <ele>1719.191</ele>
        <time>2020-10-07T09:08:45Z</time>
      </trkpt>
      <trkpt lat="44.33688" lon="6.43003">
        <ele>1728.737</ele>
        <time>2020-10-07T09:08:51Z</time>
      </trkpt>
      <trkpt lat="44.33687" lon="6.43004">
        <ele>1730.313</ele>
        <time>2020-10-07T09:08:57Z</time>
      </trkpt>
      <trkpt lat="44.33687" lon="6.43004">
        <ele>1730.966</ele>
        <time>2020-10-07T09:09:03Z</time>
      </trkpt>
      <trkpt lat="44.33687" lon="6.43004">
        <ele>1732.172</ele>
        <time>2020-10-07T09:09:09Z</time>
      </trkpt>
      <trkpt lat="44.33687" lon="6.43006">
        <ele>1734.047</ele>
        <time>2020-10-07T09:09:15Z</time>
      </trkpt>
      <trkpt lat="44.33687" lon="6.43009">
        <ele>1737.009</ele>
        <time>2020-10-07T09:09:21Z</time>
      </trkpt>
      <trkpt lat="44.33688" lon="6.43009">
        <ele>1737.979</ele>
        <time>2020-10-07T09:09:26Z</time>
      </trkpt>
      <trkpt lat="44.33689" lon="6.4301">
        <ele>1738.749</ele>
        <time>2020-10-07T09:09:32Z</time>
      </trkpt>
      <trkpt lat="44.33689" lon="6.43011">
        <ele>1735.872</ele>
        <time>2020-10-07T09:09:37Z</time>
      </trkpt>
      <trkpt lat="44.33688" lon="6.4301">
        <ele>1740.146</ele>
        <time>2020-10-07T09:09:43Z</time>
      </trkpt>
      <trkpt lat="44.33688" lon="6.4301">
        <ele>1740.626</ele>
        <time>2020-10-07T09:09:48Z</time>
      </trkpt>
      <trkpt lat="44.33688" lon="6.4301">
        <ele>1740.943</ele>
        <time>2020-10-07T09:09:54Z</time>
      </trkpt>
      <trkpt lat="44.33688" lon="6.4301">
        <ele>1741.543</ele>
        <time>2020-10-07T09:09:59Z</time>
      </trkpt>
      <trkpt lat="44.33688" lon="6.43011">
        <ele>1737.508</ele>
        <time>2020-10-07T09:10:05Z</time>
      </trkpt>
      <trkpt lat="44.33687" lon="6.43012">
        <ele>1742.026</ele>
        <time>2020-10-07T09:10:11Z</time>
      </trkpt>
      <trkpt lat="44.33687" lon="6.43012">
        <ele>1743.768</ele>
        <time>2020-10-07T09:10:17Z</time>
      </trkpt>
      <trkpt lat="44.33687" lon="6.43012">
        <ele>1744.659</ele>
        <time>2020-10-07T09:10:23Z</time>
      </trkpt>
      <trkpt lat="44.33687" lon="6.43012">
        <ele>1744.799</ele>
        <time>2020-10-07T09:10:29Z</time>
      </trkpt>
      <trkpt lat="44.33687" lon="6.43012">
        <ele>1744.832</ele>
        <time>2020-10-07T09:10:35Z</time>
      </trkpt>
      <trkpt lat="44.33687" lon="6.43012">
        <ele>1744.964</ele>
        <time>2020-10-07T09:10:40Z</time>
      </trkpt>
      <trkpt lat="44.33685" lon="6.43013">
        <ele>1745.005</ele>
        <time>2020-10-07T09:10:46Z</time>
      </trkpt>
      <trkpt lat="44.33683" lon="6.43014">
        <ele>1743.271</ele>
        <time>2020-10-07T09:10:51Z</time>
      </trkpt>
      <trkpt lat="44.33685" lon="6.43019">
        <ele>1743.6</ele>
        <time>2020-10-07T09:10:57Z</time>
      </trkpt>
      <trkpt lat="44.33688" lon="6.43018">
        <ele>1743.854</ele>
        <time>2020-10-07T09:11:03Z</time>
      </trkpt>
      <trkpt lat="44.33686" lon="6.4302">
        <ele>1742.628</ele>
        <time>2020-10-07T09:11:09Z</time>
      </trkpt>
      <trkpt lat="44.33687" lon="6.43021">
        <ele>1747.857</ele>
        <time>2020-10-07T09:11:15Z</time>
      </trkpt>
      <trkpt lat="44.33685" lon="6.43019">
        <ele>1742.158</ele>
        <time>2020-10-07T09:11:21Z</time>
      </trkpt>
      <trkpt lat="44.33686" lon="6.43019">
        <ele>1743.472</ele>
        <time>2020-10-07T09:11:27Z</time>
      </trkpt>
      <trkpt lat="44.33688" lon="6.43019">
        <ele>1744.385</ele>
        <time>2020-10-07T09:11:33Z</time>
      </trkpt>
      <trkpt lat="44.33687" lon="6.43018">
        <ele>1744.093</ele>
        <time>2020-10-07T09:11:38Z</time>
      </trkpt>
      <trkpt lat="44.33691" lon="6.43011">
        <ele>1746.303</ele>
        <time>2020-10-07T09:11:43Z</time>
      </trkpt>
      <trkpt lat="44.33698" lon="6.4301">
        <ele>1743.895</ele>
        <time>2020-10-07T09:11:49Z</time>
      </trkpt>
      <trkpt lat="44.337" lon="6.43008">
        <ele>1726.52</ele>
        <time>2020-10-07T09:11:54Z</time>
      </trkpt>
      <trkpt lat="44.33701" lon="6.43005">
        <ele>1732.963</ele>
        <time>2020-10-07T09:12:00Z</time>
      </trkpt>
      <trkpt lat="44.33704" lon="6.43005">
        <ele>1736.974</ele>
        <time>2020-10-07T09:12:06Z</time>
      </trkpt>
      <trkpt lat="44.33703" lon="6.43003">
        <ele>1734.338</ele>
        <time>2020-10-07T09:12:11Z</time>
      </trkpt>
      <trkpt lat="44.33702" lon="6.43002">
        <ele>1732.925</ele>
        <time>2020-10-07T09:12:16Z</time>
      </trkpt>
      <trkpt lat="44.33701" lon="6.43002">
        <ele>1733.266</ele>
        <time>2020-10-07T09:12:22Z</time>
      </trkpt>
      <trkpt lat="44.33702" lon="6.43003">
        <ele>1732.888</ele>
        <time>2020-10-07T09:12:27Z</time>
      </trkpt>
      <trkpt lat="44.33702" lon="6.43001">
        <ele>1728.889</ele>
        <time>2020-10-07T09:12:33Z</time>
      </trkpt>
      <trkpt lat="44.33705" lon="6.43001">
        <ele>1724.418</ele>
        <time>2020-10-07T09:12:39Z</time>
      </trkpt>
      <trkpt lat="44.33706" lon="6.42999">
        <ele>1723.603</ele>
        <time>2020-10-07T09:12:44Z</time>
      </trkpt>
      <trkpt lat="44.33707" lon="6.43001">
        <ele>1724.465</ele>
        <time>2020-10-07T09:12:50Z</time>
      </trkpt>
      <trkpt lat="44.33706" lon="6.43001">
        <ele>1725.176</ele>
        <time>2020-10-07T09:12:55Z</time>
      </trkpt>
      <trkpt lat="44.33706" lon="6.43001">
        <ele>1725.484</ele>
        <time>2020-10-07T09:13:01Z</time>
      </trkpt>
      <trkpt lat="44.33706" lon="6.43001">
        <ele>1725.62</ele>
        <time>2020-10-07T09:13:07Z</time>
      </trkpt>
      <trkpt lat="44.33706" lon="6.43001">
        <ele>1725.711</ele>
        <time>2020-10-07T09:13:12Z</time>
      </trkpt>
      <trkpt lat="44.33706" lon="6.43001">
        <ele>1725.777</ele>
        <time>2020-10-07T09:13:18Z</time>
      </trkpt>
      <trkpt lat="44.33706" lon="6.43001">
        <ele>1725.796</ele>
        <time>2020-10-07T09:13:23Z</time>
      </trkpt>
      <trkpt lat="44.33706" lon="6.43001">
        <ele>1725.749</ele>
        <time>2020-10-07T09:13:28Z</time>
      </trkpt>
      <trkpt lat="44.33707" lon="6.43004">
        <ele>1726.644</ele>
        <time>2020-10-07T09:13:33Z</time>
      </trkpt>
      <trkpt lat="44.33713" lon="6.43013">
        <ele>1722.183</ele>
        <time>2020-10-07T09:13:39Z</time>
      </trkpt>
      <trkpt lat="44.33715" lon="6.43018">
        <ele>1716.915</ele>
        <time>2020-10-07T09:13:45Z</time>
      </trkpt>
      <trkpt lat="44.33717" lon="6.43022">
        <ele>1716.642</ele>
        <time>2020-10-07T09:13:51Z</time>
      </trkpt>
      <trkpt lat="44.33717" lon="6.43023">
        <ele>1717.941</ele>
        <time>2020-10-07T09:13:56Z</time>
      </trkpt>
      <trkpt lat="44.33718" lon="6.43023">
        <ele>1716.392</ele>
        <time>2020-10-07T09:14:02Z</time>
      </trkpt>
      <trkpt lat="44.33718" lon="6.43023">
        <ele>1716.58</ele>
        <time>2020-10-07T09:14:08Z</time>
      </trkpt>
      <trkpt lat="44.33719" lon="6.43023">
        <ele>1716.607</ele>
        <time>2020-10-07T09:14:14Z</time>
      </trkpt>
      <trkpt lat="44.3372" lon="6.43022">
        <ele>1714.971</ele>
        <time>2020-10-07T09:14:19Z</time>
      </trkpt>
      <trkpt lat="44.3372" lon="6.43021">
        <ele>1716.434</ele>
        <time>2020-10-07T09:14:24Z</time>
      </trkpt>
      <trkpt lat="44.33721" lon="6.43021">
        <ele>1715.404</ele>
        <time>2020-10-07T09:14:30Z</time>
      </trkpt>
      <trkpt lat="44.33722" lon="6.43022">
        <ele>1711.072</ele>
        <time>2020-10-07T09:14:36Z</time>
      </trkpt>
      <trkpt lat="44.33722" lon="6.43022">
        <ele>1711.195</ele>
        <time>2020-10-07T09:14:41Z</time>
      </trkpt>
      <trkpt lat="44.33722" lon="6.43023">
        <ele>1710.612</ele>
        <time>2020-10-07T09:14:47Z</time>
      </trkpt>
      <trkpt lat="44.33721" lon="6.43024">
        <ele>1710.077</ele>
        <time>2020-10-07T09:14:53Z</time>
      </trkpt>
      <trkpt lat="44.33721" lon="6.43024">
        <ele>1709.828</ele>
        <time>2020-10-07T09:14:58Z</time>
      </trkpt>
      <trkpt lat="44.33721" lon="6.43024">
        <ele>1709.788</ele>
        <time>2020-10-07T09:15:04Z</time>
      </trkpt>
      <trkpt lat="44.33721" lon="6.43024">
        <ele>1710.516</ele>
        <time>2020-10-07T09:15:09Z</time>
      </trkpt>
      <trkpt lat="44.3372" lon="6.43024">
        <ele>1711.782</ele>
        <time>2020-10-07T09:15:15Z</time>
      </trkpt>
      <trkpt lat="44.33719" lon="6.43024">
        <ele>1711.145</ele>
        <time>2020-10-07T09:15:21Z</time>
      </trkpt>
      <trkpt lat="44.33721" lon="6.43024">
        <ele>1710.007</ele>
        <time>2020-10-07T09:15:27Z</time>
      </trkpt>
      <trkpt lat="44.3372" lon="6.43021">
        <ele>1711.627</ele>
        <time>2020-10-07T09:15:32Z</time>
      </trkpt>
      <trkpt lat="44.33721" lon="6.43019">
        <ele>1711.888</ele>
        <time>2020-10-07T09:15:38Z</time>
      </trkpt>
      <trkpt lat="44.33721" lon="6.43018">
        <ele>1711.137</ele>
        <time>2020-10-07T09:15:43Z</time>
      </trkpt>
      <trkpt lat="44.33721" lon="6.43018">
        <ele>1711.554</ele>
        <time>2020-10-07T09:15:48Z</time>
      </trkpt>
      <trkpt lat="44.33722" lon="6.43018">
        <ele>1712.945</ele>
        <time>2020-10-07T09:15:54Z</time>
      </trkpt>
      <trkpt lat="44.33722" lon="6.43018">
        <ele>1713.778</ele>
        <time>2020-10-07T09:16:00Z</time>
      </trkpt>
      <trkpt lat="44.33725" lon="6.43016">
        <ele>1716.365</ele>
        <time>2020-10-07T09:16:05Z</time>
      </trkpt>
      <trkpt lat="44.33723" lon="6.43016">
        <ele>1715.728</ele>
        <time>2020-10-07T09:16:10Z</time>
      </trkpt>
      <trkpt lat="44.33724" lon="6.43016">
        <ele>1715.856</ele>
        <time>2020-10-07T09:16:16Z</time>
      </trkpt>
      <trkpt lat="44.33724" lon="6.43016">
        <ele>1716.956</ele>
        <time>2020-10-07T09:16:21Z</time>
      </trkpt>
      <trkpt lat="44.33724" lon="6.43017">
        <ele>1716.955</ele>
        <time>2020-10-07T09:16:27Z</time>
      </trkpt>
      <trkpt lat="44.33724" lon="6.43017">
        <ele>1716.932</ele>
        <time>2020-10-07T09:16:33Z</time>
      </trkpt>
      <trkpt lat="44.33724" lon="6.43017">
        <ele>1716.924</ele>
        <time>2020-10-07T09:16:38Z</time>
      </trkpt>
      <trkpt lat="44.33724" lon="6.43017">
        <ele>1716.928</ele>
        <time>2020-10-07T09:16:44Z</time>
      </trkpt>
      <trkpt lat="44.33724" lon="6.43017">
        <ele>1716.899</ele>
        <time>2020-10-07T09:16:50Z</time>
      </trkpt>
      <trkpt lat="44.33724" lon="6.43017">
        <ele>1716.889</ele>
        <time>2020-10-07T09:16:56Z</time>
      </trkpt>
      <trkpt lat="44.33724" lon="6.43017">
        <ele>1716.86</ele>
        <time>2020-10-07T09:17:01Z</time>
      </trkpt>
      <trkpt lat="44.33724" lon="6.43017">
        <ele>1716.826</ele>
        <time>2020-10-07T09:17:07Z</time>
      </trkpt>
      <trkpt lat="44.33724" lon="6.43017">
        <ele>1716.807</ele>
        <time>2020-10-07T09:17:13Z</time>
      </trkpt>
      <trkpt lat="44.33724" lon="6.43017">
        <ele>1716.789</ele>
        <time>2020-10-07T09:17:19Z</time>
      </trkpt>
      <trkpt lat="44.33724" lon="6.43017">
        <ele>1716.757</ele>
        <time>2020-10-07T09:17:24Z</time>
      </trkpt>
      <trkpt lat="44.33724" lon="6.43017">
        <ele>1716.698</ele>
        <time>2020-10-07T09:17:30Z</time>
      </trkpt>
      <trkpt lat="44.33724" lon="6.43017">
        <ele>1716.684</ele>
        <time>2020-10-07T09:17:35Z</time>
      </trkpt>
      <trkpt lat="44.33724" lon="6.43017">
        <ele>1716.671</ele>
        <time>2020-10-07T09:17:41Z</time>
      </trkpt>
      <trkpt lat="44.33724" lon="6.43017">
        <ele>1716.392</ele>
        <time>2020-10-07T09:17:47Z</time>
      </trkpt>
      <trkpt lat="44.33724" lon="6.43016">
        <ele>1718.352</ele>
        <time>2020-10-07T09:17:52Z</time>
      </trkpt>
      <trkpt lat="44.33726" lon="6.43016">
        <ele>1720.932</ele>
        <time>2020-10-07T09:17:58Z</time>
      </trkpt>
      <trkpt lat="44.33726" lon="6.43016">
        <ele>1720.368</ele>
        <time>2020-10-07T09:18:04Z</time>
      </trkpt>
      <trkpt lat="44.33725" lon="6.43016">
        <ele>1719.436</ele>
        <time>2020-10-07T09:18:10Z</time>
      </trkpt>
      <trkpt lat="44.33725" lon="6.43014">
        <ele>1719.503</ele>
        <time>2020-10-07T09:18:16Z</time>
      </trkpt>
      <trkpt lat="44.33725" lon="6.43013">
        <ele>1718.823</ele>
        <time>2020-10-07T09:18:21Z</time>
      </trkpt>
      <trkpt lat="44.33724" lon="6.43012">
        <ele>1718.501</ele>
        <time>2020-10-07T09:18:27Z</time>
      </trkpt>
      <trkpt lat="44.33724" lon="6.43012">
        <ele>1718.468</ele>
        <time>2020-10-07T09:18:33Z</time>
      </trkpt>
      <trkpt lat="44.33724" lon="6.43012">
        <ele>1718.936</ele>
        <time>2020-10-07T09:18:39Z</time>
      </trkpt>
      <trkpt lat="44.33725" lon="6.43016">
        <ele>1716.7</ele>
        <time>2020-10-07T09:18:45Z</time>
      </trkpt>
      <trkpt lat="44.33723" lon="6.43018">
        <ele>1715.506</ele>
        <time>2020-10-07T09:18:51Z</time>
      </trkpt>
      <trkpt lat="44.33725" lon="6.43017">
        <ele>1716.243</ele>
        <time>2020-10-07T09:18:57Z</time>
      </trkpt>
      <trkpt lat="44.33725" lon="6.43017">
        <ele>1716.623</ele>
        <time>2020-10-07T09:19:03Z</time>
      </trkpt>
      <trkpt lat="44.33725" lon="6.43017">
        <ele>1716.681</ele>
        <time>2020-10-07T09:19:09Z</time>
      </trkpt>
      <trkpt lat="44.33725" lon="6.43017">
        <ele>1716.656</ele>
        <time>2020-10-07T09:19:15Z</time>
      </trkpt>
      <trkpt lat="44.33725" lon="6.43017">
        <ele>1716.655</ele>
        <time>2020-10-07T09:19:20Z</time>
      </trkpt>
      <trkpt lat="44.33725" lon="6.43017">
        <ele>1716.651</ele>
        <time>2020-10-07T09:19:25Z</time>
      </trkpt>
      <trkpt lat="44.33725" lon="6.43017">
        <ele>1716.659</ele>
        <time>2020-10-07T09:19:31Z</time>
      </trkpt>
      <trkpt lat="44.33725" lon="6.43017">
        <ele>1716.024</ele>
        <time>2020-10-07T09:19:36Z</time>
      </trkpt>
      <trkpt lat="44.33723" lon="6.43014">
        <ele>1714.269</ele>
        <time>2020-10-07T09:19:42Z</time>
      </trkpt>
      <trkpt lat="44.33723" lon="6.43012">
        <ele>1713.241</ele>
        <time>2020-10-07T09:19:47Z</time>
      </trkpt>
      <trkpt lat="44.33722" lon="6.43012">
        <ele>1713.401</ele>
        <time>2020-10-07T09:19:52Z</time>
      </trkpt>
      <trkpt lat="44.33723" lon="6.43012">
        <ele>1715.919</ele>
        <time>2020-10-07T09:19:58Z</time>
      </trkpt>
      <trkpt lat="44.33722" lon="6.43013">
        <ele>1714.573</ele>
        <time>2020-10-07T09:20:04Z</time>
      </trkpt>
      <trkpt lat="44.33722" lon="6.43013">
        <ele>1714.533</ele>
        <time>2020-10-07T09:20:09Z</time>
      </trkpt>
      <trkpt lat="44.33722" lon="6.43013">
        <ele>1714.567</ele>
        <time>2020-10-07T09:20:15Z</time>
      </trkpt>
      <trkpt lat="44.33722" lon="6.43013">
        <ele>1714.572</ele>
        <time>2020-10-07T09:20:20Z</time>
      </trkpt>
      <trkpt lat="44.33722" lon="6.43015">
        <ele>1712.124</ele>
        <time>2020-10-07T09:20:26Z</time>
      </trkpt>
      <trkpt lat="44.33722" lon="6.43018">
        <ele>1712.214</ele>
        <time>2020-10-07T09:20:31Z</time>
      </trkpt>
      <trkpt lat="44.33723" lon="6.4302">
        <ele>1712.324</ele>
        <time>2020-10-07T09:20:36Z</time>
      </trkpt>
      <trkpt lat="44.33723" lon="6.43021">
        <ele>1711.717</ele>
        <time>2020-10-07T09:20:42Z</time>
      </trkpt>
      <trkpt lat="44.33726" lon="6.43022">
        <ele>1713.718</ele>
        <time>2020-10-07T09:20:48Z</time>
      </trkpt>
      <trkpt lat="44.33727" lon="6.43024">
        <ele>1715.876</ele>
        <time>2020-10-07T09:20:53Z</time>
      </trkpt>
      <trkpt lat="44.3373" lon="6.43028">
        <ele>1714.838</ele>
        <time>2020-10-07T09:20:59Z</time>
      </trkpt>
      <trkpt lat="44.33729" lon="6.43033">
        <ele>1714.855</ele>
        <time>2020-10-07T09:21:05Z</time>
      </trkpt>
      <trkpt lat="44.33729" lon="6.43035">
        <ele>1715.695</ele>
        <time>2020-10-07T09:21:11Z</time>
      </trkpt>
      <trkpt lat="44.33731" lon="6.43044">
        <ele>1715.465</ele>
        <time>2020-10-07T09:21:17Z</time>
      </trkpt>
      <trkpt lat="44.33732" lon="6.43046">
        <ele>1714.773</ele>
        <time>2020-10-07T09:21:22Z</time>
      </trkpt>
      <trkpt lat="44.3373" lon="6.4305">
        <ele>1711.889</ele>
        <time>2020-10-07T09:21:28Z</time>
      </trkpt>
      <trkpt lat="44.33729" lon="6.43054">
        <ele>1710.226</ele>
        <time>2020-10-07T09:21:33Z</time>
      </trkpt>
      <trkpt lat="44.33729" lon="6.43056">
        <ele>1711.427</ele>
        <time>2020-10-07T09:21:39Z</time>
      </trkpt>
      <trkpt lat="44.33729" lon="6.43062">
        <ele>1712.905</ele>
        <time>2020-10-07T09:21:44Z</time>
      </trkpt>
      <trkpt lat="44.3373" lon="6.43066">
        <ele>1712.802</ele>
        <time>2020-10-07T09:21:50Z</time>
      </trkpt>
      <trkpt lat="44.33729" lon="6.43068">
        <ele>1713.323</ele>
        <time>2020-10-07T09:21:55Z</time>
      </trkpt>
      <trkpt lat="44.3373" lon="6.43074">
        <ele>1714.907</ele>
        <time>2020-10-07T09:22:01Z</time>
      </trkpt>
      <trkpt lat="44.3373" lon="6.43075">
        <ele>1714.482</ele>
        <time>2020-10-07T09:22:07Z</time>
      </trkpt>
      <trkpt lat="44.33729" lon="6.43075">
        <ele>1508.269</ele>
        <time>2020-10-07T09:22:12Z</time>
      </trkpt>
      <trkpt lat="44.33726" lon="6.43074">
        <ele>1636.72</ele>
        <time>2020-10-07T09:22:18Z</time>
      </trkpt>
      <trkpt lat="44.33726" lon="6.43073">
        <ele>1668.809</ele>
        <time>2020-10-07T09:22:23Z</time>
      </trkpt>
      <trkpt lat="44.33725" lon="6.43071">
        <ele>1696.963</ele>
        <time>2020-10-07T09:22:28Z</time>
      </trkpt>
      <trkpt lat="44.33722" lon="6.43071">
        <ele>1702.543</ele>
        <time>2020-10-07T09:22:34Z</time>
      </trkpt>
      <trkpt lat="44.33721" lon="6.43069">
        <ele>1707.802</ele>
        <time>2020-10-07T09:22:40Z</time>
      </trkpt>
      <trkpt lat="44.33722" lon="6.43069">
        <ele>1708.182</ele>
        <time>2020-10-07T09:22:46Z</time>
      </trkpt>
      <trkpt lat="44.33722" lon="6.43069">
        <ele>1709.18</ele>
        <time>2020-10-07T09:22:52Z</time>
      </trkpt>
      <trkpt lat="44.33722" lon="6.43069">
        <ele>1709.581</ele>
        <time>2020-10-07T09:22:58Z</time>
      </trkpt>
      <trkpt lat="44.33722" lon="6.43069">
        <ele>1711.632</ele>
        <time>2020-10-07T09:23:04Z</time>
      </trkpt>
      <trkpt lat="44.33722" lon="6.43069">
        <ele>1712.468</ele>
        <time>2020-10-07T09:23:09Z</time>
      </trkpt>
      <trkpt lat="44.33723" lon="6.43069">
        <ele>1713.619</ele>
        <time>2020-10-07T09:23:15Z</time>
      </trkpt>
      <trkpt lat="44.33725" lon="6.4307">
        <ele>1713.941</ele>
        <time>2020-10-07T09:23:21Z</time>
      </trkpt>
      <trkpt lat="44.33725" lon="6.43073">
        <ele>1708.725</ele>
        <time>2020-10-07T09:23:27Z</time>
      </trkpt>
      <trkpt lat="44.33724" lon="6.43072">
        <ele>1707.708</ele>
        <time>2020-10-07T09:23:33Z</time>
      </trkpt>
      <trkpt lat="44.33724" lon="6.43072">
        <ele>1709.008</ele>
        <time>2020-10-07T09:23:38Z</time>
      </trkpt>
      <trkpt lat="44.33724" lon="6.43072">
        <ele>1709.059</ele>
        <time>2020-10-07T09:23:43Z</time>
      </trkpt>
      <trkpt lat="44.33724" lon="6.43072">
        <ele>1709.216</ele>
        <time>2020-10-07T09:23:49Z</time>
      </trkpt>
      <trkpt lat="44.33725" lon="6.43072">
        <ele>1708.959</ele>
        <time>2020-10-07T09:23:54Z</time>
      </trkpt>
      <trkpt lat="44.33725" lon="6.43072">
        <ele>1708.887</ele>
        <time>2020-10-07T09:23:59Z</time>
      </trkpt>
      <trkpt lat="44.33726" lon="6.43071">
        <ele>1706.854</ele>
        <time>2020-10-07T09:24:05Z</time>
      </trkpt>
      <trkpt lat="44.33726" lon="6.43071">
        <ele>1708.774</ele>
        <time>2020-10-07T09:24:10Z</time>
      </trkpt>
      <trkpt lat="44.33726" lon="6.43067">
        <ele>1713.106</ele>
        <time>2020-10-07T09:24:16Z</time>
      </trkpt>
      <trkpt lat="44.33725" lon="6.43064">
        <ele>1716.309</ele>
        <time>2020-10-07T09:24:22Z</time>
      </trkpt>
      <trkpt lat="44.33725" lon="6.4306">
        <ele>1718.036</ele>
        <time>2020-10-07T09:24:28Z</time>
      </trkpt>
      <trkpt lat="44.33725" lon="6.4306">
        <ele>1718.907</ele>
        <time>2020-10-07T09:24:33Z</time>
      </trkpt>
      <trkpt lat="44.33725" lon="6.4306">
        <ele>1718.998</ele>
        <time>2020-10-07T09:24:38Z</time>
      </trkpt>
      <trkpt lat="44.33725" lon="6.4306">
        <ele>1718.903</ele>
        <time>2020-10-07T09:24:44Z</time>
      </trkpt>
      <trkpt lat="44.33725" lon="6.4306">
        <ele>1718.901</ele>
        <time>2020-10-07T09:24:50Z</time>
      </trkpt>
      <trkpt lat="44.33725" lon="6.4306">
        <ele>1719.015</ele>
        <time>2020-10-07T09:24:56Z</time>
      </trkpt>
      <trkpt lat="44.33725" lon="6.4306">
        <ele>1719.045</ele>
        <time>2020-10-07T09:25:01Z</time>
      </trkpt>
      <trkpt lat="44.33725" lon="6.4306">
        <ele>1720.125</ele>
        <time>2020-10-07T09:25:07Z</time>
      </trkpt>
      <trkpt lat="44.33722" lon="6.43062">
        <ele>1720.607</ele>
        <time>2020-10-07T09:25:12Z</time>
      </trkpt>
      <trkpt lat="44.33719" lon="6.43063">
        <ele>1721.49</ele>
        <time>2020-10-07T09:25:17Z</time>
      </trkpt>
      <trkpt lat="44.33715" lon="6.43063">
        <ele>1721.039</ele>
        <time>2020-10-07T09:25:23Z</time>
      </trkpt>
      <trkpt lat="44.3371" lon="6.43064">
        <ele>1726.179</ele>
        <time>2020-10-07T09:25:28Z</time>
      </trkpt>
      <trkpt lat="44.33711" lon="6.43061">
        <ele>1729.93</ele>
        <time>2020-10-07T09:25:34Z</time>
      </trkpt>
      <trkpt lat="44.33712" lon="6.43061">
        <ele>1730.974</ele>
        <time>2020-10-07T09:25:40Z</time>
      </trkpt>
      <trkpt lat="44.33712" lon="6.43061">
        <ele>1731.291</ele>
        <time>2020-10-07T09:25:46Z</time>
      </trkpt>
      <trkpt lat="44.33712" lon="6.43061">
        <ele>1731.357</ele>
        <time>2020-10-07T09:25:52Z</time>
      </trkpt>
      <trkpt lat="44.33712" lon="6.43061">
        <ele>1731.385</ele>
        <time>2020-10-07T09:25:57Z</time>
      </trkpt>
      <trkpt lat="44.33712" lon="6.43062">
        <ele>1734.593</ele>
        <time>2020-10-07T09:26:03Z</time>
      </trkpt>
      <trkpt lat="44.33711" lon="6.43063">
        <ele>1738.476</ele>
        <time>2020-10-07T09:26:08Z</time>
      </trkpt>
      <trkpt lat="44.3371" lon="6.43064">
        <ele>1737.813</ele>
        <time>2020-10-07T09:26:14Z</time>
      </trkpt>
      <trkpt lat="44.33711" lon="6.43063">
        <ele>1736.468</ele>
        <time>2020-10-07T09:26:20Z</time>
      </trkpt>
      <trkpt lat="44.3371" lon="6.43062">
        <ele>1735.977</ele>
        <time>2020-10-07T09:26:25Z</time>
      </trkpt>
      <trkpt lat="44.3371" lon="6.43062">
        <ele>1735.639</ele>
        <time>2020-10-07T09:26:30Z</time>
      </trkpt>
      <trkpt lat="44.33713" lon="6.43066">
        <ele>1733.441</ele>
        <time>2020-10-07T09:26:36Z</time>
      </trkpt>
      <trkpt lat="44.33713" lon="6.43065">
        <ele>1733.265</ele>
        <time>2020-10-07T09:26:42Z</time>
      </trkpt>
      <trkpt lat="44.33708" lon="6.43063">
        <ele>1731.028</ele>
        <time>2020-10-07T09:26:48Z</time>
      </trkpt>
      <trkpt lat="44.33707" lon="6.43064">
        <ele>1732.432</ele>
        <time>2020-10-07T09:26:53Z</time>
      </trkpt>
      <trkpt lat="44.33706" lon="6.43064">
        <ele>1733.886</ele>
        <time>2020-10-07T09:26:59Z</time>
      </trkpt>
      <trkpt lat="44.33703" lon="6.43065">
        <ele>1733.726</ele>
        <time>2020-10-07T09:27:05Z</time>
      </trkpt>
      <trkpt lat="44.33702" lon="6.43063">
        <ele>1733.575</ele>
        <time>2020-10-07T09:27:10Z</time>
      </trkpt>
      <trkpt lat="44.33702" lon="6.43065">
        <ele>1634.157</ele>
        <time>2020-10-07T09:27:16Z</time>
      </trkpt>
      <trkpt lat="44.33701" lon="6.43064">
        <ele>1695.772</ele>
        <time>2020-10-07T09:27:21Z</time>
      </trkpt>
      <trkpt lat="44.33701" lon="6.43063">
        <ele>1720.475</ele>
        <time>2020-10-07T09:27:27Z</time>
      </trkpt>
      <trkpt lat="44.33697" lon="6.43067">
        <ele>1726.852</ele>
        <time>2020-10-07T09:27:33Z</time>
      </trkpt>
      <trkpt lat="44.33695" lon="6.43068">
        <ele>1728.357</ele>
        <time>2020-10-07T09:27:39Z</time>
      </trkpt>
      <trkpt lat="44.33694" lon="6.43068">
        <ele>1729.302</ele>
        <time>2020-10-07T09:27:44Z</time>
      </trkpt>
      <trkpt lat="44.33694" lon="6.43069">
        <ele>1737.199</ele>
        <time>2020-10-07T09:27:50Z</time>
      </trkpt>
      <trkpt lat="44.33693" lon="6.43068">
        <ele>1737.613</ele>
        <time>2020-10-07T09:27:55Z</time>
      </trkpt>
      <trkpt lat="44.33692" lon="6.43068">
        <ele>1736.588</ele>
        <time>2020-10-07T09:28:01Z</time>
      </trkpt>
      <trkpt lat="44.3369" lon="6.43068">
        <ele>1734.571</ele>
        <time>2020-10-07T09:28:07Z</time>
      </trkpt>
      <trkpt lat="44.33689" lon="6.43069">
        <ele>1736.231</ele>
        <time>2020-10-07T09:28:12Z</time>
      </trkpt>
      <trkpt lat="44.33689" lon="6.43069">
        <ele>1735.211</ele>
        <time>2020-10-07T09:28:18Z</time>
      </trkpt>
      <trkpt lat="44.33688" lon="6.43069">
        <ele>1734.476</ele>
        <time>2020-10-07T09:28:24Z</time>
      </trkpt>
      <trkpt lat="44.33686" lon="6.43068">
        <ele>1736.248</ele>
        <time>2020-10-07T09:28:30Z</time>
      </trkpt>
      <trkpt lat="44.33686" lon="6.43067">
        <ele>1736.401</ele>
        <time>2020-10-07T09:28:35Z</time>
      </trkpt>
      <trkpt lat="44.33686" lon="6.43066">
        <ele>1736.968</ele>
        <time>2020-10-07T09:28:40Z</time>
      </trkpt>
      <trkpt lat="44.33686" lon="6.43068">
        <ele>1737.529</ele>
        <time>2020-10-07T09:28:46Z</time>
      </trkpt>
      <trkpt lat="44.33686" lon="6.43071">
        <ele>1737.453</ele>
        <time>2020-10-07T09:28:52Z</time>
      </trkpt>
      <trkpt lat="44.33686" lon="6.43071">
        <ele>1738.146</ele>
        <time>2020-10-07T09:28:57Z</time>
      </trkpt>
      <trkpt lat="44.33687" lon="6.43071">
        <ele>1739.498</ele>
        <time>2020-10-07T09:29:03Z</time>
      </trkpt>
      <trkpt lat="44.33689" lon="6.43075">
        <ele>1739</ele>
        <time>2020-10-07T09:29:09Z</time>
      </trkpt>
      <trkpt lat="44.33691" lon="6.43075">
        <ele>1740.407</ele>
        <time>2020-10-07T09:29:15Z</time>
      </trkpt>
      <trkpt lat="44.33693" lon="6.43073">
        <ele>1741.95</ele>
        <time>2020-10-07T09:29:20Z</time>
      </trkpt>
      <trkpt lat="44.33694" lon="6.43075">
        <ele>1741.607</ele>
        <time>2020-10-07T09:29:26Z</time>
      </trkpt>
      <trkpt lat="44.33695" lon="6.43076">
        <ele>1741.494</ele>
        <time>2020-10-07T09:29:32Z</time>
      </trkpt>
      <trkpt lat="44.33694" lon="6.4308">
        <ele>1740.717</ele>
        <time>2020-10-07T09:29:37Z</time>
      </trkpt>
      <trkpt lat="44.33694" lon="6.43085">
        <ele>1738.991</ele>
        <time>2020-10-07T09:29:43Z</time>
      </trkpt>
      <trkpt lat="44.33688" lon="6.43084">
        <ele>1734.906</ele>
        <time>2020-10-07T09:29:49Z</time>
      </trkpt>
      <trkpt lat="44.33689" lon="6.43094">
        <ele>1734.304</ele>
        <time>2020-10-07T09:29:55Z</time>
      </trkpt>
      <trkpt lat="44.33689" lon="6.43095">
        <ele>1733.074</ele>
        <time>2020-10-07T09:30:00Z</time>
      </trkpt>
      <trkpt lat="44.33691" lon="6.43095">
        <ele>1731.647</ele>
        <time>2020-10-07T09:30:06Z</time>
      </trkpt>
      <trkpt lat="44.33692" lon="6.43103">
        <ele>1731.585</ele>
        <time>2020-10-07T09:30:12Z</time>
      </trkpt>
      <trkpt lat="44.33685" lon="6.43104">
        <ele>1725.775</ele>
        <time>2020-10-07T09:30:17Z</time>
      </trkpt>
      <trkpt lat="44.33685" lon="6.4311">
        <ele>1727.771</ele>
        <time>2020-10-07T09:30:23Z</time>
      </trkpt>
      <trkpt lat="44.33691" lon="6.43119">
        <ele>1726.256</ele>
        <time>2020-10-07T09:30:28Z</time>
      </trkpt>
      <trkpt lat="44.33695" lon="6.43128">
        <ele>1731.946</ele>
        <time>2020-10-07T09:30:34Z</time>
      </trkpt>
      <trkpt lat="44.337" lon="6.43131">
        <ele>1733.503</ele>
        <time>2020-10-07T09:30:39Z</time>
      </trkpt>
      <trkpt lat="44.33699" lon="6.4313">
        <ele>1732.271</ele>
        <time>2020-10-07T09:30:45Z</time>
      </trkpt>
      <trkpt lat="44.33701" lon="6.43131">
        <ele>1732.648</ele>
        <time>2020-10-07T09:30:50Z</time>
      </trkpt>
      <trkpt lat="44.33702" lon="6.43131">
        <ele>1733.138</ele>
        <time>2020-10-07T09:30:55Z</time>
      </trkpt>
      <trkpt lat="44.337" lon="6.43132">
        <ele>1735.753</ele>
        <time>2020-10-07T09:31:01Z</time>
      </trkpt>
      <trkpt lat="44.33703" lon="6.43139">
        <ele>1733.217</ele>
        <time>2020-10-07T09:31:07Z</time>
      </trkpt>
      <trkpt lat="44.33699" lon="6.43141">
        <ele>1727.143</ele>
        <time>2020-10-07T09:31:12Z</time>
      </trkpt>
      <trkpt lat="44.33699" lon="6.43143">
        <ele>1727.814</ele>
        <time>2020-10-07T09:31:18Z</time>
      </trkpt>
      <trkpt lat="44.33694" lon="6.43144">
        <ele>1726.823</ele>
        <time>2020-10-07T09:31:23Z</time>
      </trkpt>
      <trkpt lat="44.33689" lon="6.43151">
        <ele>1726.561</ele>
        <time>2020-10-07T09:31:29Z</time>
      </trkpt>
      <trkpt lat="44.33688" lon="6.43159">
        <ele>1726.588</ele>
        <time>2020-10-07T09:31:35Z</time>
      </trkpt>
      <trkpt lat="44.3369" lon="6.43162">
        <ele>1731.174</ele>
        <time>2020-10-07T09:31:41Z</time>
      </trkpt>
      <trkpt lat="44.3369" lon="6.43163">
        <ele>1732.164</ele>
        <time>2020-10-07T09:31:47Z</time>
      </trkpt>
      <trkpt lat="44.3369" lon="6.43162">
        <ele>1732.135</ele>
        <time>2020-10-07T09:31:52Z</time>
      </trkpt>
      <trkpt lat="44.33692" lon="6.43164">
        <ele>1729.854</ele>
        <time>2020-10-07T09:31:57Z</time>
      </trkpt>
      <trkpt lat="44.33694" lon="6.43164">
        <ele>1728.083</ele>
        <time>2020-10-07T09:32:03Z</time>
      </trkpt>
      <trkpt lat="44.33695" lon="6.43165">
        <ele>1728.24</ele>
        <time>2020-10-07T09:32:08Z</time>
      </trkpt>
      <trkpt lat="44.33696" lon="6.43164">
        <ele>1730.858</ele>
        <time>2020-10-07T09:32:14Z</time>
      </trkpt>
      <trkpt lat="44.33692" lon="6.43161">
        <ele>1727.438</ele>
        <time>2020-10-07T09:32:20Z</time>
      </trkpt>
      <trkpt lat="44.3369" lon="6.43164">
        <ele>1728.153</ele>
        <time>2020-10-07T09:32:25Z</time>
      </trkpt>
      <trkpt lat="44.33691" lon="6.43164">
        <ele>1729.495</ele>
        <time>2020-10-07T09:32:31Z</time>
      </trkpt>
      <trkpt lat="44.33692" lon="6.43165">
        <ele>1729.898</ele>
        <time>2020-10-07T09:32:36Z</time>
      </trkpt>
      <trkpt lat="44.33691" lon="6.43172">
        <ele>1733.801</ele>
        <time>2020-10-07T09:32:42Z</time>
      </trkpt>
      <trkpt lat="44.33693" lon="6.4317">
        <ele>1732.944</ele>
        <time>2020-10-07T09:32:47Z</time>
      </trkpt>
      <trkpt lat="44.33694" lon="6.43169">
        <ele>1733.657</ele>
        <time>2020-10-07T09:32:53Z</time>
      </trkpt>
      <trkpt lat="44.33695" lon="6.4317">
        <ele>1733.252</ele>
        <time>2020-10-07T09:32:58Z</time>
      </trkpt>
      <trkpt lat="44.33695" lon="6.43171">
        <ele>1733.045</ele>
        <time>2020-10-07T09:33:04Z</time>
      </trkpt>
      <trkpt lat="44.33694" lon="6.43171">
        <ele>1734.078</ele>
        <time>2020-10-07T09:33:09Z</time>
      </trkpt>
      <trkpt lat="44.33696" lon="6.43171">
        <ele>1737.408</ele>
        <time>2020-10-07T09:33:15Z</time>
      </trkpt>
      <trkpt lat="44.33697" lon="6.43178">
        <ele>1739.312</ele>
        <time>2020-10-07T09:33:21Z</time>
      </trkpt>
      <trkpt lat="44.33698" lon="6.4318">
        <ele>1739.686</ele>
        <time>2020-10-07T09:33:26Z</time>
      </trkpt>
      <trkpt lat="44.33699" lon="6.43182">
        <ele>1740.32</ele>
        <time>2020-10-07T09:33:31Z</time>
      </trkpt>
      <trkpt lat="44.33701" lon="6.43185">
        <ele>1739.873</ele>
        <time>2020-10-07T09:33:36Z</time>
      </trkpt>
      <trkpt lat="44.33701" lon="6.43185">
        <ele>1739.826</ele>
        <time>2020-10-07T09:33:42Z</time>
      </trkpt>
      <trkpt lat="44.33703" lon="6.43184">
        <ele>1736.14</ele>
        <time>2020-10-07T09:33:48Z</time>
      </trkpt>
      <trkpt lat="44.33703" lon="6.43184">
        <ele>1734.83</ele>
        <time>2020-10-07T09:33:54Z</time>
      </trkpt>
      <trkpt lat="44.33703" lon="6.43185">
        <ele>1734.482</ele>
        <time>2020-10-07T09:34:00Z</time>
      </trkpt>
      <trkpt lat="44.33703" lon="6.43185">
        <ele>1731.655</ele>
        <time>2020-10-07T09:34:05Z</time>
      </trkpt>
      <trkpt lat="44.33704" lon="6.43183">
        <ele>1731.055</ele>
        <time>2020-10-07T09:34:11Z</time>
      </trkpt>
      <trkpt lat="44.33704" lon="6.43182">
        <ele>1729.304</ele>
        <time>2020-10-07T09:34:17Z</time>
      </trkpt>
      <trkpt lat="44.33704" lon="6.4318">
        <ele>1727.885</ele>
        <time>2020-10-07T09:34:22Z</time>
      </trkpt>
      <trkpt lat="44.33703" lon="6.43176">
        <ele>1727.261</ele>
        <time>2020-10-07T09:34:28Z</time>
      </trkpt>
      <trkpt lat="44.33705" lon="6.43176">
        <ele>1726.499</ele>
        <time>2020-10-07T09:34:34Z</time>
      </trkpt>
      <trkpt lat="44.33707" lon="6.43178">
        <ele>1725.342</ele>
        <time>2020-10-07T09:34:39Z</time>
      </trkpt>
      <trkpt lat="44.33708" lon="6.43177">
        <ele>1725.752</ele>
        <time>2020-10-07T09:34:44Z</time>
      </trkpt>
      <trkpt lat="44.33711" lon="6.43177">
        <ele>1724.787</ele>
        <time>2020-10-07T09:34:50Z</time>
      </trkpt>
      <trkpt lat="44.33712" lon="6.43178">
        <ele>1723.234</ele>
        <time>2020-10-07T09:34:55Z</time>
      </trkpt>
      <trkpt lat="44.33713" lon="6.43179">
        <ele>1724.061</ele>
        <time>2020-10-07T09:35:01Z</time>
      </trkpt>
      <trkpt lat="44.33714" lon="6.43181">
        <ele>1586.619</ele>
        <time>2020-10-07T09:35:07Z</time>
      </trkpt>
      <trkpt lat="44.33716" lon="6.43182">
        <ele>1696.76</ele>
        <time>2020-10-07T09:35:12Z</time>
      </trkpt>
      <trkpt lat="44.33716" lon="6.43182">
        <ele>1534.923</ele>
        <time>2020-10-07T09:35:18Z</time>
      </trkpt>
      <trkpt lat="44.33715" lon="6.43182">
        <ele>1665.919</ele>
        <time>2020-10-07T09:35:23Z</time>
      </trkpt>
      <trkpt lat="44.33717" lon="6.43185">
        <ele>1704.776</ele>
        <time>2020-10-07T09:35:29Z</time>
      </trkpt>
      <trkpt lat="44.33718" lon="6.43186">
        <ele>1713.165</ele>
        <time>2020-10-07T09:35:35Z</time>
      </trkpt>
      <trkpt lat="44.33718" lon="6.43187">
        <ele>1715.87</ele>
        <time>2020-10-07T09:35:40Z</time>
      </trkpt>
      <trkpt lat="44.33721" lon="6.43189">
        <ele>1716.625</ele>
        <time>2020-10-07T09:35:45Z</time>
      </trkpt>
      <trkpt lat="44.33722" lon="6.43192">
        <ele>1719.193</ele>
        <time>2020-10-07T09:35:51Z</time>
      </trkpt>
      <trkpt lat="44.33723" lon="6.43197">
        <ele>1719.076</ele>
        <time>2020-10-07T09:35:57Z</time>
      </trkpt>
      <trkpt lat="44.3373" lon="6.43196">
        <ele>1715.759</ele>
        <time>2020-10-07T09:36:03Z</time>
      </trkpt>
      <trkpt lat="44.33731" lon="6.43204">
        <ele>1715.497</ele>
        <time>2020-10-07T09:36:09Z</time>
      </trkpt>
      <trkpt lat="44.33731" lon="6.43206">
        <ele>1716.908</ele>
        <time>2020-10-07T09:36:14Z</time>
      </trkpt>
      <trkpt lat="44.33731" lon="6.43205">
        <ele>1715.667</ele>
        <time>2020-10-07T09:36:20Z</time>
      </trkpt>
      <trkpt lat="44.33731" lon="6.43208">
        <ele>1717.983</ele>
        <time>2020-10-07T09:36:25Z</time>
      </trkpt>
      <trkpt lat="44.3373" lon="6.43207">
        <ele>1717.852</ele>
        <time>2020-10-07T09:36:30Z</time>
      </trkpt>
      <trkpt lat="44.33731" lon="6.43206">
        <ele>1719.199</ele>
        <time>2020-10-07T09:36:36Z</time>
      </trkpt>
      <trkpt lat="44.33731" lon="6.43207">
        <ele>1719.763</ele>
        <time>2020-10-07T09:36:41Z</time>
      </trkpt>
      <trkpt lat="44.33731" lon="6.43208">
        <ele>1720.191</ele>
        <time>2020-10-07T09:36:46Z</time>
      </trkpt>
      <trkpt lat="44.33732" lon="6.43208">
        <ele>1722.198</ele>
        <time>2020-10-07T09:36:52Z</time>
      </trkpt>
      <trkpt lat="44.33731" lon="6.43203">
        <ele>1724.938</ele>
        <time>2020-10-07T09:36:58Z</time>
      </trkpt>
      <trkpt lat="44.3373" lon="6.43199">
        <ele>1722.043</ele>
        <time>2020-10-07T09:37:04Z</time>
      </trkpt>
      <trkpt lat="44.3373" lon="6.43198">
        <ele>1721.468</ele>
        <time>2020-10-07T09:37:09Z</time>
      </trkpt>
      <trkpt lat="44.33733" lon="6.43201">
        <ele>1720.259</ele>
        <time>2020-10-07T09:37:15Z</time>
      </trkpt>
      <trkpt lat="44.33734" lon="6.43202">
        <ele>1719.105</ele>
        <time>2020-10-07T09:37:21Z</time>
      </trkpt>
      <trkpt lat="44.33734" lon="6.43203">
        <ele>1718.285</ele>
        <time>2020-10-07T09:37:26Z</time>
      </trkpt>
      <trkpt lat="44.33737" lon="6.43203">
        <ele>1718.431</ele>
        <time>2020-10-07T09:37:32Z</time>
      </trkpt>
      <trkpt lat="44.33737" lon="6.43203">
        <ele>1719.352</ele>
        <time>2020-10-07T09:37:38Z</time>
      </trkpt>
      <trkpt lat="44.33735" lon="6.43202">
        <ele>1717.835</ele>
        <time>2020-10-07T09:37:43Z</time>
      </trkpt>
      <trkpt lat="44.33738" lon="6.43205">
        <ele>1721.307</ele>
        <time>2020-10-07T09:37:49Z</time>
      </trkpt>
      <trkpt lat="44.33739" lon="6.43203">
        <ele>1722.011</ele>
        <time>2020-10-07T09:37:55Z</time>
      </trkpt>
      <trkpt lat="44.33739" lon="6.43203">
        <ele>1724.095</ele>
        <time>2020-10-07T09:38:01Z</time>
      </trkpt>
      <trkpt lat="44.33738" lon="6.43201">
        <ele>1726.514</ele>
        <time>2020-10-07T09:38:07Z</time>
      </trkpt>
      <trkpt lat="44.33739" lon="6.432">
        <ele>1725.469</ele>
        <time>2020-10-07T09:38:13Z</time>
      </trkpt>
      <trkpt lat="44.33739" lon="6.43201">
        <ele>1723.191</ele>
        <time>2020-10-07T09:38:18Z</time>
      </trkpt>
      <trkpt lat="44.33736" lon="6.43201">
        <ele>1720.615</ele>
        <time>2020-10-07T09:38:24Z</time>
      </trkpt>
      <trkpt lat="44.33735" lon="6.432">
        <ele>1721.091</ele>
        <time>2020-10-07T09:38:30Z</time>
      </trkpt>
      <trkpt lat="44.33735" lon="6.43199">
        <ele>1719.281</ele>
        <time>2020-10-07T09:38:36Z</time>
      </trkpt>
      <trkpt lat="44.33735" lon="6.43198">
        <ele>1719.458</ele>
        <time>2020-10-07T09:38:42Z</time>
      </trkpt>
      <trkpt lat="44.33735" lon="6.43199">
        <ele>1719.592</ele>
        <time>2020-10-07T09:38:48Z</time>
      </trkpt>
      <trkpt lat="44.33735" lon="6.43199">
        <ele>1719.499</ele>
        <time>2020-10-07T09:38:53Z</time>
      </trkpt>
      <trkpt lat="44.33737" lon="6.43198">
        <ele>1721.583</ele>
        <time>2020-10-07T09:38:59Z</time>
      </trkpt>
      <trkpt lat="44.33736" lon="6.43197">
        <ele>1721.76</ele>
        <time>2020-10-07T09:39:04Z</time>
      </trkpt>
      <trkpt lat="44.33735" lon="6.43197">
        <ele>1721.332</ele>
        <time>2020-10-07T09:39:10Z</time>
      </trkpt>
      <trkpt lat="44.33734" lon="6.43197">
        <ele>1718.787</ele>
        <time>2020-10-07T09:39:15Z</time>
      </trkpt>
      <trkpt lat="44.33734" lon="6.43195">
        <ele>1719.167</ele>
        <time>2020-10-07T09:39:20Z</time>
      </trkpt>
      <trkpt lat="44.3373" lon="6.43196">
        <ele>1715.067</ele>
        <time>2020-10-07T09:39:26Z</time>
      </trkpt>
      <trkpt lat="44.3373" lon="6.43196">
        <ele>1715.854</ele>
        <time>2020-10-07T09:39:31Z</time>
      </trkpt>
      <trkpt lat="44.33731" lon="6.43195">
        <ele>1716.06</ele>
        <time>2020-10-07T09:39:37Z</time>
      </trkpt>
      <trkpt lat="44.33731" lon="6.43195">
        <ele>1716.175</ele>
        <time>2020-10-07T09:39:43Z</time>
      </trkpt>
      <trkpt lat="44.33732" lon="6.43194">
        <ele>1717.789</ele>
        <time>2020-10-07T09:39:49Z</time>
      </trkpt>
      <trkpt lat="44.33735" lon="6.43194">
        <ele>1720.497</ele>
        <time>2020-10-07T09:39:54Z</time>
      </trkpt>
      <trkpt lat="44.33737" lon="6.43195">
        <ele>1719.459</ele>
        <time>2020-10-07T09:39:59Z</time>
      </trkpt>
      <trkpt lat="44.33737" lon="6.43195">
        <ele>1719.838</ele>
        <time>2020-10-07T09:40:05Z</time>
      </trkpt>
      <trkpt lat="44.33736" lon="6.43195">
        <ele>1719.692</ele>
        <time>2020-10-07T09:40:10Z</time>
      </trkpt>
      <trkpt lat="44.33737" lon="6.43196">
        <ele>1718.529</ele>
        <time>2020-10-07T09:40:16Z</time>
      </trkpt>
      <trkpt lat="44.33738" lon="6.43198">
        <ele>1636.169</ele>
        <time>2020-10-07T09:40:21Z</time>
      </trkpt>
      <trkpt lat="44.33737" lon="6.43199">
        <ele>1696.544</ele>
        <time>2020-10-07T09:40:27Z</time>
      </trkpt>
      <trkpt lat="44.33737" lon="6.432">
        <ele>1711.397</ele>
        <time>2020-10-07T09:40:33Z</time>
      </trkpt>
      <trkpt lat="44.33736" lon="6.43201">
        <ele>1715.579</ele>
        <time>2020-10-07T09:40:38Z</time>
      </trkpt>
      <trkpt lat="44.33736" lon="6.43201">
        <ele>1717.281</ele>
        <time>2020-10-07T09:40:44Z</time>
      </trkpt>
      <trkpt lat="44.33735" lon="6.432">
        <ele>1716.59</ele>
        <time>2020-10-07T09:40:51Z</time>
      </trkpt>
      <trkpt lat="44.33734" lon="6.432">
        <ele>1715.428</ele>
        <time>2020-10-07T09:40:56Z</time>
      </trkpt>
      <trkpt lat="44.33734" lon="6.432">
        <ele>1716.543</ele>
        <time>2020-10-07T09:41:02Z</time>
      </trkpt>
      <trkpt lat="44.33734" lon="6.432">
        <ele>1716.712</ele>
        <time>2020-10-07T09:41:07Z</time>
      </trkpt>
      <trkpt lat="44.33735" lon="6.43202">
        <ele>1716.22</ele>
        <time>2020-10-07T09:41:12Z</time>
      </trkpt>
      <trkpt lat="44.33736" lon="6.43205">
        <ele>1716.976</ele>
        <time>2020-10-07T09:41:17Z</time>
      </trkpt>
      <trkpt lat="44.33736" lon="6.43205">
        <ele>1715.603</ele>
        <time>2020-10-07T09:41:23Z</time>
      </trkpt>
      <trkpt lat="44.33734" lon="6.43202">
        <ele>1714.728</ele>
        <time>2020-10-07T09:41:29Z</time>
      </trkpt>
      <trkpt lat="44.33732" lon="6.43201">
        <ele>1715.011</ele>
        <time>2020-10-07T09:41:35Z</time>
      </trkpt>
      <trkpt lat="44.33731" lon="6.43201">
        <ele>1715.426</ele>
        <time>2020-10-07T09:41:40Z</time>
      </trkpt>
      <trkpt lat="44.33731" lon="6.43201">
        <ele>1714.904</ele>
        <time>2020-10-07T09:41:45Z</time>
      </trkpt>
      <trkpt lat="44.33731" lon="6.43201">
        <ele>1714.094</ele>
        <time>2020-10-07T09:41:51Z</time>
      </trkpt>
      <trkpt lat="44.33731" lon="6.432">
        <ele>1714.004</ele>
        <time>2020-10-07T09:41:56Z</time>
      </trkpt>
      <trkpt lat="44.33731" lon="6.432">
        <ele>1714.024</ele>
        <time>2020-10-07T09:42:02Z</time>
      </trkpt>
      <trkpt lat="44.3373" lon="6.432">
        <ele>1713.039</ele>
        <time>2020-10-07T09:42:07Z</time>
      </trkpt>
      <trkpt lat="44.33729" lon="6.43199">
        <ele>1713.272</ele>
        <time>2020-10-07T09:42:12Z</time>
      </trkpt>
      <trkpt lat="44.33729" lon="6.43198">
        <ele>1711.755</ele>
        <time>2020-10-07T09:42:18Z</time>
      </trkpt>
      <trkpt lat="44.33731" lon="6.43195">
        <ele>1717.342</ele>
        <time>2020-10-07T09:42:24Z</time>
      </trkpt>
      <trkpt lat="44.3373" lon="6.43195">
        <ele>1716.485</ele>
        <time>2020-10-07T09:42:30Z</time>
      </trkpt>
      <trkpt lat="44.33729" lon="6.43195">
        <ele>1715.63</ele>
        <time>2020-10-07T09:42:35Z</time>
      </trkpt>
      <trkpt lat="44.33728" lon="6.43195">
        <ele>1716.292</ele>
        <time>2020-10-07T09:42:40Z</time>
      </trkpt>
      <trkpt lat="44.33728" lon="6.43193">
        <ele>1715.972</ele>
        <time>2020-10-07T09:42:45Z</time>
      </trkpt>
      <trkpt lat="44.33728" lon="6.43193">
        <ele>1715.218</ele>
        <time>2020-10-07T09:42:50Z</time>
      </trkpt>
      <trkpt lat="44.33729" lon="6.43192">
        <ele>1714.758</ele>
        <time>2020-10-07T09:42:56Z</time>
      </trkpt>
      <trkpt lat="44.33729" lon="6.43192">
        <ele>1714.758</ele>
        <time>2020-10-07T09:43:01Z</time>
      </trkpt>
      <trkpt lat="44.33729" lon="6.43192">
        <ele>1714.753</ele>
        <time>2020-10-07T09:43:07Z</time>
      </trkpt>
      <trkpt lat="44.33729" lon="6.43192">
        <ele>1714.731</ele>
        <time>2020-10-07T09:43:12Z</time>
      </trkpt>
      <trkpt lat="44.33729" lon="6.43192">
        <ele>1714.687</ele>
        <time>2020-10-07T09:43:18Z</time>
      </trkpt>
      <trkpt lat="44.3373" lon="6.43192">
        <ele>1716.286</ele>
        <time>2020-10-07T09:43:23Z</time>
      </trkpt>
      <trkpt lat="44.33729" lon="6.43192">
        <ele>1716.487</ele>
        <time>2020-10-07T09:43:28Z</time>
      </trkpt>
      <trkpt lat="44.3373" lon="6.43191">
        <ele>1717.299</ele>
        <time>2020-10-07T09:43:34Z</time>
      </trkpt>
      <trkpt lat="44.3373" lon="6.43191">
        <ele>1717.297</ele>
        <time>2020-10-07T09:43:39Z</time>
      </trkpt>
      <trkpt lat="44.3373" lon="6.43191">
        <ele>1717.282</ele>
        <time>2020-10-07T09:43:45Z</time>
      </trkpt>
      <trkpt lat="44.3373" lon="6.43191">
        <ele>1717.325</ele>
        <time>2020-10-07T09:43:52Z</time>
      </trkpt>
      <trkpt lat="44.3373" lon="6.4319">
        <ele>1714.968</ele>
        <time>2020-10-07T09:43:58Z</time>
      </trkpt>
      <trkpt lat="44.33729" lon="6.4319">
        <ele>1717.197</ele>
        <time>2020-10-07T09:44:04Z</time>
      </trkpt>
      <trkpt lat="44.33728" lon="6.4319">
        <ele>1715.192</ele>
        <time>2020-10-07T09:44:10Z</time>
      </trkpt>
      <trkpt lat="44.33728" lon="6.4319">
        <ele>1715.209</ele>
        <time>2020-10-07T09:44:15Z</time>
      </trkpt>
      <trkpt lat="44.33728" lon="6.4319">
        <ele>1715.239</ele>
        <time>2020-10-07T09:44:21Z</time>
      </trkpt>
      <trkpt lat="44.33728" lon="6.4319">
        <ele>1715.243</ele>
        <time>2020-10-07T09:44:26Z</time>
      </trkpt>
      <trkpt lat="44.33728" lon="6.4319">
        <ele>1715.282</ele>
        <time>2020-10-07T09:44:32Z</time>
      </trkpt>
      <trkpt lat="44.33728" lon="6.4319">
        <ele>1715.31</ele>
        <time>2020-10-07T09:44:37Z</time>
      </trkpt>
      <trkpt lat="44.33729" lon="6.4319">
        <ele>1715.289</ele>
        <time>2020-10-07T09:44:43Z</time>
      </trkpt>
      <trkpt lat="44.33729" lon="6.4319">
        <ele>1715.295</ele>
        <time>2020-10-07T09:44:48Z</time>
      </trkpt>
      <trkpt lat="44.33729" lon="6.4319">
        <ele>1715.294</ele>
        <time>2020-10-07T09:44:53Z</time>
      </trkpt>
      <trkpt lat="44.33729" lon="6.4319">
        <ele>1715.274</ele>
        <time>2020-10-07T09:44:59Z</time>
      </trkpt>
      <trkpt lat="44.33729" lon="6.4319">
        <ele>1715.277</ele>
        <time>2020-10-07T09:45:05Z</time>
      </trkpt>
      <trkpt lat="44.33729" lon="6.4319">
        <ele>1715.267</ele>
        <time>2020-10-07T09:45:10Z</time>
      </trkpt>
      <trkpt lat="44.33729" lon="6.4319">
        <ele>1715.27</ele>
        <time>2020-10-07T09:45:16Z</time>
      </trkpt>
      <trkpt lat="44.33729" lon="6.4319">
        <ele>1715.22</ele>
        <time>2020-10-07T09:45:22Z</time>
      </trkpt>
      <trkpt lat="44.33729" lon="6.4319">
        <ele>1715.212</ele>
        <time>2020-10-07T09:45:27Z</time>
      </trkpt>
      <trkpt lat="44.33729" lon="6.4319">
        <ele>1715.217</ele>
        <time>2020-10-07T09:45:33Z</time>
      </trkpt>
      <trkpt lat="44.33729" lon="6.43191">
        <ele>1714.397</ele>
        <time>2020-10-07T09:45:38Z</time>
      </trkpt>
      <trkpt lat="44.33728" lon="6.43193">
        <ele>1712.107</ele>
        <time>2020-10-07T09:45:44Z</time>
      </trkpt>
      <trkpt lat="44.33729" lon="6.43193">
        <ele>1712.249</ele>
        <time>2020-10-07T09:45:50Z</time>
      </trkpt>
      <trkpt lat="44.33729" lon="6.43192">
        <ele>1712.33</ele>
        <time>2020-10-07T09:45:56Z</time>
      </trkpt>
      <trkpt lat="44.33729" lon="6.43192">
        <ele>1712.336</ele>
        <time>2020-10-07T09:46:02Z</time>
      </trkpt>
      <trkpt lat="44.33729" lon="6.43192">
        <ele>1712.361</ele>
        <time>2020-10-07T09:46:07Z</time>
      </trkpt>
      <trkpt lat="44.33729" lon="6.43192">
        <ele>1712.783</ele>
        <time>2020-10-07T09:46:13Z</time>
      </trkpt>
      <trkpt lat="44.33729" lon="6.43192">
        <ele>1712.944</ele>
        <time>2020-10-07T09:46:19Z</time>
      </trkpt>
      <trkpt lat="44.33729" lon="6.43192">
        <ele>1712.897</ele>
        <time>2020-10-07T09:46:24Z</time>
      </trkpt>
      <trkpt lat="44.33729" lon="6.43192">
        <ele>1712.964</ele>
        <time>2020-10-07T09:46:30Z</time>
      </trkpt>
      <trkpt lat="44.33729" lon="6.43192">
        <ele>1713.037</ele>
        <time>2020-10-07T09:46:35Z</time>
      </trkpt>
      <trkpt lat="44.33729" lon="6.43191">
        <ele>1713.092</ele>
        <time>2020-10-07T09:46:40Z</time>
      </trkpt>
      <trkpt lat="44.33729" lon="6.43191">
        <ele>1713.154</ele>
        <time>2020-10-07T09:46:46Z</time>
      </trkpt>
      <trkpt lat="44.33729" lon="6.43191">
        <ele>1713.262</ele>
        <time>2020-10-07T09:46:52Z</time>
      </trkpt>
      <trkpt lat="44.33729" lon="6.43191">
        <ele>1713.348</ele>
        <time>2020-10-07T09:46:58Z</time>
      </trkpt>
      <trkpt lat="44.33729" lon="6.43191">
        <ele>1713.39</ele>
        <time>2020-10-07T09:47:03Z</time>
      </trkpt>
      <trkpt lat="44.33729" lon="6.43191">
        <ele>1713.44</ele>
        <time>2020-10-07T09:47:09Z</time>
      </trkpt>
      <trkpt lat="44.33729" lon="6.43191">
        <ele>1713.452</ele>
        <time>2020-10-07T09:47:15Z</time>
      </trkpt>
      <trkpt lat="44.33729" lon="6.43191">
        <ele>1713.469</ele>
        <time>2020-10-07T09:47:21Z</time>
      </trkpt>
      <trkpt lat="44.33729" lon="6.43191">
        <ele>1713.514</ele>
        <time>2020-10-07T09:47:27Z</time>
      </trkpt>
      <trkpt lat="44.33729" lon="6.43191">
        <ele>1713.561</ele>
        <time>2020-10-07T09:47:33Z</time>
      </trkpt>
      <trkpt lat="44.33729" lon="6.43191">
        <ele>1713.659</ele>
        <time>2020-10-07T09:47:38Z</time>
      </trkpt>
      <trkpt lat="44.33729" lon="6.43191">
        <ele>1713.702</ele>
        <time>2020-10-07T09:47:44Z</time>
      </trkpt>
      <trkpt lat="44.33729" lon="6.4319">
        <ele>1713.9</ele>
        <time>2020-10-07T09:47:50Z</time>
      </trkpt>
      <trkpt lat="44.33729" lon="6.4319">
        <ele>1713.927</ele>
        <time>2020-10-07T09:47:56Z</time>
      </trkpt>
      <trkpt lat="44.33729" lon="6.4319">
        <ele>1713.938</ele>
        <time>2020-10-07T09:48:02Z</time>
      </trkpt>
      <trkpt lat="44.33729" lon="6.4319">
        <ele>1714</ele>
        <time>2020-10-07T09:48:08Z</time>
      </trkpt>
      <trkpt lat="44.33729" lon="6.4319">
        <ele>1714.057</ele>
        <time>2020-10-07T09:48:14Z</time>
      </trkpt>
      <trkpt lat="44.33729" lon="6.4319">
        <ele>1714.053</ele>
        <time>2020-10-07T09:48:19Z</time>
      </trkpt>
      <trkpt lat="44.33729" lon="6.4319">
        <ele>1718.091</ele>
        <time>2020-10-07T09:48:24Z</time>
      </trkpt>
      <trkpt lat="44.33729" lon="6.4319">
        <ele>1715.448</ele>
        <time>2020-10-07T09:48:30Z</time>
      </trkpt>
      <trkpt lat="44.33729" lon="6.4319">
        <ele>1714.845</ele>
        <time>2020-10-07T09:48:35Z</time>
      </trkpt>
      <trkpt lat="44.33729" lon="6.4319">
        <ele>1714.546</ele>
        <time>2020-10-07T09:48:41Z</time>
      </trkpt>
      <trkpt lat="44.33729" lon="6.4319">
        <ele>1714.397</ele>
        <time>2020-10-07T09:48:47Z</time>
      </trkpt>
      <trkpt lat="44.33729" lon="6.4319">
        <ele>1714.439</ele>
        <time>2020-10-07T09:48:53Z</time>
      </trkpt>
      <trkpt lat="44.33729" lon="6.4319">
        <ele>1714.441</ele>
        <time>2020-10-07T09:48:59Z</time>
      </trkpt>
      <trkpt lat="44.33729" lon="6.4319">
        <ele>1714.506</ele>
        <time>2020-10-07T09:49:05Z</time>
      </trkpt>
      <trkpt lat="44.33729" lon="6.4319">
        <ele>1714.621</ele>
        <time>2020-10-07T09:49:10Z</time>
      </trkpt>
      <trkpt lat="44.33729" lon="6.4319">
        <ele>1714.638</ele>
        <time>2020-10-07T09:49:16Z</time>
      </trkpt>
      <trkpt lat="44.33729" lon="6.4319">
        <ele>1714.626</ele>
        <time>2020-10-07T09:49:22Z</time>
      </trkpt>
      <trkpt lat="44.33729" lon="6.4319">
        <ele>1714.619</ele>
        <time>2020-10-07T09:49:27Z</time>
      </trkpt>
      <trkpt lat="44.33729" lon="6.4319">
        <ele>1714.645</ele>
        <time>2020-10-07T09:49:33Z</time>
      </trkpt>
      <trkpt lat="44.33729" lon="6.43189">
        <ele>1714.693</ele>
        <time>2020-10-07T09:49:39Z</time>
      </trkpt>
      <trkpt lat="44.33729" lon="6.43189">
        <ele>1714.713</ele>
        <time>2020-10-07T09:49:45Z</time>
      </trkpt>
      <trkpt lat="44.33729" lon="6.43189">
        <ele>1714.694</ele>
        <time>2020-10-07T09:49:50Z</time>
      </trkpt>
      <trkpt lat="44.33729" lon="6.43189">
        <ele>1714.725</ele>
        <time>2020-10-07T09:49:56Z</time>
      </trkpt>
      <trkpt lat="44.33729" lon="6.43189">
        <ele>1714.725</ele>
        <time>2020-10-07T09:50:01Z</time>
      </trkpt>
      <trkpt lat="44.33729" lon="6.43189">
        <ele>1714.738</ele>
        <time>2020-10-07T09:50:06Z</time>
      </trkpt>
      <trkpt lat="44.33729" lon="6.43189">
        <ele>1714.752</ele>
        <time>2020-10-07T09:50:12Z</time>
      </trkpt>
      <trkpt lat="44.33729" lon="6.43189">
        <ele>1714.742</ele>
        <time>2020-10-07T09:50:17Z</time>
      </trkpt>
      <trkpt lat="44.33729" lon="6.43187">
        <ele>1712.512</ele>
        <time>2020-10-07T09:50:22Z</time>
      </trkpt>
      <trkpt lat="44.33731" lon="6.43185">
        <ele>1711.831</ele>
        <time>2020-10-07T09:50:27Z</time>
      </trkpt>
      <trkpt lat="44.33731" lon="6.43182">
        <ele>1711.18</ele>
        <time>2020-10-07T09:50:33Z</time>
      </trkpt>
      <trkpt lat="44.33733" lon="6.4318">
        <ele>1712.53</ele>
        <time>2020-10-07T09:50:38Z</time>
      </trkpt>
      <trkpt lat="44.33736" lon="6.43178">
        <ele>1710.443</ele>
        <time>2020-10-07T09:50:44Z</time>
      </trkpt>
      <trkpt lat="44.33738" lon="6.43176">
        <ele>1705.249</ele>
        <time>2020-10-07T09:50:50Z</time>
      </trkpt>
      <trkpt lat="44.33739" lon="6.43176">
        <ele>1702.838</ele>
        <time>2020-10-07T09:50:56Z</time>
      </trkpt>
      <trkpt lat="44.33741" lon="6.43172">
        <ele>1701.642</ele>
        <time>2020-10-07T09:51:02Z</time>
      </trkpt>
      <trkpt lat="44.33741" lon="6.43173">
        <ele>1696.476</ele>
        <time>2020-10-07T09:51:08Z</time>
      </trkpt>
      <trkpt lat="44.3374" lon="6.43173">
        <ele>1696.457</ele>
        <time>2020-10-07T09:51:14Z</time>
      </trkpt>
      <trkpt lat="44.33741" lon="6.43172">
        <ele>1694.79</ele>
        <time>2020-10-07T09:51:20Z</time>
      </trkpt>
      <trkpt lat="44.33742" lon="6.4317">
        <ele>1695.663</ele>
        <time>2020-10-07T09:51:25Z</time>
      </trkpt>
      <trkpt lat="44.33743" lon="6.43169">
        <ele>1697.078</ele>
        <time>2020-10-07T09:51:31Z</time>
      </trkpt>
      <trkpt lat="44.33745" lon="6.43162">
        <ele>1699.814</ele>
        <time>2020-10-07T09:51:36Z</time>
      </trkpt>
      <trkpt lat="44.33742" lon="6.43161">
        <ele>1695.158</ele>
        <time>2020-10-07T09:51:42Z</time>
      </trkpt>
      <trkpt lat="44.33742" lon="6.43166">
        <ele>1692.383</ele>
        <time>2020-10-07T09:51:48Z</time>
      </trkpt>
      <trkpt lat="44.33743" lon="6.43164">
        <ele>1692.396</ele>
        <time>2020-10-07T09:51:53Z</time>
      </trkpt>
      <trkpt lat="44.33745" lon="6.4316">
        <ele>1688.108</ele>
        <time>2020-10-07T09:51:59Z</time>
      </trkpt>
      <trkpt lat="44.33744" lon="6.43158">
        <ele>1688.271</ele>
        <time>2020-10-07T09:52:05Z</time>
      </trkpt>
      <trkpt lat="44.33743" lon="6.43154">
        <ele>1689.841</ele>
        <time>2020-10-07T09:52:11Z</time>
      </trkpt>
      <trkpt lat="44.33743" lon="6.43154">
        <ele>1689.926</ele>
        <time>2020-10-07T09:52:16Z</time>
      </trkpt>
      <trkpt lat="44.33743" lon="6.43154">
        <ele>1689.978</ele>
        <time>2020-10-07T09:52:21Z</time>
      </trkpt>
      <trkpt lat="44.33744" lon="6.43153">
        <ele>1689.387</ele>
        <time>2020-10-07T09:52:26Z</time>
      </trkpt>
      <trkpt lat="44.33743" lon="6.43152">
        <ele>1689.396</ele>
        <time>2020-10-07T09:52:32Z</time>
      </trkpt>
      <trkpt lat="44.33743" lon="6.43152">
        <ele>1689.472</ele>
        <time>2020-10-07T09:52:37Z</time>
      </trkpt>
      <trkpt lat="44.33745" lon="6.43151">
        <ele>1689.255</ele>
        <time>2020-10-07T09:52:43Z</time>
      </trkpt>
      <trkpt lat="44.33745" lon="6.43154">
        <ele>1686.155</ele>
        <time>2020-10-07T09:52:48Z</time>
      </trkpt>
      <trkpt lat="44.33745" lon="6.43151">
        <ele>1687.534</ele>
        <time>2020-10-07T09:52:54Z</time>
      </trkpt>
      <trkpt lat="44.33745" lon="6.43151">
        <ele>1687.548</ele>
        <time>2020-10-07T09:53:00Z</time>
      </trkpt>
      <trkpt lat="44.33745" lon="6.43151">
        <ele>1687.54</ele>
        <time>2020-10-07T09:53:05Z</time>
      </trkpt>
      <trkpt lat="44.33745" lon="6.43151">
        <ele>1643.395</ele>
        <time>2020-10-07T09:53:11Z</time>
      </trkpt>
      <trkpt lat="44.33745" lon="6.43153">
        <ele>1675.41</ele>
        <time>2020-10-07T09:53:17Z</time>
      </trkpt>
      <trkpt lat="44.33745" lon="6.43153">
        <ele>1674.217</ele>
        <time>2020-10-07T09:53:22Z</time>
      </trkpt>
      <trkpt lat="44.33746" lon="6.43153">
        <ele>1680.173</ele>
        <time>2020-10-07T09:53:28Z</time>
      </trkpt>
      <trkpt lat="44.33747" lon="6.43154">
        <ele>1682.53</ele>
        <time>2020-10-07T09:53:34Z</time>
      </trkpt>
      <trkpt lat="44.33747" lon="6.43155">
        <ele>1684.863</ele>
        <time>2020-10-07T09:53:39Z</time>
      </trkpt>
      <trkpt lat="44.33749" lon="6.43155">
        <ele>1685.049</ele>
        <time>2020-10-07T09:53:44Z</time>
      </trkpt>
      <trkpt lat="44.3375" lon="6.43153">
        <ele>1683.869</ele>
        <time>2020-10-07T09:53:50Z</time>
      </trkpt>
      <trkpt lat="44.33751" lon="6.43154">
        <ele>1683.163</ele>
        <time>2020-10-07T09:53:56Z</time>
      </trkpt>
      <trkpt lat="44.33751" lon="6.43152">
        <ele>1680.605</ele>
        <time>2020-10-07T09:54:02Z</time>
      </trkpt>
      <trkpt lat="44.3375" lon="6.43153">
        <ele>1680.791</ele>
        <time>2020-10-07T09:54:07Z</time>
      </trkpt>
      <trkpt lat="44.3375" lon="6.43153">
        <ele>1681.626</ele>
        <time>2020-10-07T09:54:13Z</time>
      </trkpt>
      <trkpt lat="44.33748" lon="6.43153">
        <ele>1681.053</ele>
        <time>2020-10-07T09:54:18Z</time>
      </trkpt>
      <trkpt lat="44.33749" lon="6.43153">
        <ele>1679.627</ele>
        <time>2020-10-07T09:54:24Z</time>
      </trkpt>
      <trkpt lat="44.3375" lon="6.43156">
        <ele>1677.689</ele>
        <time>2020-10-07T09:54:29Z</time>
      </trkpt>
      <trkpt lat="44.33751" lon="6.43157">
        <ele>1678.297</ele>
        <time>2020-10-07T09:54:34Z</time>
      </trkpt>
      <trkpt lat="44.33751" lon="6.43156">
        <ele>1678.432</ele>
        <time>2020-10-07T09:54:40Z</time>
      </trkpt>
      <trkpt lat="44.3375" lon="6.43158">
        <ele>1678.567</ele>
        <time>2020-10-07T09:54:45Z</time>
      </trkpt>
      <trkpt lat="44.33752" lon="6.43157">
        <ele>1678.074</ele>
        <time>2020-10-07T09:54:51Z</time>
      </trkpt>
      <trkpt lat="44.33751" lon="6.43155">
        <ele>1678.669</ele>
        <time>2020-10-07T09:54:57Z</time>
      </trkpt>
      <trkpt lat="44.33752" lon="6.43155">
        <ele>1676.971</ele>
        <time>2020-10-07T09:55:02Z</time>
      </trkpt>
      <trkpt lat="44.33752" lon="6.43154">
        <ele>1678.931</ele>
        <time>2020-10-07T09:55:08Z</time>
      </trkpt>
      <trkpt lat="44.33752" lon="6.43154">
        <ele>1678.733</ele>
        <time>2020-10-07T09:55:13Z</time>
      </trkpt>
      <trkpt lat="44.33751" lon="6.43154">
        <ele>1678.03</ele>
        <time>2020-10-07T09:55:18Z</time>
      </trkpt>
      <trkpt lat="44.33749" lon="6.43155">
        <ele>1678.343</ele>
        <time>2020-10-07T09:55:24Z</time>
      </trkpt>
      <trkpt lat="44.3375" lon="6.43155">
        <ele>1679.311</ele>
        <time>2020-10-07T09:55:29Z</time>
      </trkpt>
      <trkpt lat="44.3375" lon="6.43155">
        <ele>1679.319</ele>
        <time>2020-10-07T09:55:35Z</time>
      </trkpt>
      <trkpt lat="44.33752" lon="6.43154">
        <ele>1681.125</ele>
        <time>2020-10-07T09:55:40Z</time>
      </trkpt>
      <trkpt lat="44.33753" lon="6.43153">
        <ele>1682.546</ele>
        <time>2020-10-07T09:55:46Z</time>
      </trkpt>
      <trkpt lat="44.33751" lon="6.43153">
        <ele>1682.315</ele>
        <time>2020-10-07T09:55:52Z</time>
      </trkpt>
      <trkpt lat="44.33751" lon="6.43152">
        <ele>1682.73</ele>
        <time>2020-10-07T09:55:58Z</time>
      </trkpt>
      <trkpt lat="44.33752" lon="6.43152">
        <ele>1682.085</ele>
        <time>2020-10-07T09:56:03Z</time>
      </trkpt>
      <trkpt lat="44.33753" lon="6.43152">
        <ele>1680.135</ele>
        <time>2020-10-07T09:56:09Z</time>
      </trkpt>
      <trkpt lat="44.33753" lon="6.43152">
        <ele>1679.703</ele>
        <time>2020-10-07T09:56:15Z</time>
      </trkpt>
      <trkpt lat="44.33753" lon="6.43152">
        <ele>1679.655</ele>
        <time>2020-10-07T09:56:20Z</time>
      </trkpt>
      <trkpt lat="44.33753" lon="6.43152">
        <ele>1679.694</ele>
        <time>2020-10-07T09:56:25Z</time>
      </trkpt>
      <trkpt lat="44.33753" lon="6.43152">
        <ele>1679.694</ele>
        <time>2020-10-07T09:56:31Z</time>
      </trkpt>
      <trkpt lat="44.33753" lon="6.43152">
        <ele>1679.69</ele>
        <time>2020-10-07T09:56:37Z</time>
      </trkpt>
      <trkpt lat="44.33752" lon="6.43154">
        <ele>1679.263</ele>
        <time>2020-10-07T09:56:43Z</time>
      </trkpt>
      <trkpt lat="44.33751" lon="6.43152">
        <ele>1680.268</ele>
        <time>2020-10-07T09:56:49Z</time>
      </trkpt>
      <trkpt lat="44.3375" lon="6.43152">
        <ele>1683.604</ele>
        <time>2020-10-07T09:56:55Z</time>
      </trkpt>
      <trkpt lat="44.33749" lon="6.43153">
        <ele>1684.535</ele>
        <time>2020-10-07T09:57:01Z</time>
      </trkpt>
      <trkpt lat="44.33749" lon="6.43153">
        <ele>1684.658</ele>
        <time>2020-10-07T09:57:07Z</time>
      </trkpt>
      <trkpt lat="44.33749" lon="6.43153">
        <ele>1684.691</ele>
        <time>2020-10-07T09:57:13Z</time>
      </trkpt>
      <trkpt lat="44.33749" lon="6.43153">
        <ele>1684.679</ele>
        <time>2020-10-07T09:57:18Z</time>
      </trkpt>
      <trkpt lat="44.33749" lon="6.43153">
        <ele>1687.088</ele>
        <time>2020-10-07T09:57:24Z</time>
      </trkpt>
      <trkpt lat="44.33747" lon="6.43154">
        <ele>1687.06</ele>
        <time>2020-10-07T09:57:30Z</time>
      </trkpt>
      <trkpt lat="44.33747" lon="6.43156">
        <ele>1688.029</ele>
        <time>2020-10-07T09:57:36Z</time>
      </trkpt>
      <trkpt lat="44.33744" lon="6.43161">
        <ele>1685.813</ele>
        <time>2020-10-07T09:57:42Z</time>
      </trkpt>
      <trkpt lat="44.33743" lon="6.4316">
        <ele>1687.652</ele>
        <time>2020-10-07T09:57:47Z</time>
      </trkpt>
      <trkpt lat="44.33742" lon="6.4316">
        <ele>1688.302</ele>
        <time>2020-10-07T09:57:53Z</time>
      </trkpt>
      <trkpt lat="44.3374" lon="6.43162">
        <ele>1688.055</ele>
        <time>2020-10-07T09:57:59Z</time>
      </trkpt>
      <trkpt lat="44.33737" lon="6.43163">
        <ele>1688.107</ele>
        <time>2020-10-07T09:58:05Z</time>
      </trkpt>
      <trkpt lat="44.33736" lon="6.43165">
        <ele>1688.876</ele>
        <time>2020-10-07T09:58:10Z</time>
      </trkpt>
      <trkpt lat="44.33737" lon="6.43168">
        <ele>1692.788</ele>
        <time>2020-10-07T09:58:16Z</time>
      </trkpt>
      <trkpt lat="44.33735" lon="6.43169">
        <ele>1695.611</ele>
        <time>2020-10-07T09:58:21Z</time>
      </trkpt>
      <trkpt lat="44.33733" lon="6.43168">
        <ele>1698.072</ele>
        <time>2020-10-07T09:58:27Z</time>
      </trkpt>
      <trkpt lat="44.33732" lon="6.43167">
        <ele>1699.003</ele>
        <time>2020-10-07T09:58:33Z</time>
      </trkpt>
      <trkpt lat="44.33731" lon="6.43168">
        <ele>1699.192</ele>
        <time>2020-10-07T09:58:38Z</time>
      </trkpt>
      <trkpt lat="44.33732" lon="6.43168">
        <ele>1700.43</ele>
        <time>2020-10-07T09:58:44Z</time>
      </trkpt>
      <trkpt lat="44.33732" lon="6.43168">
        <ele>1703.786</ele>
        <time>2020-10-07T09:58:49Z</time>
      </trkpt>
      <trkpt lat="44.33731" lon="6.43171">
        <ele>1702.673</ele>
        <time>2020-10-07T09:58:55Z</time>
      </trkpt>
      <trkpt lat="44.33731" lon="6.43171">
        <ele>1703.381</ele>
        <time>2020-10-07T09:59:00Z</time>
      </trkpt>
      <trkpt lat="44.33732" lon="6.43176">
        <ele>1706.005</ele>
        <time>2020-10-07T09:59:06Z</time>
      </trkpt>
      <trkpt lat="44.33732" lon="6.43176">
        <ele>1705.123</ele>
        <time>2020-10-07T09:59:12Z</time>
      </trkpt>
      <trkpt lat="44.33731" lon="6.43177">
        <ele>1704.516</ele>
        <time>2020-10-07T09:59:18Z</time>
      </trkpt>
      <trkpt lat="44.33731" lon="6.43177">
        <ele>1704.515</ele>
        <time>2020-10-07T09:59:24Z</time>
      </trkpt>
      <trkpt lat="44.33731" lon="6.43177">
        <ele>1704.515</ele>
        <time>2020-10-07T09:59:30Z</time>
      </trkpt>
      <trkpt lat="44.33731" lon="6.43177">
        <ele>1704.504</ele>
        <time>2020-10-07T09:59:35Z</time>
      </trkpt>
      <trkpt lat="44.33731" lon="6.43177">
        <ele>1704.529</ele>
        <time>2020-10-07T09:59:41Z</time>
      </trkpt>
      <trkpt lat="44.33731" lon="6.43177">
        <ele>1704.561</ele>
        <time>2020-10-07T09:59:47Z</time>
      </trkpt>
      <trkpt lat="44.33731" lon="6.43177">
        <ele>1704.564</ele>
        <time>2020-10-07T09:59:52Z</time>
      </trkpt>
      <trkpt lat="44.33731" lon="6.43177">
        <ele>1704.598</ele>
        <time>2020-10-07T09:59:57Z</time>
      </trkpt>
      <trkpt lat="44.33729" lon="6.43177">
        <ele>1708.526</ele>
        <time>2020-10-07T10:00:03Z</time>
      </trkpt>
      <trkpt lat="44.33727" lon="6.43174">
        <ele>1710.124</ele>
        <time>2020-10-07T10:00:09Z</time>
      </trkpt>
      <trkpt lat="44.33727" lon="6.43171">
        <ele>1712.58</ele>
        <time>2020-10-07T10:00:14Z</time>
      </trkpt>
      <trkpt lat="44.33726" lon="6.43171">
        <ele>1713.135</ele>
        <time>2020-10-07T10:00:20Z</time>
      </trkpt>
      <trkpt lat="44.33722" lon="6.43169">
        <ele>1710.744</ele>
        <time>2020-10-07T10:00:26Z</time>
      </trkpt>
      <trkpt lat="44.33721" lon="6.43169">
        <ele>1710.332</ele>
        <time>2020-10-07T10:00:31Z</time>
      </trkpt>
      <trkpt lat="44.33723" lon="6.4317">
        <ele>1713.678</ele>
        <time>2020-10-07T10:00:36Z</time>
      </trkpt>
      <trkpt lat="44.3372" lon="6.43169">
        <ele>1711.506</ele>
        <time>2020-10-07T10:00:42Z</time>
      </trkpt>
      <trkpt lat="44.33717" lon="6.43168">
        <ele>1712.343</ele>
        <time>2020-10-07T10:00:48Z</time>
      </trkpt>
      <trkpt lat="44.33716" lon="6.43167">
        <ele>1711.589</ele>
        <time>2020-10-07T10:00:54Z</time>
      </trkpt>
      <trkpt lat="44.33715" lon="6.43165">
        <ele>1712.814</ele>
        <time>2020-10-07T10:00:59Z</time>
      </trkpt>
      <trkpt lat="44.33715" lon="6.43167">
        <ele>1713.354</ele>
        <time>2020-10-07T10:01:05Z</time>
      </trkpt>
      <trkpt lat="44.33714" lon="6.43167">
        <ele>1713.786</ele>
        <time>2020-10-07T10:01:11Z</time>
      </trkpt>
      <trkpt lat="44.33714" lon="6.43166">
        <ele>1713.665</ele>
        <time>2020-10-07T10:01:16Z</time>
      </trkpt>
      <trkpt lat="44.3371" lon="6.43164">
        <ele>1709.277</ele>
        <time>2020-10-07T10:01:22Z</time>
      </trkpt>
      <trkpt lat="44.3371" lon="6.43164">
        <ele>1710.774</ele>
        <time>2020-10-07T10:01:28Z</time>
      </trkpt>
      <trkpt lat="44.33712" lon="6.43163">
        <ele>1713.098</ele>
        <time>2020-10-07T10:01:33Z</time>
      </trkpt>
      <trkpt lat="44.33712" lon="6.43164">
        <ele>1714.825</ele>
        <time>2020-10-07T10:01:38Z</time>
      </trkpt>
      <trkpt lat="44.33713" lon="6.43161">
        <ele>1716.68</ele>
        <time>2020-10-07T10:01:44Z</time>
      </trkpt>
      <trkpt lat="44.33714" lon="6.43159">
        <ele>1715.223</ele>
        <time>2020-10-07T10:01:49Z</time>
      </trkpt>
      <trkpt lat="44.33715" lon="6.43159">
        <ele>1712.715</ele>
        <time>2020-10-07T10:01:54Z</time>
      </trkpt>
      <trkpt lat="44.33713" lon="6.4316">
        <ele>1711.812</ele>
        <time>2020-10-07T10:02:00Z</time>
      </trkpt>
      <trkpt lat="44.33712" lon="6.4316">
        <ele>1711.627</ele>
        <time>2020-10-07T10:02:06Z</time>
      </trkpt>
      <trkpt lat="44.33713" lon="6.4316">
        <ele>1713.83</ele>
        <time>2020-10-07T10:02:11Z</time>
      </trkpt>
      <trkpt lat="44.33712" lon="6.43156">
        <ele>1713.199</ele>
        <time>2020-10-07T10:02:17Z</time>
      </trkpt>
      <trkpt lat="44.33712" lon="6.43155">
        <ele>1715.861</ele>
        <time>2020-10-07T10:02:22Z</time>
      </trkpt>
      <trkpt lat="44.33711" lon="6.43151">
        <ele>1711.753</ele>
        <time>2020-10-07T10:02:28Z</time>
      </trkpt>
      <trkpt lat="44.33712" lon="6.43152">
        <ele>1710.508</ele>
        <time>2020-10-07T10:02:33Z</time>
      </trkpt>
      <trkpt lat="44.33712" lon="6.43148">
        <ele>1713.526</ele>
        <time>2020-10-07T10:02:39Z</time>
      </trkpt>
      <trkpt lat="44.33712" lon="6.43148">
        <ele>1714.71</ele>
        <time>2020-10-07T10:02:44Z</time>
      </trkpt>
      <trkpt lat="44.33713" lon="6.43152">
        <ele>1714.237</ele>
        <time>2020-10-07T10:02:50Z</time>
      </trkpt>
      <trkpt lat="44.3371" lon="6.43148">
        <ele>1712.993</ele>
        <time>2020-10-07T10:02:55Z</time>
      </trkpt>
      <trkpt lat="44.33703" lon="6.43148">
        <ele>1707.355</ele>
        <time>2020-10-07T10:03:01Z</time>
      </trkpt>
      <trkpt lat="44.33703" lon="6.43148">
        <ele>1710.272</ele>
        <time>2020-10-07T10:03:06Z</time>
      </trkpt>
      <trkpt lat="44.33704" lon="6.43146">
        <ele>1711.411</ele>
        <time>2020-10-07T10:03:12Z</time>
      </trkpt>
      <trkpt lat="44.33709" lon="6.43147">
        <ele>1707.813</ele>
        <time>2020-10-07T10:03:18Z</time>
      </trkpt>
      <trkpt lat="44.33703" lon="6.43141">
        <ele>1709.24</ele>
        <time>2020-10-07T10:03:23Z</time>
      </trkpt>
      <trkpt lat="44.33702" lon="6.43136">
        <ele>1707.381</ele>
        <time>2020-10-07T10:03:29Z</time>
      </trkpt>
      <trkpt lat="44.33698" lon="6.43134">
        <ele>1709.139</ele>
        <time>2020-10-07T10:03:35Z</time>
      </trkpt>
      <trkpt lat="44.33698" lon="6.43132">
        <ele>1709.607</ele>
        <time>2020-10-07T10:03:41Z</time>
      </trkpt>
      <trkpt lat="44.33698" lon="6.43129">
        <ele>1711.63</ele>
        <time>2020-10-07T10:03:46Z</time>
      </trkpt>
      <trkpt lat="44.337" lon="6.43128">
        <ele>1711.454</ele>
        <time>2020-10-07T10:03:51Z</time>
      </trkpt>
      <trkpt lat="44.33698" lon="6.43127">
        <ele>1712.563</ele>
        <time>2020-10-07T10:03:57Z</time>
      </trkpt>
      <trkpt lat="44.33698" lon="6.43127">
        <ele>1711.675</ele>
        <time>2020-10-07T10:04:02Z</time>
      </trkpt>
      <trkpt lat="44.33699" lon="6.4312">
        <ele>1711.978</ele>
        <time>2020-10-07T10:04:08Z</time>
      </trkpt>
      <trkpt lat="44.33698" lon="6.43118">
        <ele>1711.951</ele>
        <time>2020-10-07T10:04:13Z</time>
      </trkpt>
      <trkpt lat="44.33697" lon="6.43111">
        <ele>1715.471</ele>
        <time>2020-10-07T10:04:19Z</time>
      </trkpt>
      <trkpt lat="44.33698" lon="6.43104">
        <ele>1717.017</ele>
        <time>2020-10-07T10:04:25Z</time>
      </trkpt>
      <trkpt lat="44.33697" lon="6.43099">
        <ele>1718.696</ele>
        <time>2020-10-07T10:04:31Z</time>
      </trkpt>
      <trkpt lat="44.33696" lon="6.43096">
        <ele>1720.188</ele>
        <time>2020-10-07T10:04:36Z</time>
      </trkpt>
      <trkpt lat="44.33695" lon="6.43092">
        <ele>1722.375</ele>
        <time>2020-10-07T10:04:42Z</time>
      </trkpt>
      <trkpt lat="44.33695" lon="6.43089">
        <ele>1724.925</ele>
        <time>2020-10-07T10:04:48Z</time>
      </trkpt>
      <trkpt lat="44.33695" lon="6.43082">
        <ele>1726.955</ele>
        <time>2020-10-07T10:04:54Z</time>
      </trkpt>
      <trkpt lat="44.33695" lon="6.43079">
        <ele>1727.44</ele>
        <time>2020-10-07T10:04:59Z</time>
      </trkpt>
      <trkpt lat="44.33695" lon="6.43075">
        <ele>1728.732</ele>
        <time>2020-10-07T10:05:05Z</time>
      </trkpt>
      <trkpt lat="44.33693" lon="6.4307">
        <ele>1730.734</ele>
        <time>2020-10-07T10:05:11Z</time>
      </trkpt>
      <trkpt lat="44.3369" lon="6.43059">
        <ele>1727.064</ele>
        <time>2020-10-07T10:05:17Z</time>
      </trkpt>
      <trkpt lat="44.33687" lon="6.43057">
        <ele>1723.747</ele>
        <time>2020-10-07T10:05:23Z</time>
      </trkpt>
      <trkpt lat="44.33686" lon="6.43059">
        <ele>1715.721</ele>
        <time>2020-10-07T10:05:29Z</time>
      </trkpt>
      <trkpt lat="44.33691" lon="6.43055">
        <ele>1720.47</ele>
        <time>2020-10-07T10:05:35Z</time>
      </trkpt>
      <trkpt lat="44.33698" lon="6.4305">
        <ele>1719.817</ele>
        <time>2020-10-07T10:05:41Z</time>
      </trkpt>
      <trkpt lat="44.33698" lon="6.43049">
        <ele>1723.764</ele>
        <time>2020-10-07T10:05:47Z</time>
      </trkpt>
      <trkpt lat="44.33701" lon="6.43046">
        <ele>1726.24</ele>
        <time>2020-10-07T10:05:52Z</time>
      </trkpt>
      <trkpt lat="44.337" lon="6.43045">
        <ele>1725.315</ele>
        <time>2020-10-07T10:05:58Z</time>
      </trkpt>
      <trkpt lat="44.33698" lon="6.43044">
        <ele>1726.586</ele>
        <time>2020-10-07T10:06:04Z</time>
      </trkpt>
      <trkpt lat="44.33698" lon="6.43043">
        <ele>1727.996</ele>
        <time>2020-10-07T10:06:09Z</time>
      </trkpt>
      <trkpt lat="44.33697" lon="6.43041">
        <ele>1565.611</ele>
        <time>2020-10-07T10:06:15Z</time>
      </trkpt>
      <trkpt lat="44.33695" lon="6.43041">
        <ele>1672.394</ele>
        <time>2020-10-07T10:06:21Z</time>
      </trkpt>
      <trkpt lat="44.33695" lon="6.43041">
        <ele>1704.725</ele>
        <time>2020-10-07T10:06:27Z</time>
      </trkpt>
      <trkpt lat="44.33695" lon="6.43041">
        <ele>1709.343</ele>
        <time>2020-10-07T10:06:32Z</time>
      </trkpt>
      <trkpt lat="44.33697" lon="6.43042">
        <ele>1718.295</ele>
        <time>2020-10-07T10:06:37Z</time>
      </trkpt>
      <trkpt lat="44.33695" lon="6.43044">
        <ele>1724.032</ele>
        <time>2020-10-07T10:06:43Z</time>
      </trkpt>
      <trkpt lat="44.33695" lon="6.43047">
        <ele>1724.501</ele>
        <time>2020-10-07T10:06:48Z</time>
      </trkpt>
      <trkpt lat="44.33696" lon="6.43047">
        <ele>1723.573</ele>
        <time>2020-10-07T10:06:54Z</time>
      </trkpt>
      <trkpt lat="44.33699" lon="6.43046">
        <ele>1725.195</ele>
        <time>2020-10-07T10:07:00Z</time>
      </trkpt>
      <trkpt lat="44.337" lon="6.43044">
        <ele>1723.322</ele>
        <time>2020-10-07T10:07:05Z</time>
      </trkpt>
      <trkpt lat="44.33701" lon="6.43042">
        <ele>1723.642</ele>
        <time>2020-10-07T10:07:11Z</time>
      </trkpt>
      <trkpt lat="44.33703" lon="6.43038">
        <ele>1722.94</ele>
        <time>2020-10-07T10:07:17Z</time>
      </trkpt>
      <trkpt lat="44.33705" lon="6.43034">
        <ele>1722.202</ele>
        <time>2020-10-07T10:07:22Z</time>
      </trkpt>
      <trkpt lat="44.33702" lon="6.43031">
        <ele>1722.123</ele>
        <time>2020-10-07T10:07:28Z</time>
      </trkpt>
      <trkpt lat="44.33698" lon="6.43026">
        <ele>1720.964</ele>
        <time>2020-10-07T10:07:34Z</time>
      </trkpt>
      <trkpt lat="44.33698" lon="6.43018">
        <ele>1724.812</ele>
        <time>2020-10-07T10:07:39Z</time>
      </trkpt>
      <trkpt lat="44.33697" lon="6.43014">
        <ele>1721.285</ele>
        <time>2020-10-07T10:07:45Z</time>
      </trkpt>
      <trkpt lat="44.33699" lon="6.4301">
        <ele>1719.738</ele>
        <time>2020-10-07T10:07:50Z</time>
      </trkpt>
      <trkpt lat="44.337" lon="6.43004">
        <ele>1722.618</ele>
        <time>2020-10-07T10:07:56Z</time>
      </trkpt>
      <trkpt lat="44.337" lon="6.43001">
        <ele>1722.746</ele>
        <time>2020-10-07T10:08:01Z</time>
      </trkpt>
      <trkpt lat="44.337" lon="6.43003">
        <ele>1720.754</ele>
        <time>2020-10-07T10:08:06Z</time>
      </trkpt>
      <trkpt lat="44.33701" lon="6.43004">
        <ele>1720.043</ele>
        <time>2020-10-07T10:08:11Z</time>
      </trkpt>
      <trkpt lat="44.33701" lon="6.43003">
        <ele>1719.72</ele>
        <time>2020-10-07T10:08:17Z</time>
      </trkpt>
      <trkpt lat="44.33703" lon="6.43004">
        <ele>1715.344</ele>
        <time>2020-10-07T10:08:23Z</time>
      </trkpt>
      <trkpt lat="44.33701" lon="6.43008">
        <ele>1713.094</ele>
        <time>2020-10-07T10:08:28Z</time>
      </trkpt>
      <trkpt lat="44.33702" lon="6.43004">
        <ele>1716.484</ele>
        <time>2020-10-07T10:08:34Z</time>
      </trkpt>
      <trkpt lat="44.33703" lon="6.43">
        <ele>1713.971</ele>
        <time>2020-10-07T10:08:40Z</time>
      </trkpt>
      <trkpt lat="44.33702" lon="6.42997">
        <ele>1714.379</ele>
        <time>2020-10-07T10:08:46Z</time>
      </trkpt>
      <trkpt lat="44.33702" lon="6.42994">
        <ele>1716.322</ele>
        <time>2020-10-07T10:08:51Z</time>
      </trkpt>
      <trkpt lat="44.33704" lon="6.42992">
        <ele>1714.832</ele>
        <time>2020-10-07T10:08:56Z</time>
      </trkpt>
      <trkpt lat="44.33708" lon="6.42987">
        <ele>1712.344</ele>
        <time>2020-10-07T10:09:02Z</time>
      </trkpt>
      <trkpt lat="44.33706" lon="6.42985">
        <ele>1712.357</ele>
        <time>2020-10-07T10:09:08Z</time>
      </trkpt>
      <trkpt lat="44.33709" lon="6.42985">
        <ele>1710.951</ele>
        <time>2020-10-07T10:09:14Z</time>
      </trkpt>
      <trkpt lat="44.3371" lon="6.42987">
        <ele>1708.914</ele>
        <time>2020-10-07T10:09:20Z</time>
      </trkpt>
      <trkpt lat="44.33711" lon="6.42985">
        <ele>1706.893</ele>
        <time>2020-10-07T10:09:26Z</time>
      </trkpt>
      <trkpt lat="44.33713" lon="6.42982">
        <ele>1705.703</ele>
        <time>2020-10-07T10:09:32Z</time>
      </trkpt>
      <trkpt lat="44.33712" lon="6.42983">
        <ele>1704.469</ele>
        <time>2020-10-07T10:09:37Z</time>
      </trkpt>
      <trkpt lat="44.33713" lon="6.42982">
        <ele>1704.569</ele>
        <time>2020-10-07T10:09:43Z</time>
      </trkpt>
      <trkpt lat="44.33711" lon="6.42979">
        <ele>1703.323</ele>
        <time>2020-10-07T10:09:48Z</time>
      </trkpt>
      <trkpt lat="44.33711" lon="6.42974">
        <ele>1705.844</ele>
        <time>2020-10-07T10:09:53Z</time>
      </trkpt>
      <trkpt lat="44.33713" lon="6.42971">
        <ele>1709.411</ele>
        <time>2020-10-07T10:09:59Z</time>
      </trkpt>
      <trkpt lat="44.33711" lon="6.42971">
        <ele>1707.693</ele>
        <time>2020-10-07T10:10:05Z</time>
      </trkpt>
      <trkpt lat="44.3371" lon="6.4297">
        <ele>1711.436</ele>
        <time>2020-10-07T10:10:10Z</time>
      </trkpt>
      <trkpt lat="44.3371" lon="6.42968">
        <ele>1708.971</ele>
        <time>2020-10-07T10:10:16Z</time>
      </trkpt>
      <trkpt lat="44.33711" lon="6.4296">
        <ele>1708.102</ele>
        <time>2020-10-07T10:10:22Z</time>
      </trkpt>
      <trkpt lat="44.33713" lon="6.42957">
        <ele>1707.618</ele>
        <time>2020-10-07T10:10:27Z</time>
      </trkpt>
      <trkpt lat="44.33707" lon="6.4296">
        <ele>1705.348</ele>
        <time>2020-10-07T10:10:32Z</time>
      </trkpt>
      <trkpt lat="44.337" lon="6.42955">
        <ele>1706.681</ele>
        <time>2020-10-07T10:10:37Z</time>
      </trkpt>
      <trkpt lat="44.33698" lon="6.42954">
        <ele>1703.305</ele>
        <time>2020-10-07T10:10:42Z</time>
      </trkpt>
      <trkpt lat="44.33702" lon="6.42949">
        <ele>1703.738</ele>
        <time>2020-10-07T10:10:47Z</time>
      </trkpt>
      <trkpt lat="44.33703" lon="6.42947">
        <ele>1699.882</ele>
        <time>2020-10-07T10:10:53Z</time>
      </trkpt>
      <trkpt lat="44.33701" lon="6.42947">
        <ele>1700.396</ele>
        <time>2020-10-07T10:10:59Z</time>
      </trkpt>
      <trkpt lat="44.33701" lon="6.42947">
        <ele>1699.029</ele>
        <time>2020-10-07T10:11:04Z</time>
      </trkpt>
      <trkpt lat="44.337" lon="6.42949">
        <ele>1697.864</ele>
        <time>2020-10-07T10:11:10Z</time>
      </trkpt>
      <trkpt lat="44.337" lon="6.42957">
        <ele>1696.628</ele>
        <time>2020-10-07T10:11:16Z</time>
      </trkpt>
      <trkpt lat="44.33703" lon="6.42963">
        <ele>1698.86</ele>
        <time>2020-10-07T10:11:21Z</time>
      </trkpt>
      <trkpt lat="44.33703" lon="6.42965">
        <ele>1702.685</ele>
        <time>2020-10-07T10:11:27Z</time>
      </trkpt>
      <trkpt lat="44.33702" lon="6.42962">
        <ele>1701.175</ele>
        <time>2020-10-07T10:11:32Z</time>
      </trkpt>
      <trkpt lat="44.33701" lon="6.42962">
        <ele>1701.191</ele>
        <time>2020-10-07T10:11:37Z</time>
      </trkpt>
      <trkpt lat="44.33702" lon="6.42965">
        <ele>1701.229</ele>
        <time>2020-10-07T10:11:43Z</time>
      </trkpt>
      <trkpt lat="44.33702" lon="6.42965">
        <ele>1701.761</ele>
        <time>2020-10-07T10:11:49Z</time>
      </trkpt>
      <trkpt lat="44.33702" lon="6.42965">
        <ele>1701.771</ele>
        <time>2020-10-07T10:11:55Z</time>
      </trkpt>
      <trkpt lat="44.33702" lon="6.42965">
        <ele>1701.771</ele>
        <time>2020-10-07T10:12:01Z</time>
      </trkpt>
      <trkpt lat="44.33704" lon="6.42968">
        <ele>1704.271</ele>
        <time>2020-10-07T10:12:06Z</time>
      </trkpt>
      <trkpt lat="44.33705" lon="6.4297">
        <ele>1704.212</ele>
        <time>2020-10-07T10:12:12Z</time>
      </trkpt>
      <trkpt lat="44.33707" lon="6.42971">
        <ele>1705.899</ele>
        <time>2020-10-07T10:12:18Z</time>
      </trkpt>
      <trkpt lat="44.33707" lon="6.42971">
        <ele>1705.974</ele>
        <time>2020-10-07T10:12:23Z</time>
      </trkpt>
      <trkpt lat="44.33707" lon="6.42972">
        <ele>1705.991</ele>
        <time>2020-10-07T10:12:29Z</time>
      </trkpt>
      <trkpt lat="44.33707" lon="6.42971">
        <ele>1705.357</ele>
        <time>2020-10-07T10:12:35Z</time>
      </trkpt>
      <trkpt lat="44.33708" lon="6.42979">
        <ele>1710.56</ele>
        <time>2020-10-07T10:12:41Z</time>
      </trkpt>
      <trkpt lat="44.33707" lon="6.42987">
        <ele>1705.728</ele>
        <time>2020-10-07T10:12:47Z</time>
      </trkpt>
      <trkpt lat="44.33709" lon="6.4299">
        <ele>1704.133</ele>
        <time>2020-10-07T10:12:52Z</time>
      </trkpt>
      <trkpt lat="44.33709" lon="6.42995">
        <ele>1703.01</ele>
        <time>2020-10-07T10:12:57Z</time>
      </trkpt>
      <trkpt lat="44.33711" lon="6.42999">
        <ele>1702.417</ele>
        <time>2020-10-07T10:13:03Z</time>
      </trkpt>
      <trkpt lat="44.33715" lon="6.43">
        <ele>1703.425</ele>
        <time>2020-10-07T10:13:09Z</time>
      </trkpt>
      <trkpt lat="44.33713" lon="6.43003">
        <ele>1702.666</ele>
        <time>2020-10-07T10:13:15Z</time>
      </trkpt>
      <trkpt lat="44.33711" lon="6.43006">
        <ele>1699.095</ele>
        <time>2020-10-07T10:13:21Z</time>
      </trkpt>
      <trkpt lat="44.33712" lon="6.43006">
        <ele>1699.377</ele>
        <time>2020-10-07T10:13:27Z</time>
      </trkpt>
      <trkpt lat="44.33714" lon="6.43007">
        <ele>1699.244</ele>
        <time>2020-10-07T10:13:33Z</time>
      </trkpt>
      <trkpt lat="44.33709" lon="6.43008">
        <ele>1694.964</ele>
        <time>2020-10-07T10:13:38Z</time>
      </trkpt>
      <trkpt lat="44.33709" lon="6.43006">
        <ele>1698</ele>
        <time>2020-10-07T10:13:44Z</time>
      </trkpt>
      <trkpt lat="44.3371" lon="6.43007">
        <ele>1698.363</ele>
        <time>2020-10-07T10:13:50Z</time>
      </trkpt>
      <trkpt lat="44.3371" lon="6.43008">
        <ele>1699.024</ele>
        <time>2020-10-07T10:13:56Z</time>
      </trkpt>
      <trkpt lat="44.33711" lon="6.43009">
        <ele>1699.572</ele>
        <time>2020-10-07T10:14:01Z</time>
      </trkpt>
      <trkpt lat="44.33715" lon="6.43015">
        <ele>1698.364</ele>
        <time>2020-10-07T10:14:07Z</time>
      </trkpt>
      <trkpt lat="44.33714" lon="6.43017">
        <ele>1701.812</ele>
        <time>2020-10-07T10:14:12Z</time>
      </trkpt>
      <trkpt lat="44.33716" lon="6.4302">
        <ele>1701.752</ele>
        <time>2020-10-07T10:14:18Z</time>
      </trkpt>
      <trkpt lat="44.33714" lon="6.4302">
        <ele>1705.856</ele>
        <time>2020-10-07T10:14:23Z</time>
      </trkpt>
      <trkpt lat="44.33714" lon="6.43022">
        <ele>1707.332</ele>
        <time>2020-10-07T10:14:28Z</time>
      </trkpt>
      <trkpt lat="44.33714" lon="6.43023">
        <ele>1706.447</ele>
        <time>2020-10-07T10:14:34Z</time>
      </trkpt>
      <trkpt lat="44.33715" lon="6.43023">
        <ele>1705.309</ele>
        <time>2020-10-07T10:14:40Z</time>
      </trkpt>
      <trkpt lat="44.33714" lon="6.43025">
        <ele>1701.921</ele>
        <time>2020-10-07T10:14:46Z</time>
      </trkpt>
      <trkpt lat="44.33716" lon="6.43028">
        <ele>1700.769</ele>
        <time>2020-10-07T10:14:52Z</time>
      </trkpt>
      <trkpt lat="44.33716" lon="6.43029">
        <ele>1701.933</ele>
        <time>2020-10-07T10:14:58Z</time>
      </trkpt>
      <trkpt lat="44.33716" lon="6.43029">
        <ele>1701.545</ele>
        <time>2020-10-07T10:15:04Z</time>
      </trkpt>
      <trkpt lat="44.33716" lon="6.43029">
        <ele>1701.587</ele>
        <time>2020-10-07T10:15:09Z</time>
      </trkpt>
      <trkpt lat="44.33716" lon="6.43029">
        <ele>1701.562</ele>
        <time>2020-10-07T10:15:15Z</time>
      </trkpt>
      <trkpt lat="44.33717" lon="6.43029">
        <ele>1703.154</ele>
        <time>2020-10-07T10:15:21Z</time>
      </trkpt>
      <trkpt lat="44.33719" lon="6.43027">
        <ele>1706.47</ele>
        <time>2020-10-07T10:15:27Z</time>
      </trkpt>
      <trkpt lat="44.33718" lon="6.43025">
        <ele>1707.354</ele>
        <time>2020-10-07T10:15:32Z</time>
      </trkpt>
      <trkpt lat="44.33716" lon="6.43026">
        <ele>1709.948</ele>
        <time>2020-10-07T10:15:38Z</time>
      </trkpt>
      <trkpt lat="44.33715" lon="6.43027">
        <ele>1706.912</ele>
        <time>2020-10-07T10:15:44Z</time>
      </trkpt>
      <trkpt lat="44.33715" lon="6.43028">
        <ele>1705.356</ele>
        <time>2020-10-07T10:15:49Z</time>
      </trkpt>
      <trkpt lat="44.33715" lon="6.43028">
        <ele>1705.535</ele>
        <time>2020-10-07T10:15:54Z</time>
      </trkpt>
      <trkpt lat="44.33714" lon="6.43027">
        <ele>1706.977</ele>
        <time>2020-10-07T10:15:59Z</time>
      </trkpt>
      <trkpt lat="44.33714" lon="6.43018">
        <ele>1707.537</ele>
        <time>2020-10-07T10:16:05Z</time>
      </trkpt>
      <trkpt lat="44.33713" lon="6.43015">
        <ele>1708.734</ele>
        <time>2020-10-07T10:16:10Z</time>
      </trkpt>
      <trkpt lat="44.33713" lon="6.43013">
        <ele>1709.059</ele>
        <time>2020-10-07T10:16:16Z</time>
      </trkpt>
      <trkpt lat="44.33713" lon="6.4301">
        <ele>1710.609</ele>
        <time>2020-10-07T10:16:22Z</time>
      </trkpt>
      <trkpt lat="44.33713" lon="6.43006">
        <ele>1712.336</ele>
        <time>2020-10-07T10:16:27Z</time>
      </trkpt>
      <trkpt lat="44.33712" lon="6.43005">
        <ele>1710.207</ele>
        <time>2020-10-07T10:16:32Z</time>
      </trkpt>
      <trkpt lat="44.33711" lon="6.43005">
        <ele>1710.029</ele>
        <time>2020-10-07T10:16:38Z</time>
      </trkpt>
      <trkpt lat="44.33711" lon="6.43006">
        <ele>1708.898</ele>
        <time>2020-10-07T10:16:43Z</time>
      </trkpt>
      <trkpt lat="44.33713" lon="6.43005">
        <ele>1710.055</ele>
        <time>2020-10-07T10:16:49Z</time>
      </trkpt>
      <trkpt lat="44.33711" lon="6.43005">
        <ele>1708.78</ele>
        <time>2020-10-07T10:16:54Z</time>
      </trkpt>
      <trkpt lat="44.33712" lon="6.43003">
        <ele>1708.327</ele>
        <time>2020-10-07T10:16:59Z</time>
      </trkpt>
      <trkpt lat="44.33711" lon="6.43004">
        <ele>1707.7</ele>
        <time>2020-10-07T10:17:04Z</time>
      </trkpt>
      <trkpt lat="44.3371" lon="6.43005">
        <ele>1705.615</ele>
        <time>2020-10-07T10:17:10Z</time>
      </trkpt>
      <trkpt lat="44.33712" lon="6.43004">
        <ele>1706.37</ele>
        <time>2020-10-07T10:17:15Z</time>
      </trkpt>
      <trkpt lat="44.33713" lon="6.43002">
        <ele>1701.187</ele>
        <time>2020-10-07T10:17:20Z</time>
      </trkpt>
      <trkpt lat="44.33711" lon="6.42996">
        <ele>1698.985</ele>
        <time>2020-10-07T10:17:26Z</time>
      </trkpt>
      <trkpt lat="44.33711" lon="6.42995">
        <ele>1701.871</ele>
        <time>2020-10-07T10:17:31Z</time>
      </trkpt>
      <trkpt lat="44.33706" lon="6.42995">
        <ele>1700.449</ele>
        <time>2020-10-07T10:17:37Z</time>
      </trkpt>
      <trkpt lat="44.33701" lon="6.42995">
        <ele>1699.112</ele>
        <time>2020-10-07T10:17:43Z</time>
      </trkpt>
      <trkpt lat="44.33702" lon="6.42994">
        <ele>1705.032</ele>
        <time>2020-10-07T10:17:49Z</time>
      </trkpt>
      <trkpt lat="44.337" lon="6.42989">
        <ele>1702.336</ele>
        <time>2020-10-07T10:17:54Z</time>
      </trkpt>
      <trkpt lat="44.33699" lon="6.42985">
        <ele>1709.054</ele>
        <time>2020-10-07T10:18:00Z</time>
      </trkpt>
      <trkpt lat="44.33702" lon="6.42984">
        <ele>1703.004</ele>
        <time>2020-10-07T10:18:06Z</time>
      </trkpt>
      <trkpt lat="44.33706" lon="6.42979">
        <ele>1702.025</ele>
        <time>2020-10-07T10:18:11Z</time>
      </trkpt>
      <trkpt lat="44.33708" lon="6.42973">
        <ele>1704.479</ele>
        <time>2020-10-07T10:18:17Z</time>
      </trkpt>
      <trkpt lat="44.33708" lon="6.42971">
        <ele>1704.06</ele>
        <time>2020-10-07T10:18:22Z</time>
      </trkpt>
      <trkpt lat="44.33708" lon="6.42968">
        <ele>1702.125</ele>
        <time>2020-10-07T10:18:27Z</time>
      </trkpt>
      <trkpt lat="44.33708" lon="6.42963">
        <ele>1698.934</ele>
        <time>2020-10-07T10:18:33Z</time>
      </trkpt>
      <trkpt lat="44.33702" lon="6.42958">
        <ele>1697.224</ele>
        <time>2020-10-07T10:18:38Z</time>
      </trkpt>
      <trkpt lat="44.33702" lon="6.42952">
        <ele>1698.59</ele>
        <time>2020-10-07T10:18:43Z</time>
      </trkpt>
      <trkpt lat="44.33702" lon="6.42947">
        <ele>1698.742</ele>
        <time>2020-10-07T10:18:49Z</time>
      </trkpt>
      <trkpt lat="44.33701" lon="6.42944">
        <ele>1616.323</ele>
        <time>2020-10-07T10:18:54Z</time>
      </trkpt>
      <trkpt lat="44.33701" lon="6.4294">
        <ele>1666.868</ele>
        <time>2020-10-07T10:19:00Z</time>
      </trkpt>
      <trkpt lat="44.33702" lon="6.42935">
        <ele>1691.256</ele>
        <time>2020-10-07T10:19:05Z</time>
      </trkpt>
      <trkpt lat="44.33701" lon="6.42928">
        <ele>1697.748</ele>
        <time>2020-10-07T10:19:11Z</time>
      </trkpt>
      <trkpt lat="44.33701" lon="6.42923">
        <ele>1697.518</ele>
        <time>2020-10-07T10:19:17Z</time>
      </trkpt>
      <trkpt lat="44.33701" lon="6.42919">
        <ele>1698.32</ele>
        <time>2020-10-07T10:19:22Z</time>
      </trkpt>
      <trkpt lat="44.337" lon="6.42919">
        <ele>1697.684</ele>
        <time>2020-10-07T10:19:28Z</time>
      </trkpt>
      <trkpt lat="44.33698" lon="6.42916">
        <ele>1698.357</ele>
        <time>2020-10-07T10:19:34Z</time>
      </trkpt>
      <trkpt lat="44.33698" lon="6.42913">
        <ele>1699.667</ele>
        <time>2020-10-07T10:19:40Z</time>
      </trkpt>
      <trkpt lat="44.33696" lon="6.42912">
        <ele>1696.798</ele>
        <time>2020-10-07T10:19:45Z</time>
      </trkpt>
      <trkpt lat="44.337" lon="6.42904">
        <ele>1700.585</ele>
        <time>2020-10-07T10:19:51Z</time>
      </trkpt>
      <trkpt lat="44.33699" lon="6.42897">
        <ele>1699.47</ele>
        <time>2020-10-07T10:19:56Z</time>
      </trkpt>
      <trkpt lat="44.33698" lon="6.42893">
        <ele>1700.946</ele>
        <time>2020-10-07T10:20:02Z</time>
      </trkpt>
      <trkpt lat="44.33698" lon="6.42892">
        <ele>1700.935</ele>
        <time>2020-10-07T10:20:07Z</time>
      </trkpt>
      <trkpt lat="44.33698" lon="6.42888">
        <ele>1704.28</ele>
        <time>2020-10-07T10:20:12Z</time>
      </trkpt>
      <trkpt lat="44.33696" lon="6.42884">
        <ele>1706.718</ele>
        <time>2020-10-07T10:20:18Z</time>
      </trkpt>
      <trkpt lat="44.33696" lon="6.42883">
        <ele>1708.436</ele>
        <time>2020-10-07T10:20:24Z</time>
      </trkpt>
      <trkpt lat="44.33696" lon="6.42881">
        <ele>1711.317</ele>
        <time>2020-10-07T10:20:30Z</time>
      </trkpt>
      <trkpt lat="44.33694" lon="6.42876">
        <ele>1714.32</ele>
        <time>2020-10-07T10:20:36Z</time>
      </trkpt>
      <trkpt lat="44.33692" lon="6.42874">
        <ele>1715.879</ele>
        <time>2020-10-07T10:20:42Z</time>
      </trkpt>
      <trkpt lat="44.33693" lon="6.42875">
        <ele>1716.081</ele>
        <time>2020-10-07T10:20:47Z</time>
      </trkpt>
      <trkpt lat="44.33693" lon="6.42875">
        <ele>1715.499</ele>
        <time>2020-10-07T10:20:53Z</time>
      </trkpt>
      <trkpt lat="44.33694" lon="6.42876">
        <ele>1713.851</ele>
        <time>2020-10-07T10:20:59Z</time>
      </trkpt>
      <trkpt lat="44.33694" lon="6.42876">
        <ele>1714.245</ele>
        <time>2020-10-07T10:21:05Z</time>
      </trkpt>
      <trkpt lat="44.33694" lon="6.42876">
        <ele>1714.402</ele>
        <time>2020-10-07T10:21:10Z</time>
      </trkpt>
      <trkpt lat="44.33694" lon="6.42876">
        <ele>1714.414</ele>
        <time>2020-10-07T10:21:16Z</time>
      </trkpt>
      <trkpt lat="44.33692" lon="6.42876">
        <ele>1712.622</ele>
        <time>2020-10-07T10:21:22Z</time>
      </trkpt>
      <trkpt lat="44.33692" lon="6.42876">
        <ele>1715.674</ele>
        <time>2020-10-07T10:21:27Z</time>
      </trkpt>
      <trkpt lat="44.33692" lon="6.42875">
        <ele>1717.565</ele>
        <time>2020-10-07T10:21:33Z</time>
      </trkpt>
      <trkpt lat="44.33693" lon="6.42874">
        <ele>1717.897</ele>
        <time>2020-10-07T10:21:38Z</time>
      </trkpt>
      <trkpt lat="44.33693" lon="6.42873">
        <ele>1628.644</ele>
        <time>2020-10-07T10:21:44Z</time>
      </trkpt>
      <trkpt lat="44.33693" lon="6.42873">
        <ele>1700.409</ele>
        <time>2020-10-07T10:21:50Z</time>
      </trkpt>
      <trkpt lat="44.33693" lon="6.42873">
        <ele>1612.581</ele>
        <time>2020-10-07T10:21:56Z</time>
      </trkpt>
      <trkpt lat="44.33694" lon="6.42876">
        <ele>1688.193</ele>
        <time>2020-10-07T10:22:01Z</time>
      </trkpt>
      <trkpt lat="44.33696" lon="6.42881">
        <ele>1698.97</ele>
        <time>2020-10-07T10:22:06Z</time>
      </trkpt>
      <trkpt lat="44.33691" lon="6.42886">
        <ele>1707.738</ele>
        <time>2020-10-07T10:22:12Z</time>
      </trkpt>
      <trkpt lat="44.33691" lon="6.42888">
        <ele>1715.13</ele>
        <time>2020-10-07T10:22:17Z</time>
      </trkpt>
      <trkpt lat="44.33692" lon="6.42897">
        <ele>1717.121</ele>
        <time>2020-10-07T10:22:22Z</time>
      </trkpt>
      <trkpt lat="44.3369" lon="6.42903">
        <ele>1713.63</ele>
        <time>2020-10-07T10:22:28Z</time>
      </trkpt>
      <trkpt lat="44.3369" lon="6.42904">
        <ele>1713.002</ele>
        <time>2020-10-07T10:22:33Z</time>
      </trkpt>
      <trkpt lat="44.33697" lon="6.42908">
        <ele>1716.27</ele>
        <time>2020-10-07T10:22:39Z</time>
      </trkpt>
      <trkpt lat="44.33694" lon="6.42911">
        <ele>1715.76</ele>
        <time>2020-10-07T10:22:44Z</time>
      </trkpt>
      <trkpt lat="44.33688" lon="6.42913">
        <ele>1710.211</ele>
        <time>2020-10-07T10:22:50Z</time>
      </trkpt>
      <trkpt lat="44.33683" lon="6.42918">
        <ele>1712.275</ele>
        <time>2020-10-07T10:22:55Z</time>
      </trkpt>
      <trkpt lat="44.33681" lon="6.42919">
        <ele>1713.307</ele>
        <time>2020-10-07T10:23:01Z</time>
      </trkpt>
      <trkpt lat="44.33682" lon="6.42917">
        <ele>1715.693</ele>
        <time>2020-10-07T10:23:07Z</time>
      </trkpt>
      <trkpt lat="44.33687" lon="6.42918">
        <ele>1713.097</ele>
        <time>2020-10-07T10:23:13Z</time>
      </trkpt>
      <trkpt lat="44.33685" lon="6.42914">
        <ele>1712.188</ele>
        <time>2020-10-07T10:23:19Z</time>
      </trkpt>
      <trkpt lat="44.33684" lon="6.42909">
        <ele>1713.319</ele>
        <time>2020-10-07T10:23:24Z</time>
      </trkpt>
      <trkpt lat="44.33683" lon="6.42907">
        <ele>1714.065</ele>
        <time>2020-10-07T10:23:29Z</time>
      </trkpt>
      <trkpt lat="44.33686" lon="6.4291">
        <ele>1714.618</ele>
        <time>2020-10-07T10:23:35Z</time>
      </trkpt>
      <trkpt lat="44.33689" lon="6.42907">
        <ele>1713.569</ele>
        <time>2020-10-07T10:23:41Z</time>
      </trkpt>
      <trkpt lat="44.33691" lon="6.42906">
        <ele>1712.821</ele>
        <time>2020-10-07T10:23:47Z</time>
      </trkpt>
      <trkpt lat="44.33689" lon="6.429">
        <ele>1712.767</ele>
        <time>2020-10-07T10:23:52Z</time>
      </trkpt>
      <trkpt lat="44.33694" lon="6.429">
        <ele>1714.911</ele>
        <time>2020-10-07T10:23:58Z</time>
      </trkpt>
      <trkpt lat="44.33697" lon="6.42892">
        <ele>1711.552</ele>
        <time>2020-10-07T10:24:04Z</time>
      </trkpt>
      <trkpt lat="44.33699" lon="6.42886">
        <ele>1709.562</ele>
        <time>2020-10-07T10:24:10Z</time>
      </trkpt>
      <trkpt lat="44.33697" lon="6.42882">
        <ele>1710.477</ele>
        <time>2020-10-07T10:24:15Z</time>
      </trkpt>
      <trkpt lat="44.33696" lon="6.42881">
        <ele>1709.508</ele>
        <time>2020-10-07T10:24:21Z</time>
      </trkpt>
      <trkpt lat="44.33689" lon="6.42878">
        <ele>1711.436</ele>
        <time>2020-10-07T10:24:26Z</time>
      </trkpt>
      <trkpt lat="44.33688" lon="6.42872">
        <ele>1709.912</ele>
        <time>2020-10-07T10:24:32Z</time>
      </trkpt>
      <trkpt lat="44.33687" lon="6.42875">
        <ele>1709.534</ele>
        <time>2020-10-07T10:24:37Z</time>
      </trkpt>
    </trkseg>
  </trk>
  <trk>
    <name><![CDATA[CascadeDeLaPicheSentiersEtHor-sentier_2]]></name>
    <trkseg>
      <trkpt lat="44.3363" lon="6.42718">
        <ele>1723.539</ele>
        <time>2020-10-07T10:30:38Z</time>
      </trkpt>
      <trkpt lat="44.33631" lon="6.42722">
        <ele>1724.893</ele>
        <time>2020-10-07T10:30:43Z</time>
      </trkpt>
      <trkpt lat="44.33629" lon="6.4272">
        <ele>1723.813</ele>
        <time>2020-10-07T10:30:49Z</time>
      </trkpt>
      <trkpt lat="44.33628" lon="6.4272">
        <ele>1722.124</ele>
        <time>2020-10-07T10:30:54Z</time>
      </trkpt>
      <trkpt lat="44.33627" lon="6.42728">
        <ele>1721.031</ele>
        <time>2020-10-07T10:31:00Z</time>
      </trkpt>
      <trkpt lat="44.33626" lon="6.42736">
        <ele>1717.404</ele>
        <time>2020-10-07T10:31:06Z</time>
      </trkpt>
      <trkpt lat="44.3362" lon="6.42741">
        <ele>1713.101</ele>
        <time>2020-10-07T10:31:12Z</time>
      </trkpt>
      <trkpt lat="44.33622" lon="6.42749">
        <ele>1710.377</ele>
        <time>2020-10-07T10:31:18Z</time>
      </trkpt>
      <trkpt lat="44.33623" lon="6.42749">
        <ele>1710.266</ele>
        <time>2020-10-07T10:31:24Z</time>
      </trkpt>
      <trkpt lat="44.33623" lon="6.42759">
        <ele>1710.024</ele>
        <time>2020-10-07T10:31:30Z</time>
      </trkpt>
      <trkpt lat="44.33619" lon="6.42763">
        <ele>1707.924</ele>
        <time>2020-10-07T10:31:36Z</time>
      </trkpt>
      <trkpt lat="44.33619" lon="6.42765">
        <ele>1712.093</ele>
        <time>2020-10-07T10:31:42Z</time>
      </trkpt>
      <trkpt lat="44.33617" lon="6.42766">
        <ele>1712.54</ele>
        <time>2020-10-07T10:31:48Z</time>
      </trkpt>
      <trkpt lat="44.33615" lon="6.42768">
        <ele>1714.043</ele>
        <time>2020-10-07T10:31:54Z</time>
      </trkpt>
      <trkpt lat="44.33616" lon="6.42775">
        <ele>1714.104</ele>
        <time>2020-10-07T10:31:59Z</time>
      </trkpt>
      <trkpt lat="44.33619" lon="6.4278">
        <ele>1711.844</ele>
        <time>2020-10-07T10:32:05Z</time>
      </trkpt>
      <trkpt lat="44.33617" lon="6.42779">
        <ele>1709.048</ele>
        <time>2020-10-07T10:32:11Z</time>
      </trkpt>
      <trkpt lat="44.33617" lon="6.42779">
        <ele>1711.741</ele>
        <time>2020-10-07T10:32:17Z</time>
      </trkpt>
      <trkpt lat="44.33617" lon="6.42778">
        <ele>1494.373</ele>
        <time>2020-10-07T10:32:23Z</time>
      </trkpt>
      <trkpt lat="44.33619" lon="6.42787">
        <ele>1639.952</ele>
        <time>2020-10-07T10:32:29Z</time>
      </trkpt>
      <trkpt lat="44.33622" lon="6.42793">
        <ele>1685.556</ele>
        <time>2020-10-07T10:32:35Z</time>
      </trkpt>
      <trkpt lat="44.33621" lon="6.42798">
        <ele>1691.997</ele>
        <time>2020-10-07T10:32:41Z</time>
      </trkpt>
      <trkpt lat="44.33614" lon="6.42798">
        <ele>1704.1</ele>
        <time>2020-10-07T10:32:46Z</time>
      </trkpt>
      <trkpt lat="44.33614" lon="6.42804">
        <ele>1719.291</ele>
        <time>2020-10-07T10:32:52Z</time>
      </trkpt>
      <trkpt lat="44.33618" lon="6.42814">
        <ele>1721.022</ele>
        <time>2020-10-07T10:32:57Z</time>
      </trkpt>
      <trkpt lat="44.33619" lon="6.42817">
        <ele>1720.723</ele>
        <time>2020-10-07T10:33:02Z</time>
      </trkpt>
      <trkpt lat="44.33618" lon="6.42821">
        <ele>1716.223</ele>
        <time>2020-10-07T10:33:08Z</time>
      </trkpt>
      <trkpt lat="44.33621" lon="6.42833">
        <ele>1713.526</ele>
        <time>2020-10-07T10:33:14Z</time>
      </trkpt>
      <trkpt lat="44.33624" lon="6.42838">
        <ele>1715.852</ele>
        <time>2020-10-07T10:33:19Z</time>
      </trkpt>
      <trkpt lat="44.33623" lon="6.4284">
        <ele>1718.888</ele>
        <time>2020-10-07T10:33:24Z</time>
      </trkpt>
      <trkpt lat="44.33626" lon="6.42842">
        <ele>1725.296</ele>
        <time>2020-10-07T10:33:29Z</time>
      </trkpt>
      <trkpt lat="44.33628" lon="6.42845">
        <ele>1727.317</ele>
        <time>2020-10-07T10:33:35Z</time>
      </trkpt>
      <trkpt lat="44.33626" lon="6.4285">
        <ele>1544.741</ele>
        <time>2020-10-07T10:33:40Z</time>
      </trkpt>
      <trkpt lat="44.33626" lon="6.42856">
        <ele>1667.088</ele>
        <time>2020-10-07T10:33:46Z</time>
      </trkpt>
      <trkpt lat="44.3363" lon="6.42859">
        <ele>1709.105</ele>
        <time>2020-10-07T10:33:52Z</time>
      </trkpt>
      <trkpt lat="44.33633" lon="6.42861">
        <ele>1720.354</ele>
        <time>2020-10-07T10:33:57Z</time>
      </trkpt>
      <trkpt lat="44.33633" lon="6.42862">
        <ele>1723.907</ele>
        <time>2020-10-07T10:34:02Z</time>
      </trkpt>
      <trkpt lat="44.33632" lon="6.42861">
        <ele>1722.979</ele>
        <time>2020-10-07T10:34:07Z</time>
      </trkpt>
      <trkpt lat="44.33632" lon="6.42861">
        <ele>1726.653</ele>
        <time>2020-10-07T10:34:13Z</time>
      </trkpt>
      <trkpt lat="44.33632" lon="6.42861">
        <ele>1729.097</ele>
        <time>2020-10-07T10:34:19Z</time>
      </trkpt>
      <trkpt lat="44.33632" lon="6.42861">
        <ele>1729.901</ele>
        <time>2020-10-07T10:34:25Z</time>
      </trkpt>
      <trkpt lat="44.33633" lon="6.42863">
        <ele>1730.063</ele>
        <time>2020-10-07T10:34:31Z</time>
      </trkpt>
      <trkpt lat="44.33635" lon="6.42867">
        <ele>1727.465</ele>
        <time>2020-10-07T10:34:37Z</time>
      </trkpt>
      <trkpt lat="44.33639" lon="6.42873">
        <ele>1728.183</ele>
        <time>2020-10-07T10:34:42Z</time>
      </trkpt>
      <trkpt lat="44.33644" lon="6.42877">
        <ele>1725.436</ele>
        <time>2020-10-07T10:34:48Z</time>
      </trkpt>
      <trkpt lat="44.33648" lon="6.42883">
        <ele>1728.037</ele>
        <time>2020-10-07T10:34:53Z</time>
      </trkpt>
      <trkpt lat="44.3365" lon="6.42888">
        <ele>1729.766</ele>
        <time>2020-10-07T10:34:59Z</time>
      </trkpt>
      <trkpt lat="44.33654" lon="6.42894">
        <ele>1732.906</ele>
        <time>2020-10-07T10:35:04Z</time>
      </trkpt>
      <trkpt lat="44.33653" lon="6.42893">
        <ele>1736.86</ele>
        <time>2020-10-07T10:35:09Z</time>
      </trkpt>
      <trkpt lat="44.33655" lon="6.42896">
        <ele>1738.805</ele>
        <time>2020-10-07T10:35:14Z</time>
      </trkpt>
      <trkpt lat="44.33654" lon="6.42899">
        <ele>1736.021</ele>
        <time>2020-10-07T10:35:20Z</time>
      </trkpt>
      <trkpt lat="44.33654" lon="6.42899">
        <ele>1737.995</ele>
        <time>2020-10-07T10:35:25Z</time>
      </trkpt>
      <trkpt lat="44.33657" lon="6.42898">
        <ele>1736.566</ele>
        <time>2020-10-07T10:35:30Z</time>
      </trkpt>
      <trkpt lat="44.33652" lon="6.42897">
        <ele>1735.765</ele>
        <time>2020-10-07T10:35:36Z</time>
      </trkpt>
      <trkpt lat="44.3365" lon="6.42901">
        <ele>1729.297</ele>
        <time>2020-10-07T10:35:41Z</time>
      </trkpt>
      <trkpt lat="44.33649" lon="6.42906">
        <ele>1728.341</ele>
        <time>2020-10-07T10:35:47Z</time>
      </trkpt>
      <trkpt lat="44.33648" lon="6.42906">
        <ele>1731.015</ele>
        <time>2020-10-07T10:35:52Z</time>
      </trkpt>
      <trkpt lat="44.33647" lon="6.42905">
        <ele>1733.041</ele>
        <time>2020-10-07T10:35:58Z</time>
      </trkpt>
      <trkpt lat="44.33648" lon="6.4291">
        <ele>1735.497</ele>
        <time>2020-10-07T10:36:03Z</time>
      </trkpt>
      <trkpt lat="44.33644" lon="6.42912">
        <ele>1740.646</ele>
        <time>2020-10-07T10:36:09Z</time>
      </trkpt>
      <trkpt lat="44.33644" lon="6.42911">
        <ele>1737.705</ele>
        <time>2020-10-07T10:36:17Z</time>
      </trkpt>
      <trkpt lat="44.33644" lon="6.42912">
        <ele>1741.885</ele>
        <time>2020-10-07T10:36:22Z</time>
      </trkpt>
      <trkpt lat="44.33642" lon="6.42906">
        <ele>1740.57</ele>
        <time>2020-10-07T10:36:27Z</time>
      </trkpt>
      <trkpt lat="44.33643" lon="6.42906">
        <ele>1741.059</ele>
        <time>2020-10-07T10:36:33Z</time>
      </trkpt>
      <trkpt lat="44.33644" lon="6.42906">
        <ele>1741.543</ele>
        <time>2020-10-07T10:36:38Z</time>
      </trkpt>
      <trkpt lat="44.3364" lon="6.42906">
        <ele>1739.901</ele>
        <time>2020-10-07T10:36:44Z</time>
      </trkpt>
      <trkpt lat="44.33641" lon="6.42921">
        <ele>1738.01</ele>
        <time>2020-10-07T10:36:50Z</time>
      </trkpt>
      <trkpt lat="44.3364" lon="6.42933">
        <ele>1736.365</ele>
        <time>2020-10-07T10:36:56Z</time>
      </trkpt>
      <trkpt lat="44.33641" lon="6.42936">
        <ele>1735.145</ele>
        <time>2020-10-07T10:37:02Z</time>
      </trkpt>
      <trkpt lat="44.33642" lon="6.42939">
        <ele>1733.739</ele>
        <time>2020-10-07T10:37:07Z</time>
      </trkpt>
      <trkpt lat="44.33645" lon="6.4294">
        <ele>1733.317</ele>
        <time>2020-10-07T10:37:13Z</time>
      </trkpt>
      <trkpt lat="44.33646" lon="6.42944">
        <ele>1733.418</ele>
        <time>2020-10-07T10:37:19Z</time>
      </trkpt>
      <trkpt lat="44.33646" lon="6.42947">
        <ele>1730.695</ele>
        <time>2020-10-07T10:37:24Z</time>
      </trkpt>
      <trkpt lat="44.33646" lon="6.42949">
        <ele>1729.116</ele>
        <time>2020-10-07T10:37:29Z</time>
      </trkpt>
      <trkpt lat="44.33651" lon="6.42954">
        <ele>1729.593</ele>
        <time>2020-10-07T10:37:35Z</time>
      </trkpt>
      <trkpt lat="44.33653" lon="6.42957">
        <ele>1728.964</ele>
        <time>2020-10-07T10:37:41Z</time>
      </trkpt>
      <trkpt lat="44.33654" lon="6.42958">
        <ele>1729.386</ele>
        <time>2020-10-07T10:37:47Z</time>
      </trkpt>
      <trkpt lat="44.33658" lon="6.4296">
        <ele>1729.41</ele>
        <time>2020-10-07T10:37:52Z</time>
      </trkpt>
      <trkpt lat="44.33666" lon="6.42967">
        <ele>1729.545</ele>
        <time>2020-10-07T10:37:58Z</time>
      </trkpt>
      <trkpt lat="44.33668" lon="6.42972">
        <ele>1727.232</ele>
        <time>2020-10-07T10:38:04Z</time>
      </trkpt>
      <trkpt lat="44.33666" lon="6.42975">
        <ele>1726.361</ele>
        <time>2020-10-07T10:38:09Z</time>
      </trkpt>
      <trkpt lat="44.33666" lon="6.42977">
        <ele>1725.307</ele>
        <time>2020-10-07T10:38:15Z</time>
      </trkpt>
      <trkpt lat="44.33665" lon="6.42983">
        <ele>1727.617</ele>
        <time>2020-10-07T10:38:21Z</time>
      </trkpt>
      <trkpt lat="44.33666" lon="6.42993">
        <ele>1727.045</ele>
        <time>2020-10-07T10:38:27Z</time>
      </trkpt>
      <trkpt lat="44.33665" lon="6.42995">
        <ele>1727.532</ele>
        <time>2020-10-07T10:38:32Z</time>
      </trkpt>
      <trkpt lat="44.33669" lon="6.43001">
        <ele>1729.068</ele>
        <time>2020-10-07T10:38:38Z</time>
      </trkpt>
      <trkpt lat="44.33673" lon="6.43012">
        <ele>1728.522</ele>
        <time>2020-10-07T10:38:44Z</time>
      </trkpt>
      <trkpt lat="44.33667" lon="6.43015">
        <ele>1727.104</ele>
        <time>2020-10-07T10:38:50Z</time>
      </trkpt>
      <trkpt lat="44.33669" lon="6.43024">
        <ele>1725.28</ele>
        <time>2020-10-07T10:38:55Z</time>
      </trkpt>
      <trkpt lat="44.33671" lon="6.43029">
        <ele>1730.267</ele>
        <time>2020-10-07T10:39:01Z</time>
      </trkpt>
      <trkpt lat="44.33675" lon="6.43035">
        <ele>1733.116</ele>
        <time>2020-10-07T10:39:07Z</time>
      </trkpt>
      <trkpt lat="44.33677" lon="6.4304">
        <ele>1731.675</ele>
        <time>2020-10-07T10:39:13Z</time>
      </trkpt>
      <trkpt lat="44.33682" lon="6.43046">
        <ele>1735.78</ele>
        <time>2020-10-07T10:39:19Z</time>
      </trkpt>
      <trkpt lat="44.33677" lon="6.43043">
        <ele>1736.689</ele>
        <time>2020-10-07T10:39:25Z</time>
      </trkpt>
      <trkpt lat="44.33674" lon="6.4305">
        <ele>1735.032</ele>
        <time>2020-10-07T10:39:31Z</time>
      </trkpt>
      <trkpt lat="44.33668" lon="6.43056">
        <ele>1729.562</ele>
        <time>2020-10-07T10:39:36Z</time>
      </trkpt>
      <trkpt lat="44.33665" lon="6.43058">
        <ele>1734.524</ele>
        <time>2020-10-07T10:39:42Z</time>
      </trkpt>
      <trkpt lat="44.33671" lon="6.43071">
        <ele>1735.284</ele>
        <time>2020-10-07T10:39:48Z</time>
      </trkpt>
      <trkpt lat="44.3367" lon="6.43076">
        <ele>1734.81</ele>
        <time>2020-10-07T10:39:53Z</time>
      </trkpt>
      <trkpt lat="44.33673" lon="6.43078">
        <ele>1739.142</ele>
        <time>2020-10-07T10:39:59Z</time>
      </trkpt>
      <trkpt lat="44.33674" lon="6.4308">
        <ele>1742.733</ele>
        <time>2020-10-07T10:40:05Z</time>
      </trkpt>
      <trkpt lat="44.33671" lon="6.43083">
        <ele>1745.969</ele>
        <time>2020-10-07T10:40:11Z</time>
      </trkpt>
      <trkpt lat="44.33668" lon="6.43083">
        <ele>1748.605</ele>
        <time>2020-10-07T10:40:16Z</time>
      </trkpt>
      <trkpt lat="44.33669" lon="6.43085">
        <ele>1749.978</ele>
        <time>2020-10-07T10:40:22Z</time>
      </trkpt>
      <trkpt lat="44.33667" lon="6.43081">
        <ele>1751.984</ele>
        <time>2020-10-07T10:40:27Z</time>
      </trkpt>
      <trkpt lat="44.33666" lon="6.43083">
        <ele>1749.346</ele>
        <time>2020-10-07T10:40:32Z</time>
      </trkpt>
      <trkpt lat="44.33665" lon="6.43082">
        <ele>1747.79</ele>
        <time>2020-10-07T10:40:38Z</time>
      </trkpt>
      <trkpt lat="44.33667" lon="6.43092">
        <ele>1744.806</ele>
        <time>2020-10-07T10:40:43Z</time>
      </trkpt>
      <trkpt lat="44.33667" lon="6.43104">
        <ele>1745.302</ele>
        <time>2020-10-07T10:40:49Z</time>
      </trkpt>
      <trkpt lat="44.33669" lon="6.43112">
        <ele>1747.35</ele>
        <time>2020-10-07T10:40:55Z</time>
      </trkpt>
      <trkpt lat="44.33674" lon="6.43117">
        <ele>1747.443</ele>
        <time>2020-10-07T10:41:00Z</time>
      </trkpt>
      <trkpt lat="44.33673" lon="6.43123">
        <ele>1747.284</ele>
        <time>2020-10-07T10:41:05Z</time>
      </trkpt>
      <trkpt lat="44.33676" lon="6.43127">
        <ele>1745.722</ele>
        <time>2020-10-07T10:41:10Z</time>
      </trkpt>
      <trkpt lat="44.33676" lon="6.43133">
        <ele>1742.528</ele>
        <time>2020-10-07T10:41:16Z</time>
      </trkpt>
      <trkpt lat="44.33673" lon="6.43138">
        <ele>1743.006</ele>
        <time>2020-10-07T10:41:22Z</time>
      </trkpt>
      <trkpt lat="44.33669" lon="6.43138">
        <ele>1740.091</ele>
        <time>2020-10-07T10:41:28Z</time>
      </trkpt>
      <trkpt lat="44.33667" lon="6.43139">
        <ele>1743.624</ele>
        <time>2020-10-07T10:41:34Z</time>
      </trkpt>
      <trkpt lat="44.33664" lon="6.43139">
        <ele>1742.845</ele>
        <time>2020-10-07T10:41:39Z</time>
      </trkpt>
      <trkpt lat="44.33665" lon="6.43145">
        <ele>1743.05</ele>
        <time>2020-10-07T10:41:44Z</time>
      </trkpt>
      <trkpt lat="44.33664" lon="6.43149">
        <ele>1741.875</ele>
        <time>2020-10-07T10:41:50Z</time>
      </trkpt>
      <trkpt lat="44.33662" lon="6.43156">
        <ele>1745.208</ele>
        <time>2020-10-07T10:41:56Z</time>
      </trkpt>
      <trkpt lat="44.33664" lon="6.4316">
        <ele>1752.603</ele>
        <time>2020-10-07T10:42:01Z</time>
      </trkpt>
      <trkpt lat="44.33666" lon="6.43169">
        <ele>1757.092</ele>
        <time>2020-10-07T10:42:07Z</time>
      </trkpt>
      <trkpt lat="44.33668" lon="6.43173">
        <ele>1760.231</ele>
        <time>2020-10-07T10:42:12Z</time>
      </trkpt>
      <trkpt lat="44.3367" lon="6.43178">
        <ele>1759.494</ele>
        <time>2020-10-07T10:42:17Z</time>
      </trkpt>
      <trkpt lat="44.33668" lon="6.43181">
        <ele>1757.315</ele>
        <time>2020-10-07T10:42:23Z</time>
      </trkpt>
      <trkpt lat="44.33667" lon="6.43186">
        <ele>1754.194</ele>
        <time>2020-10-07T10:42:29Z</time>
      </trkpt>
      <trkpt lat="44.33671" lon="6.4319">
        <ele>1755.666</ele>
        <time>2020-10-07T10:42:34Z</time>
      </trkpt>
      <trkpt lat="44.33665" lon="6.43191">
        <ele>1742.81</ele>
        <time>2020-10-07T10:42:39Z</time>
      </trkpt>
      <trkpt lat="44.33664" lon="6.43194">
        <ele>1738.558</ele>
        <time>2020-10-07T10:42:45Z</time>
      </trkpt>
      <trkpt lat="44.33663" lon="6.43194">
        <ele>1735.681</ele>
        <time>2020-10-07T10:42:50Z</time>
      </trkpt>
      <trkpt lat="44.3366" lon="6.43194">
        <ele>1733.929</ele>
        <time>2020-10-07T10:42:56Z</time>
      </trkpt>
      <trkpt lat="44.3366" lon="6.43195">
        <ele>1737.427</ele>
        <time>2020-10-07T10:43:01Z</time>
      </trkpt>
      <trkpt lat="44.33658" lon="6.43197">
        <ele>1737.389</ele>
        <time>2020-10-07T10:43:07Z</time>
      </trkpt>
      <trkpt lat="44.33659" lon="6.43201">
        <ele>1740.646</ele>
        <time>2020-10-07T10:43:13Z</time>
      </trkpt>
      <trkpt lat="44.33659" lon="6.43203">
        <ele>1742.786</ele>
        <time>2020-10-07T10:43:19Z</time>
      </trkpt>
      <trkpt lat="44.3366" lon="6.43205">
        <ele>1742.957</ele>
        <time>2020-10-07T10:43:25Z</time>
      </trkpt>
      <trkpt lat="44.33663" lon="6.43209">
        <ele>1742.634</ele>
        <time>2020-10-07T10:43:30Z</time>
      </trkpt>
      <trkpt lat="44.33664" lon="6.43211">
        <ele>1744.987</ele>
        <time>2020-10-07T10:43:36Z</time>
      </trkpt>
      <trkpt lat="44.3367" lon="6.43214">
        <ele>1744.681</ele>
        <time>2020-10-07T10:43:41Z</time>
      </trkpt>
      <trkpt lat="44.33669" lon="6.43219">
        <ele>1744.135</ele>
        <time>2020-10-07T10:43:47Z</time>
      </trkpt>
      <trkpt lat="44.33668" lon="6.4322">
        <ele>1751.582</ele>
        <time>2020-10-07T10:43:53Z</time>
      </trkpt>
      <trkpt lat="44.33667" lon="6.43222">
        <ele>1751.027</ele>
        <time>2020-10-07T10:43:59Z</time>
      </trkpt>
      <trkpt lat="44.33665" lon="6.43227">
        <ele>1745.741</ele>
        <time>2020-10-07T10:44:05Z</time>
      </trkpt>
      <trkpt lat="44.33666" lon="6.43228">
        <ele>1743.4</ele>
        <time>2020-10-07T10:44:11Z</time>
      </trkpt>
      <trkpt lat="44.33666" lon="6.43227">
        <ele>1744.624</ele>
        <time>2020-10-07T10:44:17Z</time>
      </trkpt>
      <trkpt lat="44.33666" lon="6.43228">
        <ele>1746.155</ele>
        <time>2020-10-07T10:44:22Z</time>
      </trkpt>
      <trkpt lat="44.33671" lon="6.43237">
        <ele>1749.938</ele>
        <time>2020-10-07T10:44:28Z</time>
      </trkpt>
      <trkpt lat="44.33671" lon="6.43238">
        <ele>1749.34</ele>
        <time>2020-10-07T10:44:33Z</time>
      </trkpt>
      <trkpt lat="44.33671" lon="6.43237">
        <ele>1753.588</ele>
        <time>2020-10-07T10:44:39Z</time>
      </trkpt>
      <trkpt lat="44.3367" lon="6.43239">
        <ele>1752.694</ele>
        <time>2020-10-07T10:44:44Z</time>
      </trkpt>
      <trkpt lat="44.3367" lon="6.4324">
        <ele>1752.542</ele>
        <time>2020-10-07T10:44:50Z</time>
      </trkpt>
      <trkpt lat="44.3367" lon="6.4324">
        <ele>1752.675</ele>
        <time>2020-10-07T10:44:56Z</time>
      </trkpt>
      <trkpt lat="44.3367" lon="6.4324">
        <ele>1752.681</ele>
        <time>2020-10-07T10:45:01Z</time>
      </trkpt>
      <trkpt lat="44.3367" lon="6.4324">
        <ele>1752.776</ele>
        <time>2020-10-07T10:45:06Z</time>
      </trkpt>
      <trkpt lat="44.3367" lon="6.4324">
        <ele>1752.783</ele>
        <time>2020-10-07T10:45:12Z</time>
      </trkpt>
      <trkpt lat="44.33667" lon="6.43238">
        <ele>1757.299</ele>
        <time>2020-10-07T10:45:17Z</time>
      </trkpt>
      <trkpt lat="44.33666" lon="6.43237">
        <ele>1762.078</ele>
        <time>2020-10-07T10:45:23Z</time>
      </trkpt>
      <trkpt lat="44.33664" lon="6.43236">
        <ele>1762.463</ele>
        <time>2020-10-07T10:45:28Z</time>
      </trkpt>
      <trkpt lat="44.33663" lon="6.43238">
        <ele>1761.388</ele>
        <time>2020-10-07T10:45:34Z</time>
      </trkpt>
      <trkpt lat="44.33659" lon="6.43238">
        <ele>1757.265</ele>
        <time>2020-10-07T10:45:40Z</time>
      </trkpt>
      <trkpt lat="44.33662" lon="6.43238">
        <ele>1760.095</ele>
        <time>2020-10-07T10:45:46Z</time>
      </trkpt>
      <trkpt lat="44.3366" lon="6.43237">
        <ele>1757.818</ele>
        <time>2020-10-07T10:45:51Z</time>
      </trkpt>
      <trkpt lat="44.3366" lon="6.43237">
        <ele>1757.798</ele>
        <time>2020-10-07T10:45:57Z</time>
      </trkpt>
      <trkpt lat="44.3366" lon="6.43237">
        <ele>1757.772</ele>
        <time>2020-10-07T10:46:03Z</time>
      </trkpt>
      <trkpt lat="44.3366" lon="6.43237">
        <ele>1757.745</ele>
        <time>2020-10-07T10:46:08Z</time>
      </trkpt>
      <trkpt lat="44.3366" lon="6.43237">
        <ele>1757.716</ele>
        <time>2020-10-07T10:46:13Z</time>
      </trkpt>
      <trkpt lat="44.33661" lon="6.43243">
        <ele>1757.837</ele>
        <time>2020-10-07T10:46:19Z</time>
      </trkpt>
      <trkpt lat="44.33658" lon="6.43242">
        <ele>1731.997</ele>
        <time>2020-10-07T10:46:25Z</time>
      </trkpt>
      <trkpt lat="44.33659" lon="6.43242">
        <ele>1742.535</ele>
        <time>2020-10-07T10:46:31Z</time>
      </trkpt>
      <trkpt lat="44.33659" lon="6.43243">
        <ele>1749.754</ele>
        <time>2020-10-07T10:46:36Z</time>
      </trkpt>
      <trkpt lat="44.33659" lon="6.43243">
        <ele>1754.186</ele>
        <time>2020-10-07T10:46:43Z</time>
      </trkpt>
      <trkpt lat="44.33662" lon="6.43251">
        <ele>1753.592</ele>
        <time>2020-10-07T10:46:49Z</time>
      </trkpt>
      <trkpt lat="44.33662" lon="6.43262">
        <ele>1749.344</ele>
        <time>2020-10-07T10:46:55Z</time>
      </trkpt>
      <trkpt lat="44.33659" lon="6.43262">
        <ele>1750.094</ele>
        <time>2020-10-07T10:47:01Z</time>
      </trkpt>
      <trkpt lat="44.3366" lon="6.43264">
        <ele>1751.296</ele>
        <time>2020-10-07T10:47:06Z</time>
      </trkpt>
      <trkpt lat="44.33661" lon="6.43264">
        <ele>1751.708</ele>
        <time>2020-10-07T10:47:11Z</time>
      </trkpt>
      <trkpt lat="44.33661" lon="6.43264">
        <ele>1751.906</ele>
        <time>2020-10-07T10:47:17Z</time>
      </trkpt>
      <trkpt lat="44.33662" lon="6.43264">
        <ele>1754.522</ele>
        <time>2020-10-07T10:47:22Z</time>
      </trkpt>
      <trkpt lat="44.33663" lon="6.43264">
        <ele>1755.258</ele>
        <time>2020-10-07T10:47:27Z</time>
      </trkpt>
      <trkpt lat="44.33665" lon="6.43263">
        <ele>1758.48</ele>
        <time>2020-10-07T10:47:33Z</time>
      </trkpt>
      <trkpt lat="44.33667" lon="6.43259">
        <ele>1763.047</ele>
        <time>2020-10-07T10:47:38Z</time>
      </trkpt>
      <trkpt lat="44.33668" lon="6.4326">
        <ele>1762.006</ele>
        <time>2020-10-07T10:47:43Z</time>
      </trkpt>
      <trkpt lat="44.33669" lon="6.43262">
        <ele>1761.888</ele>
        <time>2020-10-07T10:47:48Z</time>
      </trkpt>
      <trkpt lat="44.33669" lon="6.43261">
        <ele>1758.295</ele>
        <time>2020-10-07T10:47:54Z</time>
      </trkpt>
      <trkpt lat="44.33667" lon="6.43259">
        <ele>1753.921</ele>
        <time>2020-10-07T10:48:00Z</time>
      </trkpt>
      <trkpt lat="44.33667" lon="6.43259">
        <ele>1753.647</ele>
        <time>2020-10-07T10:48:05Z</time>
      </trkpt>
      <trkpt lat="44.33668" lon="6.43257">
        <ele>1754.609</ele>
        <time>2020-10-07T10:48:11Z</time>
      </trkpt>
      <trkpt lat="44.33668" lon="6.43258">
        <ele>1754.483</ele>
        <time>2020-10-07T10:48:17Z</time>
      </trkpt>
      <trkpt lat="44.33669" lon="6.43257">
        <ele>1756.615</ele>
        <time>2020-10-07T10:48:22Z</time>
      </trkpt>
      <trkpt lat="44.33667" lon="6.43258">
        <ele>1756.066</ele>
        <time>2020-10-07T10:48:27Z</time>
      </trkpt>
      <trkpt lat="44.33668" lon="6.43258">
        <ele>1756.835</ele>
        <time>2020-10-07T10:48:33Z</time>
      </trkpt>
      <trkpt lat="44.33668" lon="6.43258">
        <ele>1754.638</ele>
        <time>2020-10-07T10:48:38Z</time>
      </trkpt>
      <trkpt lat="44.3367" lon="6.43258">
        <ele>1754.271</ele>
        <time>2020-10-07T10:48:43Z</time>
      </trkpt>
      <trkpt lat="44.33668" lon="6.43252">
        <ele>1752.483</ele>
        <time>2020-10-07T10:48:49Z</time>
      </trkpt>
      <trkpt lat="44.33667" lon="6.4325">
        <ele>1750.617</ele>
        <time>2020-10-07T10:48:54Z</time>
      </trkpt>
      <trkpt lat="44.33667" lon="6.43251">
        <ele>1751.669</ele>
        <time>2020-10-07T10:49:00Z</time>
      </trkpt>
      <trkpt lat="44.33668" lon="6.43254">
        <ele>1750.551</ele>
        <time>2020-10-07T10:49:05Z</time>
      </trkpt>
      <trkpt lat="44.33668" lon="6.43256">
        <ele>1754.238</ele>
        <time>2020-10-07T10:49:11Z</time>
      </trkpt>
      <trkpt lat="44.33669" lon="6.43256">
        <ele>1755.448</ele>
        <time>2020-10-07T10:49:16Z</time>
      </trkpt>
      <trkpt lat="44.33669" lon="6.43255">
        <ele>1752.289</ele>
        <time>2020-10-07T10:49:22Z</time>
      </trkpt>
      <trkpt lat="44.33668" lon="6.43255">
        <ele>1748.72</ele>
        <time>2020-10-07T10:49:27Z</time>
      </trkpt>
      <trkpt lat="44.33666" lon="6.43254">
        <ele>1748.237</ele>
        <time>2020-10-07T10:49:33Z</time>
      </trkpt>
      <trkpt lat="44.33665" lon="6.43254">
        <ele>1748.281</ele>
        <time>2020-10-07T10:49:38Z</time>
      </trkpt>
      <trkpt lat="44.33665" lon="6.43254">
        <ele>1748.477</ele>
        <time>2020-10-07T10:49:43Z</time>
      </trkpt>
      <trkpt lat="44.33665" lon="6.43255">
        <ele>1748.496</ele>
        <time>2020-10-07T10:49:49Z</time>
      </trkpt>
      <trkpt lat="44.33665" lon="6.43255">
        <ele>1748.532</ele>
        <time>2020-10-07T10:49:55Z</time>
      </trkpt>
      <trkpt lat="44.33665" lon="6.43253">
        <ele>1750.313</ele>
        <time>2020-10-07T10:50:01Z</time>
      </trkpt>
      <trkpt lat="44.33666" lon="6.43252">
        <ele>1749.885</ele>
        <time>2020-10-07T10:50:06Z</time>
      </trkpt>
      <trkpt lat="44.33664" lon="6.4325">
        <ele>1748.786</ele>
        <time>2020-10-07T10:50:12Z</time>
      </trkpt>
      <trkpt lat="44.33664" lon="6.4325">
        <ele>1750.261</ele>
        <time>2020-10-07T10:50:17Z</time>
      </trkpt>
      <trkpt lat="44.33664" lon="6.4325">
        <ele>1750.291</ele>
        <time>2020-10-07T10:50:23Z</time>
      </trkpt>
      <trkpt lat="44.33666" lon="6.43251">
        <ele>1755.195</ele>
        <time>2020-10-07T10:50:29Z</time>
      </trkpt>
      <trkpt lat="44.33668" lon="6.43252">
        <ele>1757.103</ele>
        <time>2020-10-07T10:50:34Z</time>
      </trkpt>
      <trkpt lat="44.33666" lon="6.43252">
        <ele>1754.889</ele>
        <time>2020-10-07T10:50:40Z</time>
      </trkpt>
      <trkpt lat="44.33663" lon="6.43255">
        <ele>1753.056</ele>
        <time>2020-10-07T10:50:45Z</time>
      </trkpt>
      <trkpt lat="44.33663" lon="6.43256">
        <ele>1751.955</ele>
        <time>2020-10-07T10:50:51Z</time>
      </trkpt>
      <trkpt lat="44.33661" lon="6.43255">
        <ele>1750.964</ele>
        <time>2020-10-07T10:50:56Z</time>
      </trkpt>
      <trkpt lat="44.33661" lon="6.43255">
        <ele>1750.941</ele>
        <time>2020-10-07T10:51:02Z</time>
      </trkpt>
      <trkpt lat="44.33661" lon="6.43255">
        <ele>1750.944</ele>
        <time>2020-10-07T10:51:07Z</time>
      </trkpt>
      <trkpt lat="44.3366" lon="6.43255">
        <ele>1750.2</ele>
        <time>2020-10-07T10:51:13Z</time>
      </trkpt>
      <trkpt lat="44.33661" lon="6.43254">
        <ele>1750.924</ele>
        <time>2020-10-07T10:51:18Z</time>
      </trkpt>
      <trkpt lat="44.33661" lon="6.43255">
        <ele>1749.507</ele>
        <time>2020-10-07T10:51:23Z</time>
      </trkpt>
      <trkpt lat="44.33665" lon="6.43256">
        <ele>1751.606</ele>
        <time>2020-10-07T10:51:29Z</time>
      </trkpt>
      <trkpt lat="44.33668" lon="6.43256">
        <ele>1756.439</ele>
        <time>2020-10-07T10:51:34Z</time>
      </trkpt>
      <trkpt lat="44.3367" lon="6.43255">
        <ele>1760.46</ele>
        <time>2020-10-07T10:51:40Z</time>
      </trkpt>
      <trkpt lat="44.3367" lon="6.43254">
        <ele>1757.596</ele>
        <time>2020-10-07T10:51:45Z</time>
      </trkpt>
      <trkpt lat="44.33674" lon="6.43254">
        <ele>1762.492</ele>
        <time>2020-10-07T10:51:51Z</time>
      </trkpt>
      <trkpt lat="44.33674" lon="6.43251">
        <ele>1762.608</ele>
        <time>2020-10-07T10:51:57Z</time>
      </trkpt>
      <trkpt lat="44.33676" lon="6.4325">
        <ele>1763.442</ele>
        <time>2020-10-07T10:52:02Z</time>
      </trkpt>
      <trkpt lat="44.33676" lon="6.43251">
        <ele>1762.499</ele>
        <time>2020-10-07T10:52:07Z</time>
      </trkpt>
      <trkpt lat="44.33676" lon="6.43249">
        <ele>1765.922</ele>
        <time>2020-10-07T10:52:13Z</time>
      </trkpt>
      <trkpt lat="44.33677" lon="6.43248">
        <ele>1766.783</ele>
        <time>2020-10-07T10:52:19Z</time>
      </trkpt>
      <trkpt lat="44.33677" lon="6.43248">
        <ele>1766.792</ele>
        <time>2020-10-07T10:52:24Z</time>
      </trkpt>
      <trkpt lat="44.33677" lon="6.43248">
        <ele>1766.787</ele>
        <time>2020-10-07T10:52:30Z</time>
      </trkpt>
      <trkpt lat="44.33676" lon="6.43248">
        <ele>1764.692</ele>
        <time>2020-10-07T10:52:35Z</time>
      </trkpt>
      <trkpt lat="44.33678" lon="6.43246">
        <ele>1762.586</ele>
        <time>2020-10-07T10:52:41Z</time>
      </trkpt>
      <trkpt lat="44.33682" lon="6.43244">
        <ele>1764.586</ele>
        <time>2020-10-07T10:52:46Z</time>
      </trkpt>
      <trkpt lat="44.33682" lon="6.43245">
        <ele>1765.026</ele>
        <time>2020-10-07T10:52:52Z</time>
      </trkpt>
      <trkpt lat="44.33679" lon="6.43247">
        <ele>1764.945</ele>
        <time>2020-10-07T10:52:57Z</time>
      </trkpt>
      <trkpt lat="44.33672" lon="6.43246">
        <ele>1759.217</ele>
        <time>2020-10-07T10:53:03Z</time>
      </trkpt>
      <trkpt lat="44.33669" lon="6.43246">
        <ele>1758.853</ele>
        <time>2020-10-07T10:53:09Z</time>
      </trkpt>
      <trkpt lat="44.33669" lon="6.43246">
        <ele>1760.366</ele>
        <time>2020-10-07T10:53:15Z</time>
      </trkpt>
      <trkpt lat="44.33669" lon="6.43247">
        <ele>1759.848</ele>
        <time>2020-10-07T10:53:21Z</time>
      </trkpt>
      <trkpt lat="44.3367" lon="6.43248">
        <ele>1760.913</ele>
        <time>2020-10-07T10:53:27Z</time>
      </trkpt>
      <trkpt lat="44.33671" lon="6.43248">
        <ele>1761.436</ele>
        <time>2020-10-07T10:53:32Z</time>
      </trkpt>
      <trkpt lat="44.33671" lon="6.43248">
        <ele>1761.85</ele>
        <time>2020-10-07T10:53:38Z</time>
      </trkpt>
      <trkpt lat="44.33671" lon="6.43248">
        <ele>1761.837</ele>
        <time>2020-10-07T10:53:44Z</time>
      </trkpt>
      <trkpt lat="44.33671" lon="6.43248">
        <ele>1761.85</ele>
        <time>2020-10-07T10:53:49Z</time>
      </trkpt>
      <trkpt lat="44.33673" lon="6.43241">
        <ele>1763.655</ele>
        <time>2020-10-07T10:53:55Z</time>
      </trkpt>
      <trkpt lat="44.33671" lon="6.43241">
        <ele>1762.973</ele>
        <time>2020-10-07T10:54:00Z</time>
      </trkpt>
      <trkpt lat="44.33669" lon="6.43243">
        <ele>1761.532</ele>
        <time>2020-10-07T10:54:06Z</time>
      </trkpt>
      <trkpt lat="44.3367" lon="6.43245">
        <ele>1765.166</ele>
        <time>2020-10-07T10:54:12Z</time>
      </trkpt>
      <trkpt lat="44.3367" lon="6.43244">
        <ele>1762.442</ele>
        <time>2020-10-07T10:54:17Z</time>
      </trkpt>
      <trkpt lat="44.3367" lon="6.43245">
        <ele>1758.701</ele>
        <time>2020-10-07T10:54:23Z</time>
      </trkpt>
      <trkpt lat="44.33669" lon="6.43245">
        <ele>1757.27</ele>
        <time>2020-10-07T10:54:29Z</time>
      </trkpt>
      <trkpt lat="44.33668" lon="6.43248">
        <ele>1758.171</ele>
        <time>2020-10-07T10:54:35Z</time>
      </trkpt>
      <trkpt lat="44.3367" lon="6.43252">
        <ele>1752.389</ele>
        <time>2020-10-07T10:54:41Z</time>
      </trkpt>
      <trkpt lat="44.33671" lon="6.43252">
        <ele>1754.85</ele>
        <time>2020-10-07T10:54:46Z</time>
      </trkpt>
      <trkpt lat="44.33671" lon="6.43253">
        <ele>1755.437</ele>
        <time>2020-10-07T10:54:52Z</time>
      </trkpt>
      <trkpt lat="44.33671" lon="6.43253">
        <ele>1756.173</ele>
        <time>2020-10-07T10:54:58Z</time>
      </trkpt>
      <trkpt lat="44.3367" lon="6.43252">
        <ele>1761.446</ele>
        <time>2020-10-07T10:55:03Z</time>
      </trkpt>
      <trkpt lat="44.3367" lon="6.43253">
        <ele>1760.177</ele>
        <time>2020-10-07T10:55:09Z</time>
      </trkpt>
      <trkpt lat="44.33671" lon="6.43252">
        <ele>1763.321</ele>
        <time>2020-10-07T10:55:14Z</time>
      </trkpt>
      <trkpt lat="44.33675" lon="6.4325">
        <ele>1761.985</ele>
        <time>2020-10-07T10:55:20Z</time>
      </trkpt>
      <trkpt lat="44.33678" lon="6.43241">
        <ele>1757.157</ele>
        <time>2020-10-07T10:55:26Z</time>
      </trkpt>
      <trkpt lat="44.33677" lon="6.43238">
        <ele>1756.478</ele>
        <time>2020-10-07T10:55:32Z</time>
      </trkpt>
      <trkpt lat="44.33677" lon="6.43238">
        <ele>1756.362</ele>
        <time>2020-10-07T10:55:37Z</time>
      </trkpt>
      <trkpt lat="44.33678" lon="6.43237">
        <ele>1757.076</ele>
        <time>2020-10-07T10:55:43Z</time>
      </trkpt>
      <trkpt lat="44.33678" lon="6.43229">
        <ele>1756.284</ele>
        <time>2020-10-07T10:55:49Z</time>
      </trkpt>
      <trkpt lat="44.33676" lon="6.43225">
        <ele>1753.42</ele>
        <time>2020-10-07T10:55:54Z</time>
      </trkpt>
      <trkpt lat="44.33677" lon="6.43222">
        <ele>1751.458</ele>
        <time>2020-10-07T10:55:59Z</time>
      </trkpt>
      <trkpt lat="44.33671" lon="6.43212">
        <ele>1750.057</ele>
        <time>2020-10-07T10:56:05Z</time>
      </trkpt>
      <trkpt lat="44.33669" lon="6.43206">
        <ele>1751.707</ele>
        <time>2020-10-07T10:56:10Z</time>
      </trkpt>
      <trkpt lat="44.33666" lon="6.43203">
        <ele>1750.697</ele>
        <time>2020-10-07T10:56:16Z</time>
      </trkpt>
      <trkpt lat="44.33666" lon="6.43201">
        <ele>1751.359</ele>
        <time>2020-10-07T10:56:21Z</time>
      </trkpt>
      <trkpt lat="44.33664" lon="6.43191">
        <ele>1753.007</ele>
        <time>2020-10-07T10:56:27Z</time>
      </trkpt>
      <trkpt lat="44.33669" lon="6.43186">
        <ele>1755.43</ele>
        <time>2020-10-07T10:56:32Z</time>
      </trkpt>
      <trkpt lat="44.3367" lon="6.43186">
        <ele>1754.202</ele>
        <time>2020-10-07T10:56:37Z</time>
      </trkpt>
      <trkpt lat="44.3367" lon="6.43182">
        <ele>1757.54</ele>
        <time>2020-10-07T10:56:43Z</time>
      </trkpt>
      <trkpt lat="44.3367" lon="6.4318">
        <ele>1757.257</ele>
        <time>2020-10-07T10:56:48Z</time>
      </trkpt>
      <trkpt lat="44.33679" lon="6.43173">
        <ele>1755.209</ele>
        <time>2020-10-07T10:56:54Z</time>
      </trkpt>
      <trkpt lat="44.3368" lon="6.43159">
        <ele>1759.473</ele>
        <time>2020-10-07T10:57:00Z</time>
      </trkpt>
      <trkpt lat="44.33677" lon="6.43151">
        <ele>1756.917</ele>
        <time>2020-10-07T10:57:05Z</time>
      </trkpt>
      <trkpt lat="44.33674" lon="6.43143">
        <ele>1753.255</ele>
        <time>2020-10-07T10:57:11Z</time>
      </trkpt>
      <trkpt lat="44.33673" lon="6.43133">
        <ele>1750.448</ele>
        <time>2020-10-07T10:57:17Z</time>
      </trkpt>
      <trkpt lat="44.33675" lon="6.43127">
        <ele>1746.618</ele>
        <time>2020-10-07T10:57:22Z</time>
      </trkpt>
      <trkpt lat="44.33679" lon="6.43116">
        <ele>1746.162</ele>
        <time>2020-10-07T10:57:27Z</time>
      </trkpt>
      <trkpt lat="44.33678" lon="6.43109">
        <ele>1747.74</ele>
        <time>2020-10-07T10:57:32Z</time>
      </trkpt>
      <trkpt lat="44.33679" lon="6.43107">
        <ele>1745.657</ele>
        <time>2020-10-07T10:57:38Z</time>
      </trkpt>
      <trkpt lat="44.33679" lon="6.43107">
        <ele>1748.6</ele>
        <time>2020-10-07T10:57:43Z</time>
      </trkpt>
      <trkpt lat="44.33678" lon="6.43106">
        <ele>1751.762</ele>
        <time>2020-10-07T10:57:49Z</time>
      </trkpt>
      <trkpt lat="44.33679" lon="6.43107">
        <ele>1752.623</ele>
        <time>2020-10-07T10:57:54Z</time>
      </trkpt>
      <trkpt lat="44.33675" lon="6.43102">
        <ele>1749.314</ele>
        <time>2020-10-07T10:58:00Z</time>
      </trkpt>
      <trkpt lat="44.33676" lon="6.43098">
        <ele>1747.772</ele>
        <time>2020-10-07T10:58:05Z</time>
      </trkpt>
      <trkpt lat="44.33677" lon="6.43098">
        <ele>1748.305</ele>
        <time>2020-10-07T10:58:11Z</time>
      </trkpt>
      <trkpt lat="44.33678" lon="6.43098">
        <ele>1748.552</ele>
        <time>2020-10-07T10:58:16Z</time>
      </trkpt>
      <trkpt lat="44.33679" lon="6.43088">
        <ele>1746.828</ele>
        <time>2020-10-07T10:58:22Z</time>
      </trkpt>
      <trkpt lat="44.33682" lon="6.43088">
        <ele>1743.789</ele>
        <time>2020-10-07T10:58:27Z</time>
      </trkpt>
      <trkpt lat="44.33682" lon="6.43087">
        <ele>1741.951</ele>
        <time>2020-10-07T10:58:33Z</time>
      </trkpt>
      <trkpt lat="44.33677" lon="6.4308">
        <ele>1740.542</ele>
        <time>2020-10-07T10:58:38Z</time>
      </trkpt>
      <trkpt lat="44.33679" lon="6.43074">
        <ele>1738.16</ele>
        <time>2020-10-07T10:58:44Z</time>
      </trkpt>
      <trkpt lat="44.33684" lon="6.43066">
        <ele>1745.327</ele>
        <time>2020-10-07T10:58:50Z</time>
      </trkpt>
      <trkpt lat="44.33685" lon="6.4306">
        <ele>1747.39</ele>
        <time>2020-10-07T10:58:55Z</time>
      </trkpt>
      <trkpt lat="44.33686" lon="6.43052">
        <ele>1744.744</ele>
        <time>2020-10-07T10:59:01Z</time>
      </trkpt>
      <trkpt lat="44.33682" lon="6.43049">
        <ele>1746.992</ele>
        <time>2020-10-07T10:59:06Z</time>
      </trkpt>
      <trkpt lat="44.33678" lon="6.43045">
        <ele>1743.506</ele>
        <time>2020-10-07T10:59:12Z</time>
      </trkpt>
      <trkpt lat="44.33677" lon="6.43045">
        <ele>1741.254</ele>
        <time>2020-10-07T10:59:17Z</time>
      </trkpt>
      <trkpt lat="44.33679" lon="6.43036">
        <ele>1742.934</ele>
        <time>2020-10-07T10:59:22Z</time>
      </trkpt>
      <trkpt lat="44.33677" lon="6.43028">
        <ele>1746.387</ele>
        <time>2020-10-07T10:59:28Z</time>
      </trkpt>
      <trkpt lat="44.33679" lon="6.4302">
        <ele>1745.485</ele>
        <time>2020-10-07T10:59:34Z</time>
      </trkpt>
      <trkpt lat="44.33678" lon="6.4301">
        <ele>1727.376</ele>
        <time>2020-10-07T10:59:40Z</time>
      </trkpt>
      <trkpt lat="44.33674" lon="6.43002">
        <ele>1739.414</ele>
        <time>2020-10-07T10:59:45Z</time>
      </trkpt>
      <trkpt lat="44.33679" lon="6.42997">
        <ele>1739.383</ele>
        <time>2020-10-07T10:59:51Z</time>
      </trkpt>
      <trkpt lat="44.3368" lon="6.42989">
        <ele>1738.31</ele>
        <time>2020-10-07T10:59:56Z</time>
      </trkpt>
      <trkpt lat="44.33677" lon="6.4298">
        <ele>1736.344</ele>
        <time>2020-10-07T11:00:01Z</time>
      </trkpt>
      <trkpt lat="44.33675" lon="6.42971">
        <ele>1736.857</ele>
        <time>2020-10-07T11:00:07Z</time>
      </trkpt>
      <trkpt lat="44.33666" lon="6.42963">
        <ele>1735.204</ele>
        <time>2020-10-07T11:00:13Z</time>
      </trkpt>
      <trkpt lat="44.3366" lon="6.42962">
        <ele>1735.514</ele>
        <time>2020-10-07T11:00:18Z</time>
      </trkpt>
      <trkpt lat="44.33662" lon="6.42958">
        <ele>1735.62</ele>
        <time>2020-10-07T11:00:23Z</time>
      </trkpt>
      <trkpt lat="44.33659" lon="6.42959">
        <ele>1733.188</ele>
        <time>2020-10-07T11:00:29Z</time>
      </trkpt>
      <trkpt lat="44.33655" lon="6.42957">
        <ele>1734.085</ele>
        <time>2020-10-07T11:00:35Z</time>
      </trkpt>
      <trkpt lat="44.33649" lon="6.42955">
        <ele>1735.093</ele>
        <time>2020-10-07T11:00:40Z</time>
      </trkpt>
      <trkpt lat="44.33648" lon="6.42952">
        <ele>1734.027</ele>
        <time>2020-10-07T11:00:46Z</time>
      </trkpt>
      <trkpt lat="44.33648" lon="6.42947">
        <ele>1736.013</ele>
        <time>2020-10-07T11:00:52Z</time>
      </trkpt>
      <trkpt lat="44.33649" lon="6.42943">
        <ele>1736.633</ele>
        <time>2020-10-07T11:00:57Z</time>
      </trkpt>
      <trkpt lat="44.33651" lon="6.42942">
        <ele>1738.323</ele>
        <time>2020-10-07T11:01:03Z</time>
      </trkpt>
      <trkpt lat="44.3365" lon="6.42941">
        <ele>1590.872</ele>
        <time>2020-10-07T11:01:08Z</time>
      </trkpt>
      <trkpt lat="44.3365" lon="6.4294">
        <ele>1678.967</ele>
        <time>2020-10-07T11:01:14Z</time>
      </trkpt>
      <trkpt lat="44.3365" lon="6.42937">
        <ele>1715.972</ele>
        <time>2020-10-07T11:01:20Z</time>
      </trkpt>
      <trkpt lat="44.33645" lon="6.42931">
        <ele>1727.792</ele>
        <time>2020-10-07T11:01:26Z</time>
      </trkpt>
      <trkpt lat="44.33648" lon="6.42928">
        <ele>1730.83</ele>
        <time>2020-10-07T11:01:32Z</time>
      </trkpt>
      <trkpt lat="44.33648" lon="6.42923">
        <ele>1731.71</ele>
        <time>2020-10-07T11:01:37Z</time>
      </trkpt>
      <trkpt lat="44.3365" lon="6.42915">
        <ele>1730.853</ele>
        <time>2020-10-07T11:01:43Z</time>
      </trkpt>
      <trkpt lat="44.33654" lon="6.4291">
        <ele>1733.406</ele>
        <time>2020-10-07T11:01:48Z</time>
      </trkpt>
      <trkpt lat="44.33657" lon="6.42906">
        <ele>1736.35</ele>
        <time>2020-10-07T11:01:54Z</time>
      </trkpt>
      <trkpt lat="44.33658" lon="6.42905">
        <ele>1737.163</ele>
        <time>2020-10-07T11:01:59Z</time>
      </trkpt>
      <trkpt lat="44.33655" lon="6.42904">
        <ele>1735.766</ele>
        <time>2020-10-07T11:02:04Z</time>
      </trkpt>
      <trkpt lat="44.33654" lon="6.42904">
        <ele>1735.369</ele>
        <time>2020-10-07T11:02:10Z</time>
      </trkpt>
      <trkpt lat="44.33655" lon="6.42906">
        <ele>1734.668</ele>
        <time>2020-10-07T11:02:15Z</time>
      </trkpt>
      <trkpt lat="44.33655" lon="6.42904">
        <ele>1734.195</ele>
        <time>2020-10-07T11:02:21Z</time>
      </trkpt>
      <trkpt lat="44.33647" lon="6.42886">
        <ele>1736.905</ele>
        <time>2020-10-07T11:02:27Z</time>
      </trkpt>
      <trkpt lat="44.33647" lon="6.42891">
        <ele>1736.968</ele>
        <time>2020-10-07T11:02:33Z</time>
      </trkpt>
      <trkpt lat="44.33645" lon="6.42896">
        <ele>1734.896</ele>
        <time>2020-10-07T11:02:39Z</time>
      </trkpt>
      <trkpt lat="44.33645" lon="6.42898">
        <ele>1735.034</ele>
        <time>2020-10-07T11:02:45Z</time>
      </trkpt>
      <trkpt lat="44.33648" lon="6.429">
        <ele>1733.622</ele>
        <time>2020-10-07T11:02:51Z</time>
      </trkpt>
      <trkpt lat="44.33646" lon="6.429">
        <ele>1735.494</ele>
        <time>2020-10-07T11:02:57Z</time>
      </trkpt>
      <trkpt lat="44.33646" lon="6.42901">
        <ele>1735.545</ele>
        <time>2020-10-07T11:03:03Z</time>
      </trkpt>
      <trkpt lat="44.33644" lon="6.42901">
        <ele>1736.189</ele>
        <time>2020-10-07T11:03:08Z</time>
      </trkpt>
      <trkpt lat="44.33646" lon="6.42904">
        <ele>1732.252</ele>
        <time>2020-10-07T11:03:13Z</time>
      </trkpt>
      <trkpt lat="44.33648" lon="6.42904">
        <ele>1732.481</ele>
        <time>2020-10-07T11:03:19Z</time>
      </trkpt>
      <trkpt lat="44.33647" lon="6.42905">
        <ele>1732.73</ele>
        <time>2020-10-07T11:03:24Z</time>
      </trkpt>
      <trkpt lat="44.33646" lon="6.42905">
        <ele>1735.15</ele>
        <time>2020-10-07T11:03:30Z</time>
      </trkpt>
      <trkpt lat="44.33646" lon="6.42905">
        <ele>1736.607</ele>
        <time>2020-10-07T11:03:35Z</time>
      </trkpt>
      <trkpt lat="44.33651" lon="6.42907">
        <ele>1728.152</ele>
        <time>2020-10-07T11:03:40Z</time>
      </trkpt>
      <trkpt lat="44.33657" lon="6.42908">
        <ele>1728.921</ele>
        <time>2020-10-07T11:03:46Z</time>
      </trkpt>
      <trkpt lat="44.33658" lon="6.42908">
        <ele>1728.928</ele>
        <time>2020-10-07T11:03:52Z</time>
      </trkpt>
      <trkpt lat="44.33658" lon="6.42908">
        <ele>1728.958</ele>
        <time>2020-10-07T11:03:57Z</time>
      </trkpt>
      <trkpt lat="44.33655" lon="6.42911">
        <ele>1735.757</ele>
        <time>2020-10-07T11:04:03Z</time>
      </trkpt>
      <trkpt lat="44.33653" lon="6.42911">
        <ele>1735.147</ele>
        <time>2020-10-07T11:04:09Z</time>
      </trkpt>
      <trkpt lat="44.33649" lon="6.42906">
        <ele>1735.111</ele>
        <time>2020-10-07T11:04:15Z</time>
      </trkpt>
      <trkpt lat="44.33647" lon="6.42903">
        <ele>1736.38</ele>
        <time>2020-10-07T11:04:20Z</time>
      </trkpt>
      <trkpt lat="44.33647" lon="6.42903">
        <ele>1735.157</ele>
        <time>2020-10-07T11:04:26Z</time>
      </trkpt>
      <trkpt lat="44.3365" lon="6.42906">
        <ele>1739.383</ele>
        <time>2020-10-07T11:04:32Z</time>
      </trkpt>
      <trkpt lat="44.3365" lon="6.42905">
        <ele>1739.123</ele>
        <time>2020-10-07T11:04:37Z</time>
      </trkpt>
      <trkpt lat="44.3365" lon="6.42905">
        <ele>1739.967</ele>
        <time>2020-10-07T11:04:42Z</time>
      </trkpt>
      <trkpt lat="44.3365" lon="6.42905">
        <ele>1740.034</ele>
        <time>2020-10-07T11:04:48Z</time>
      </trkpt>
      <trkpt lat="44.33649" lon="6.42905">
        <ele>1740.054</ele>
        <time>2020-10-07T11:04:53Z</time>
      </trkpt>
      <trkpt lat="44.33649" lon="6.42905">
        <ele>1740.061</ele>
        <time>2020-10-07T11:04:58Z</time>
      </trkpt>
      <trkpt lat="44.33649" lon="6.42905">
        <ele>1740.074</ele>
        <time>2020-10-07T11:05:04Z</time>
      </trkpt>
      <trkpt lat="44.33649" lon="6.42905">
        <ele>1740.073</ele>
        <time>2020-10-07T11:05:10Z</time>
      </trkpt>
      <trkpt lat="44.33649" lon="6.42905">
        <ele>1740.069</ele>
        <time>2020-10-07T11:05:15Z</time>
      </trkpt>
      <trkpt lat="44.33649" lon="6.42905">
        <ele>1740.076</ele>
        <time>2020-10-07T11:05:21Z</time>
      </trkpt>
      <trkpt lat="44.3365" lon="6.42905">
        <ele>1738.894</ele>
        <time>2020-10-07T11:05:26Z</time>
      </trkpt>
      <trkpt lat="44.33651" lon="6.42906">
        <ele>1742.183</ele>
        <time>2020-10-07T11:05:32Z</time>
      </trkpt>
      <trkpt lat="44.33652" lon="6.42907">
        <ele>1741.627</ele>
        <time>2020-10-07T11:05:37Z</time>
      </trkpt>
      <trkpt lat="44.33653" lon="6.42908">
        <ele>1741.512</ele>
        <time>2020-10-07T11:05:43Z</time>
      </trkpt>
      <trkpt lat="44.33654" lon="6.4291">
        <ele>1737.522</ele>
        <time>2020-10-07T11:05:49Z</time>
      </trkpt>
      <trkpt lat="44.33651" lon="6.42903">
        <ele>1734.559</ele>
        <time>2020-10-07T11:05:54Z</time>
      </trkpt>
      <trkpt lat="44.33652" lon="6.42901">
        <ele>1731.639</ele>
        <time>2020-10-07T11:06:00Z</time>
      </trkpt>
      <trkpt lat="44.33651" lon="6.429">
        <ele>1730.431</ele>
        <time>2020-10-07T11:06:05Z</time>
      </trkpt>
      <trkpt lat="44.3365" lon="6.42899">
        <ele>1730.78</ele>
        <time>2020-10-07T11:06:11Z</time>
      </trkpt>
      <trkpt lat="44.33647" lon="6.42893">
        <ele>1726.938</ele>
        <time>2020-10-07T11:06:16Z</time>
      </trkpt>
      <trkpt lat="44.33644" lon="6.42888">
        <ele>1728.081</ele>
        <time>2020-10-07T11:06:22Z</time>
      </trkpt>
      <trkpt lat="44.33642" lon="6.42884">
        <ele>1728.482</ele>
        <time>2020-10-07T11:06:27Z</time>
      </trkpt>
      <trkpt lat="44.3364" lon="6.42878">
        <ele>1730.867</ele>
        <time>2020-10-07T11:06:32Z</time>
      </trkpt>
      <trkpt lat="44.3364" lon="6.42873">
        <ele>1733.462</ele>
        <time>2020-10-07T11:06:38Z</time>
      </trkpt>
      <trkpt lat="44.33637" lon="6.42869">
        <ele>1731.9</ele>
        <time>2020-10-07T11:06:44Z</time>
      </trkpt>
      <trkpt lat="44.33635" lon="6.42863">
        <ele>1731.92</ele>
        <time>2020-10-07T11:06:50Z</time>
      </trkpt>
      <trkpt lat="44.33632" lon="6.42859">
        <ele>1730.628</ele>
        <time>2020-10-07T11:06:56Z</time>
      </trkpt>
      <trkpt lat="44.33631" lon="6.42852">
        <ele>1729.864</ele>
        <time>2020-10-07T11:07:01Z</time>
      </trkpt>
      <trkpt lat="44.3363" lon="6.42846">
        <ele>1730.887</ele>
        <time>2020-10-07T11:07:07Z</time>
      </trkpt>
      <trkpt lat="44.33627" lon="6.42838">
        <ele>1731.349</ele>
        <time>2020-10-07T11:07:13Z</time>
      </trkpt>
      <trkpt lat="44.33626" lon="6.42829">
        <ele>1728.735</ele>
        <time>2020-10-07T11:07:19Z</time>
      </trkpt>
      <trkpt lat="44.33626" lon="6.4282">
        <ele>1730.271</ele>
        <time>2020-10-07T11:07:25Z</time>
      </trkpt>
      <trkpt lat="44.33627" lon="6.42816">
        <ele>1730.758</ele>
        <time>2020-10-07T11:07:30Z</time>
      </trkpt>
      <trkpt lat="44.33627" lon="6.42813">
        <ele>1729.027</ele>
        <time>2020-10-07T11:07:36Z</time>
      </trkpt>
      <trkpt lat="44.33629" lon="6.42806">
        <ele>1726.741</ele>
        <time>2020-10-07T11:07:42Z</time>
      </trkpt>
      <trkpt lat="44.33625" lon="6.42802">
        <ele>1725.071</ele>
        <time>2020-10-07T11:07:48Z</time>
      </trkpt>
      <trkpt lat="44.33627" lon="6.42796">
        <ele>1726.198</ele>
        <time>2020-10-07T11:07:53Z</time>
      </trkpt>
      <trkpt lat="44.33628" lon="6.42795">
        <ele>1724.54</ele>
        <time>2020-10-07T11:07:58Z</time>
      </trkpt>
      <trkpt lat="44.33626" lon="6.4279">
        <ele>1723.762</ele>
        <time>2020-10-07T11:08:04Z</time>
      </trkpt>
      <trkpt lat="44.33626" lon="6.42786">
        <ele>1726.262</ele>
        <time>2020-10-07T11:08:09Z</time>
      </trkpt>
      <trkpt lat="44.33624" lon="6.42774">
        <ele>1729.751</ele>
        <time>2020-10-07T11:08:14Z</time>
      </trkpt>
      <trkpt lat="44.33624" lon="6.42766">
        <ele>1729.329</ele>
        <time>2020-10-07T11:08:20Z</time>
      </trkpt>
      <trkpt lat="44.33625" lon="6.42764">
        <ele>1729.532</ele>
        <time>2020-10-07T11:08:26Z</time>
      </trkpt>
      <trkpt lat="44.33626" lon="6.42761">
        <ele>1728.047</ele>
        <time>2020-10-07T11:08:32Z</time>
      </trkpt>
      <trkpt lat="44.33625" lon="6.42755">
        <ele>1727.575</ele>
        <time>2020-10-07T11:08:37Z</time>
      </trkpt>
      <trkpt lat="44.33625" lon="6.42752">
        <ele>1726.992</ele>
        <time>2020-10-07T11:08:42Z</time>
      </trkpt>
      <trkpt lat="44.33627" lon="6.42748">
        <ele>1725.621</ele>
        <time>2020-10-07T11:08:47Z</time>
      </trkpt>
      <trkpt lat="44.33625" lon="6.42743">
        <ele>1721.83</ele>
        <time>2020-10-07T11:08:53Z</time>
      </trkpt>
      <trkpt lat="44.33625" lon="6.42737">
        <ele>1724.583</ele>
        <time>2020-10-07T11:08:58Z</time>
      </trkpt>
      <trkpt lat="44.33626" lon="6.42733">
        <ele>1723.134</ele>
        <time>2020-10-07T11:09:04Z</time>
      </trkpt>
      <trkpt lat="44.33626" lon="6.42729">
        <ele>1724.095</ele>
        <time>2020-10-07T11:09:09Z</time>
      </trkpt>
      <trkpt lat="44.33627" lon="6.42727">
        <ele>1723.862</ele>
        <time>2020-10-07T11:09:14Z</time>
      </trkpt>
      <trkpt lat="44.33628" lon="6.42725">
        <ele>1723.331</ele>
        <time>2020-10-07T11:09:20Z</time>
      </trkpt>
      <trkpt lat="44.33628" lon="6.42724">
        <ele>1720.808</ele>
        <time>2020-10-07T11:09:26Z</time>
      </trkpt>
      <trkpt lat="44.33627" lon="6.42724">
        <ele>1717.072</ele>
        <time>2020-10-07T11:09:32Z</time>
      </trkpt>
      <trkpt lat="44.33628" lon="6.42725">
        <ele>1715.579</ele>
        <time>2020-10-07T11:09:38Z</time>
      </trkpt>
      <trkpt lat="44.33628" lon="6.42725">
        <ele>1715.378</ele>
        <time>2020-10-07T11:09:43Z</time>
      </trkpt>
      <trkpt lat="44.33628" lon="6.42725">
        <ele>1715.007</ele>
        <time>2020-10-07T11:09:48Z</time>
      </trkpt>
      <trkpt lat="44.33628" lon="6.42725">
        <ele>1715.008</ele>
        <time>2020-10-07T11:09:54Z</time>
      </trkpt>
      <trkpt lat="44.33628" lon="6.42725">
        <ele>1714.992</ele>
        <time>2020-10-07T11:09:59Z</time>
      </trkpt>
      <trkpt lat="44.33627" lon="6.42726">
        <ele>1710.12</ele>
        <time>2020-10-07T11:10:05Z</time>
      </trkpt>
      <trkpt lat="44.33628" lon="6.4273">
        <ele>1706.035</ele>
        <time>2020-10-07T11:10:11Z</time>
      </trkpt>
      <trkpt lat="44.33628" lon="6.4273">
        <ele>1707</ele>
        <time>2020-10-07T11:10:17Z</time>
      </trkpt>
      <trkpt lat="44.33628" lon="6.42729">
        <ele>1706.186</ele>
        <time>2020-10-07T11:10:23Z</time>
      </trkpt>
      <trkpt lat="44.33627" lon="6.4273">
        <ele>1704.668</ele>
        <time>2020-10-07T11:10:28Z</time>
      </trkpt>
      <trkpt lat="44.33626" lon="6.42731">
        <ele>1704.839</ele>
        <time>2020-10-07T11:10:34Z</time>
      </trkpt>
      <trkpt lat="44.33626" lon="6.42731">
        <ele>1704.668</ele>
        <time>2020-10-07T11:10:39Z</time>
      </trkpt>
      <trkpt lat="44.33627" lon="6.42726">
        <ele>1706.197</ele>
        <time>2020-10-07T11:10:45Z</time>
      </trkpt>
      <trkpt lat="44.33627" lon="6.42727">
        <ele>1706.911</ele>
        <time>2020-10-07T11:10:51Z</time>
      </trkpt>
      <trkpt lat="44.33626" lon="6.42727">
        <ele>1708.66</ele>
        <time>2020-10-07T11:10:57Z</time>
      </trkpt>
      <trkpt lat="44.33626" lon="6.42726">
        <ele>1708.869</ele>
        <time>2020-10-07T11:11:03Z</time>
      </trkpt>
      <trkpt lat="44.33627" lon="6.42724">
        <ele>1711.514</ele>
        <time>2020-10-07T11:11:08Z</time>
      </trkpt>
      <trkpt lat="44.33624" lon="6.42723">
        <ele>1711.251</ele>
        <time>2020-10-07T11:11:14Z</time>
      </trkpt>
      <trkpt lat="44.33624" lon="6.42723">
        <ele>1711.475</ele>
        <time>2020-10-07T11:11:20Z</time>
      </trkpt>
      <trkpt lat="44.33624" lon="6.42723">
        <ele>1711.599</ele>
        <time>2020-10-07T11:11:25Z</time>
      </trkpt>
      <trkpt lat="44.33624" lon="6.42723">
        <ele>1711.659</ele>
        <time>2020-10-07T11:11:30Z</time>
      </trkpt>
      <trkpt lat="44.33625" lon="6.42723">
        <ele>1711.481</ele>
        <time>2020-10-07T11:11:36Z</time>
      </trkpt>
      <trkpt lat="44.33626" lon="6.42722">
        <ele>1710.985</ele>
        <time>2020-10-07T11:11:42Z</time>
      </trkpt>
      <trkpt lat="44.33626" lon="6.42722">
        <ele>1710.855</ele>
        <time>2020-10-07T11:11:47Z</time>
      </trkpt>
      <trkpt lat="44.33626" lon="6.42722">
        <ele>1711.016</ele>
        <time>2020-10-07T11:11:53Z</time>
      </trkpt>
      <trkpt lat="44.33626" lon="6.42722">
        <ele>1711.048</ele>
        <time>2020-10-07T11:11:58Z</time>
      </trkpt>
      <trkpt lat="44.33626" lon="6.42722">
        <ele>1711.09</ele>
        <time>2020-10-07T11:12:04Z</time>
      </trkpt>
      <trkpt lat="44.33627" lon="6.42723">
        <ele>1711.766</ele>
        <time>2020-10-07T11:12:09Z</time>
      </trkpt>
      <trkpt lat="44.33626" lon="6.42723">
        <ele>1716.065</ele>
        <time>2020-10-07T11:12:14Z</time>
      </trkpt>
      <trkpt lat="44.33627" lon="6.42722">
        <ele>1717.316</ele>
        <time>2020-10-07T11:12:20Z</time>
      </trkpt>
      <trkpt lat="44.33628" lon="6.42722">
        <ele>1717.318</ele>
        <time>2020-10-07T11:12:25Z</time>
      </trkpt>
      <trkpt lat="44.33627" lon="6.42723">
        <ele>1716.655</ele>
        <time>2020-10-07T11:12:30Z</time>
      </trkpt>
      <trkpt lat="44.33627" lon="6.4272">
        <ele>1714.056</ele>
        <time>2020-10-07T11:12:36Z</time>
      </trkpt>
      <trkpt lat="44.33628" lon="6.42717">
        <ele>1715.627</ele>
        <time>2020-10-07T11:12:41Z</time>
      </trkpt>
      <trkpt lat="44.33629" lon="6.42715">
        <ele>1714.49</ele>
        <time>2020-10-07T11:12:47Z</time>
      </trkpt>
      <trkpt lat="44.3363" lon="6.42713">
        <ele>1713.907</ele>
        <time>2020-10-07T11:12:52Z</time>
      </trkpt>
      <trkpt lat="44.33629" lon="6.42712">
        <ele>1715.64</ele>
        <time>2020-10-07T11:12:57Z</time>
      </trkpt>
      <trkpt lat="44.33628" lon="6.42711">
        <ele>1718.738</ele>
        <time>2020-10-07T11:13:03Z</time>
      </trkpt>
      <trkpt lat="44.33628" lon="6.42711">
        <ele>1714.109</ele>
        <time>2020-10-07T11:13:08Z</time>
      </trkpt>
      <trkpt lat="44.33626" lon="6.42712">
        <ele>1711.654</ele>
        <time>2020-10-07T11:13:14Z</time>
      </trkpt>
      <trkpt lat="44.33627" lon="6.4271">
        <ele>1714.834</ele>
        <time>2020-10-07T11:13:19Z</time>
      </trkpt>
      <trkpt lat="44.3363" lon="6.42709">
        <ele>1718.036</ele>
        <time>2020-10-07T11:13:25Z</time>
      </trkpt>
      <trkpt lat="44.33631" lon="6.42708">
        <ele>1719.533</ele>
        <time>2020-10-07T11:13:31Z</time>
      </trkpt>
      <trkpt lat="44.33632" lon="6.42708">
        <ele>1721.57</ele>
        <time>2020-10-07T11:13:36Z</time>
      </trkpt>
      <trkpt lat="44.3363" lon="6.42701">
        <ele>1722.241</ele>
        <time>2020-10-07T11:13:41Z</time>
      </trkpt>
      <trkpt lat="44.3363" lon="6.42696">
        <ele>1723.846</ele>
        <time>2020-10-07T11:13:47Z</time>
      </trkpt>
      <trkpt lat="44.3363" lon="6.42691">
        <ele>1724.966</ele>
        <time>2020-10-07T11:13:53Z</time>
      </trkpt>
      <trkpt lat="44.33632" lon="6.42691">
        <ele>1721.267</ele>
        <time>2020-10-07T11:13:58Z</time>
      </trkpt>
      <trkpt lat="44.33632" lon="6.42691">
        <ele>1720.503</ele>
        <time>2020-10-07T11:14:03Z</time>
      </trkpt>
      <trkpt lat="44.33633" lon="6.42691">
        <ele>1720.491</ele>
        <time>2020-10-07T11:14:09Z</time>
      </trkpt>
      <trkpt lat="44.33633" lon="6.42687">
        <ele>1717.429</ele>
        <time>2020-10-07T11:14:15Z</time>
      </trkpt>
      <trkpt lat="44.33633" lon="6.42686">
        <ele>1718.347</ele>
        <time>2020-10-07T11:14:21Z</time>
      </trkpt>
      <trkpt lat="44.33634" lon="6.42686">
        <ele>1718.825</ele>
        <time>2020-10-07T11:14:27Z</time>
      </trkpt>
      <trkpt lat="44.33634" lon="6.42686">
        <ele>1718.817</ele>
        <time>2020-10-07T11:14:33Z</time>
      </trkpt>
      <trkpt lat="44.33633" lon="6.42687">
        <ele>1722.125</ele>
        <time>2020-10-07T11:14:38Z</time>
      </trkpt>
      <trkpt lat="44.3363" lon="6.42687">
        <ele>1722.621</ele>
        <time>2020-10-07T11:14:43Z</time>
      </trkpt>
      <trkpt lat="44.33629" lon="6.42687">
        <ele>1721.91</ele>
        <time>2020-10-07T11:14:49Z</time>
      </trkpt>
      <trkpt lat="44.33627" lon="6.42691">
        <ele>1723.223</ele>
        <time>2020-10-07T11:14:55Z</time>
      </trkpt>
      <trkpt lat="44.33627" lon="6.42693">
        <ele>1724.898</ele>
        <time>2020-10-07T11:15:01Z</time>
      </trkpt>
      <trkpt lat="44.33625" lon="6.42694">
        <ele>1723.266</ele>
        <time>2020-10-07T11:15:06Z</time>
      </trkpt>
      <trkpt lat="44.33623" lon="6.42698">
        <ele>1723.901</ele>
        <time>2020-10-07T11:15:12Z</time>
      </trkpt>
      <trkpt lat="44.33622" lon="6.42701">
        <ele>1722.849</ele>
        <time>2020-10-07T11:15:17Z</time>
      </trkpt>
      <trkpt lat="44.33623" lon="6.42705">
        <ele>1721.323</ele>
        <time>2020-10-07T11:15:23Z</time>
      </trkpt>
      <trkpt lat="44.33623" lon="6.42706">
        <ele>1721.906</ele>
        <time>2020-10-07T11:15:29Z</time>
      </trkpt>
      <trkpt lat="44.33623" lon="6.42706">
        <ele>1722</ele>
        <time>2020-10-07T11:15:35Z</time>
      </trkpt>
      <trkpt lat="44.33623" lon="6.42706">
        <ele>1722.023</ele>
        <time>2020-10-07T11:15:40Z</time>
      </trkpt>
      <trkpt lat="44.33623" lon="6.42706">
        <ele>1721.991</ele>
        <time>2020-10-07T11:15:46Z</time>
      </trkpt>
      <trkpt lat="44.33623" lon="6.42706">
        <ele>1721.966</ele>
        <time>2020-10-07T11:15:52Z</time>
      </trkpt>
      <trkpt lat="44.33623" lon="6.42706">
        <ele>1721.973</ele>
        <time>2020-10-07T11:15:58Z</time>
      </trkpt>
      <trkpt lat="44.33623" lon="6.42706">
        <ele>1721.986</ele>
        <time>2020-10-07T11:16:03Z</time>
      </trkpt>
      <trkpt lat="44.33623" lon="6.42706">
        <ele>1721.998</ele>
        <time>2020-10-07T11:16:09Z</time>
      </trkpt>
      <trkpt lat="44.33623" lon="6.42706">
        <ele>1722.01</ele>
        <time>2020-10-07T11:16:15Z</time>
      </trkpt>
      <trkpt lat="44.33622" lon="6.42706">
        <ele>1719.54</ele>
        <time>2020-10-07T11:16:21Z</time>
      </trkpt>
      <trkpt lat="44.33622" lon="6.42707">
        <ele>1720.255</ele>
        <time>2020-10-07T11:16:26Z</time>
      </trkpt>
      <trkpt lat="44.33622" lon="6.42706">
        <ele>1723.394</ele>
        <time>2020-10-07T11:16:31Z</time>
      </trkpt>
      <trkpt lat="44.33622" lon="6.42706">
        <ele>1722.136</ele>
        <time>2020-10-07T11:16:37Z</time>
      </trkpt>
      <trkpt lat="44.33621" lon="6.42708">
        <ele>1721.364</ele>
        <time>2020-10-07T11:16:43Z</time>
      </trkpt>
      <trkpt lat="44.33621" lon="6.42709">
        <ele>1721.233</ele>
        <time>2020-10-07T11:16:49Z</time>
      </trkpt>
      <trkpt lat="44.33621" lon="6.42709">
        <ele>1721.59</ele>
        <time>2020-10-07T11:16:55Z</time>
      </trkpt>
      <trkpt lat="44.33621" lon="6.42709">
        <ele>1721.562</ele>
        <time>2020-10-07T11:17:00Z</time>
      </trkpt>
      <trkpt lat="44.3362" lon="6.42709">
        <ele>1721.565</ele>
        <time>2020-10-07T11:17:05Z</time>
      </trkpt>
      <trkpt lat="44.3362" lon="6.42709">
        <ele>1721.569</ele>
        <time>2020-10-07T11:17:11Z</time>
      </trkpt>
      <trkpt lat="44.3362" lon="6.42709">
        <ele>1721.583</ele>
        <time>2020-10-07T11:17:17Z</time>
      </trkpt>
      <trkpt lat="44.3362" lon="6.42709">
        <ele>1721.543</ele>
        <time>2020-10-07T11:17:23Z</time>
      </trkpt>
      <trkpt lat="44.3362" lon="6.42709">
        <ele>1721.54</ele>
        <time>2020-10-07T11:17:28Z</time>
      </trkpt>
      <trkpt lat="44.3362" lon="6.42709">
        <ele>1721.537</ele>
        <time>2020-10-07T11:17:34Z</time>
      </trkpt>
    </trkseg>
  </trk>
</gpx>